Date StartTime U_cm/s V_cm/s W_cm/s Ustd_cm/s Vstd_cm/s Wstd_cm/s Uvar_(cm/s)^2 Vvar_(cm/s)^2 Wvar_(cm/s)^2 KE_(m/s)^2 TurbulentKE_(m/s)^2 HorizWindSpeed_cm/s FrictionSpeec_cm/s DragCoef SpeedOfSound_m/s SonicTemperature_C Pressure_mb 
01/19/2015  00:00:00      -48.329      -39.437        4.790       28.860       22.771       15.284      832.886      518.526      233.591        0.275        0.079       62.378       15.673        0.063      338.137       10.585      867.791
01/19/2015  00:01:00      -51.366      -38.519        5.593       38.020       28.349       20.245     1445.500      803.658      409.878        0.341        0.133       64.204       22.938        0.128      338.170       10.639      867.814
01/19/2015  00:02:00     -112.437      -38.957      -10.359       25.217       21.170       15.303      635.886      448.180      234.181        0.779        0.066      118.995       14.561        0.015      338.199       10.686      867.816
01/19/2015  00:03:00     -112.476       -1.887       -7.779       27.975       22.324       15.488      782.593      498.383      239.866        0.712        0.076      112.492       11.284        0.010      338.155       10.614      867.815
01/19/2015  00:04:00     -111.945      -24.819        5.154       66.409       31.247       30.004     4410.197      976.345      900.229        0.973        0.314      114.663       36.875        0.103      338.073       10.477      867.822
01/19/2015  00:05:00      -76.878      -11.039       -0.516       44.910       29.410       14.745     2016.934      864.932      217.426        0.457        0.155       77.667       15.772        0.041      338.062       10.460      867.790
01/19/2015  00:06:00      -60.856        2.027        0.585       46.170       23.381       17.104     2131.656      546.653      292.560        0.334        0.149       60.889       20.147        0.109      338.081       10.492      867.781
01/19/2015  00:07:00     -103.009        3.183       -7.073       50.432       21.162       14.797     2543.348      447.832      218.954        0.694        0.161      103.058       21.391        0.043      338.147       10.600      867.754
01/19/2015  00:08:00      -27.061        2.043       -3.436       21.867       18.328       10.380      478.150      335.930      107.753        0.083        0.046       27.138       10.031        0.137      338.065       10.463      867.746
01/19/2015  00:09:00      -36.861      -33.312       -1.677       22.459       16.765       11.807      504.409      281.076      139.402        0.170        0.046       49.683        8.174        0.027      338.140       10.589      867.768
01/19/2015  00:10:00      -11.055      -11.316        5.505       25.171       17.157       10.527      633.590      294.352      110.817        0.066        0.052       15.820       11.536        0.532      338.126       10.565      867.761
01/19/2015  00:11:00       12.137        2.455        9.508       17.842       11.784        9.769      318.323      138.872       95.432        0.040        0.028       12.382        5.504        0.198      338.073       10.478      867.723
01/19/2015  00:12:00        4.097        9.873      -11.460       10.431        9.647        8.180      108.815       93.063       66.914        0.026        0.013       10.689        6.760        0.400      338.037       10.416      867.709
01/19/2015  00:13:00      -20.859        2.066       -3.975       13.505        9.462       13.177      182.391       89.527      173.623        0.045        0.022       20.961       10.901        0.270      338.105       10.533      867.711
01/19/2015  00:14:00      -13.738       19.636        1.736       13.461        7.391        8.184      181.195       54.628       66.971        0.044        0.015       23.964        8.489        0.125      338.084       10.495      867.706
01/19/2015  00:15:00       -4.163       -3.158       -6.431       21.697       27.143       10.800      470.765      736.740      116.639        0.070        0.066        5.225       15.748        9.083      338.082       10.492      867.713
01/19/2015  00:16:00       19.681        5.086        0.895       49.931       22.629       13.493     2493.149      512.054      182.048        0.180        0.159       20.327       18.716        0.848      338.116       10.548      867.712
01/19/2015  00:17:00       -7.834       33.572       55.149       25.939       35.481       28.244      672.852     1258.936      797.712        0.348        0.136       34.474       27.802        0.650      338.013       10.377      867.679
01/19/2015  00:18:00       21.366      -53.731        1.105       27.499       54.139       30.361      756.169     2931.079      921.806        0.398        0.230       57.823       29.834        0.266      338.062       10.459      867.705
01/19/2015  00:19:00        3.416       -0.232       30.465       27.824       34.908       28.049      774.165     1218.567      786.769        0.186        0.139        3.424       12.707       13.776      338.024       10.395      867.708
01/19/2015  00:20:00       27.994      -19.099       12.267       34.035       34.923       33.473     1158.413     1219.643     1120.414        0.240        0.175       33.889       28.355        0.700      338.076       10.482      867.704
01/19/2015  00:21:00        4.902       -9.836       -3.173       27.950       53.727       27.407      781.228     2886.587      751.150        0.227        0.221       10.990       22.471        4.181      338.176       10.649      867.730
01/19/2015  00:22:00       25.019        9.268       20.401       27.737       37.748       30.849      769.362     1424.922      951.690        0.214        0.157       26.680       31.023        1.352      338.129       10.572      867.743
01/19/2015  00:23:00        1.551        0.749       12.720       27.291       45.394       23.429      744.775     2060.657      548.940        0.176        0.168        1.722       25.108      212.551      338.267       10.802      867.733
01/19/2015  00:24:00       37.076       10.855        5.753       30.650       22.310       19.787      939.404      497.720      391.508        0.168        0.091       38.633       22.249        0.332      338.221       10.725      867.739
01/19/2015  00:25:00        9.065      -28.393       20.645       51.564       57.853       23.836     2658.876     3347.006      568.173        0.394        0.329       29.805       20.362        0.467      338.450       11.109      867.737
01/19/2015  00:26:00      -63.614      -45.229      -13.662       62.768       55.831       24.067     3939.778     3117.103      579.234        0.696        0.382       78.054       20.528        0.069      338.598       11.359      867.716
01/19/2015  00:27:00     -139.878     -129.269       -9.053       67.373       84.237       36.598     4539.129     7095.877     1339.409        2.466        0.649      190.464       32.498        0.029      339.044       12.105      867.673
01/19/2015  00:28:00     -204.451     -160.077       -3.328       90.439       72.062       48.757     8179.131     5192.909     2377.219        4.159        0.787      259.663       48.895        0.035      339.171       12.318      867.627
01/19/2015  00:29:00     -141.108      -88.782       -5.241       95.205       70.334       46.795     9063.990     4946.888     2189.805        2.201        0.810      166.714       56.688        0.116      339.139       12.267      867.604
01/19/2015  00:30:00     -114.883      -74.768        1.297       90.046       58.736       33.140     8108.318     3449.903     1098.253        1.572        0.633      137.071       33.770        0.061      339.116       12.228      867.619
01/19/2015  00:31:00      -62.121     -139.222        5.637      105.301       96.322       47.794    11088.354     9277.854     2284.261        2.296        1.133      152.452       42.653        0.078      339.228       12.415      867.629
01/19/2015  00:32:00      -29.285      -71.000       -8.612       72.761       65.841       38.285     5294.117     4335.058     1465.722        0.853        0.555       76.803       31.580        0.169      338.981       12.001      867.627
01/19/2015  00:33:00       -3.511      -75.174      -31.462       70.578       51.947       24.541     4981.306     2698.523      602.285        0.747        0.414       75.256       22.752        0.091      338.530       11.243      867.653
01/19/2015  00:34:00     -169.710      -37.706       -6.338       75.039       56.853       46.449     5630.919     3232.222     2157.471        2.064        0.551      173.848       22.789        0.017      339.160       12.301      867.653
01/19/2015  00:35:00      -31.281      -53.614       11.150       87.921      115.869       42.207     7730.132    13425.526     1781.438        1.345        1.147       62.072       47.373        0.582      338.781       11.665      867.666
01/19/2015  00:36:00      -17.536        7.184       15.297       22.931       45.067       25.443      525.826     2031.017      647.325        0.190        0.160       18.951        6.496        0.118      338.514       11.217      867.643
01/19/2015  00:37:00      -17.306      -14.518        9.194       16.755       30.765       17.036      280.716      946.475      290.218        0.106        0.076       22.589        8.208        0.132      338.107       10.536      867.652
01/19/2015  00:38:00       11.901        5.688       15.168       32.590       35.426       25.465     1062.126     1255.035      648.456        0.168        0.148       13.190       25.900        3.856      338.047       10.434      867.630
01/19/2015  00:39:00       -3.043      -21.334        9.889       21.965       28.817       16.130      482.441      830.391      260.167        0.107        0.079       21.550       19.043        0.781      338.125       10.563      867.613
01/19/2015  00:40:00      -23.554       -5.846       -0.179       16.843       17.948       10.712      283.673      322.115      114.741        0.065        0.036       24.268       11.105        0.209      338.333       10.913      867.621
01/19/2015  00:41:00     -125.694      -59.433       -1.566       74.364       69.343       43.220     5529.954     4808.386     1868.002        1.577        0.610      139.037       38.660        0.077      338.934       11.923      867.619
01/19/2015  00:42:00     -189.887     -104.123        3.364      162.682       80.519       51.985    26465.529     6483.245     2702.460        4.127        1.783      216.562       68.576        0.100      339.165       12.308      867.572
01/19/2015  00:43:00     -100.464      -55.253       12.231      102.656       69.598       42.863    10538.290     4843.848     1837.225        1.525        0.861      114.656       46.067        0.161      338.949       11.948      867.538
01/19/2015  00:44:00        0.205       25.005       22.385       37.104       28.064       19.112     1376.737      787.575      365.253        0.183        0.126       25.006       14.819        0.351      338.536       11.254      867.519
01/19/2015  00:45:00       45.090      -39.658       -4.680       46.798       37.967       25.837     2190.067     1441.474      667.563        0.396        0.215       60.049       24.399        0.165      338.123       10.561      867.493
01/19/2015  00:46:00      -29.102      -68.409      -12.624       32.988       34.381       24.796     1088.224     1182.083      614.820        0.429        0.144       74.342       18.678        0.063      338.236       10.749      867.482
01/19/2015  00:47:00      -34.588      -42.894        2.790       29.491       38.479       21.788      869.706     1480.602      474.728        0.293        0.141       55.102        9.719        0.031      338.378       10.989      867.464
01/19/2015  00:48:00      -71.954      -93.243       -8.596       47.409       39.119       24.183     2247.653     1530.293      584.812        0.915        0.218      117.778       25.942        0.049      338.402       11.030      867.463
01/19/2015  00:49:00      -65.608      -21.726        7.848       35.296       30.847       20.534     1245.806      951.541      421.646        0.373        0.131       69.112       20.703        0.090      338.345       10.935      867.440
01/19/2015  00:50:00      -23.476      -67.028        3.029       20.200       41.766       20.465      408.036     1744.382      418.809        0.381        0.129       71.020       13.126        0.034      338.404       11.032      867.419
01/19/2015  00:51:00      -15.448      -61.695       -9.497       33.724       49.477       31.039     1137.335     2448.023      963.423        0.434        0.227       63.600       21.311        0.112      338.594       11.353      867.353
01/19/2015  00:52:00       18.613       -5.590       13.632       15.788       17.364       12.840      249.252      301.519      164.874        0.064        0.036       19.434        8.750        0.203      338.284       10.831      867.325
01/19/2015  00:53:00       20.794       19.976       11.315       22.366       19.772       19.827      500.233      390.949      393.123        0.112        0.064       28.834       12.825        0.198      338.112       10.541      867.340
01/19/2015  00:54:00       26.987       -6.141       52.577       42.532       69.812       52.747     1808.995     4873.683     2782.247        0.650        0.473       27.677       49.380        3.183      338.089       10.502      867.336
01/19/2015  00:55:00       46.575      -79.576       -7.043       51.255       61.323       44.337     2627.045     3760.499     1965.747        0.845        0.418       92.204       35.827        0.151      338.166       10.632      867.325
01/19/2015  00:56:00       42.277      -83.345      -27.979       50.692       71.951       42.383     2569.695     5176.903     1796.317        0.953        0.477       93.455       36.693        0.154      338.195       10.680      867.331
01/19/2015  00:57:00       11.313       24.847       54.584       43.013       76.116       69.758     1850.096     5793.614     4866.140        0.812        0.625       27.301       67.917        6.189      338.142       10.593      867.311
01/19/2015  00:58:00      -11.035       97.631      123.950       29.904       52.485       31.874      894.220     2754.671     1015.964        1.484        0.233       98.253       29.106        0.088      338.179       10.655      867.280
01/19/2015  00:59:00       38.488       68.677       80.744       39.964       35.619       23.737     1597.153     1268.740      563.428        0.807        0.171       78.726       18.515        0.055      338.135       10.581      867.265
01/19/2015  01:00:00      103.578       90.589       50.839       38.423       27.158       44.411     1476.349      737.571     1972.340        1.285        0.209      137.603       27.288        0.039      337.878       10.150      867.255
01/19/2015  01:01:00       67.406       45.773       -6.885       41.985       34.775       24.897     1762.756     1209.333      619.873        0.514        0.180       81.479       21.151        0.067      337.637        9.747      867.264
01/19/2015  01:02:00        5.584       46.797        0.411       43.785       34.268       20.958     1917.093     1174.321      439.228        0.288        0.177       47.129       20.495        0.189      337.556        9.609      867.300
01/19/2015  01:03:00       -4.819       49.204        5.849       24.252       33.493       18.740      588.152     1121.814      351.189        0.227        0.103       49.440       20.579        0.173      337.528        9.561      867.327
01/19/2015  01:04:00       20.296       81.987        3.066       30.800       38.755       25.455      948.610     1501.957      647.957        0.512        0.155       84.462       22.239        0.069      337.499        9.513      867.319
01/19/2015  01:05:00      104.006       69.219        8.773       22.422       19.981       21.991      502.731      399.246      483.623        0.854        0.069      124.934       14.158        0.013      337.449        9.430      867.306
01/19/2015  01:06:00      112.483       73.040        8.857       33.553       26.867       22.442     1125.829      721.851      503.626        1.021        0.118      134.117       18.856        0.020      337.438        9.411      867.297
01/19/2015  01:07:00       95.826       81.152       11.842       32.110       33.393       31.601     1031.070     1115.087      998.632        0.953        0.157      125.572       25.259        0.040      337.400        9.349      867.281
01/19/2015  01:08:00       66.747       73.314        2.702       41.371       45.230       40.957     1711.535     2045.754     1677.474        0.764        0.272       99.147       29.506        0.089      337.403        9.354      867.270
01/19/2015  01:09:00       68.500       71.391        5.798       45.582       38.656       35.049     2077.681     1494.293     1228.435        0.731        0.240       98.939       26.598        0.072      337.412        9.369      867.268
01/19/2015  01:10:00       58.812       46.120        8.137       38.809       25.788       27.961     1506.135      665.011      781.838        0.430        0.148       74.739       17.645        0.056      337.430        9.398      867.274
01/19/2015  01:11:00       60.297       58.558       11.877       47.511       30.650       31.128     2257.272      939.431      968.964        0.568        0.208       84.052       18.090        0.046      337.511        9.534      867.292
01/19/2015  01:12:00       54.892       71.206        2.678       43.126       30.846       28.955     1859.816      951.461      838.395        0.587        0.182       89.908       22.156        0.061      337.512        9.537      867.290
01/19/2015  01:13:00       97.629       85.206        8.878       42.740       34.235       37.584     1826.742     1172.011     1412.549        1.064        0.221      129.582       26.473        0.042      337.544        9.590      867.274
01/19/2015  01:14:00       85.124       82.938        3.570       41.771       30.375       29.686     1744.809      922.619      881.287        0.884        0.177      118.848       12.898        0.012      337.524        9.556      867.255
01/19/2015  01:15:00       63.596       45.965       -1.202       50.562       44.822       27.525     2556.519     2008.978      757.632        0.574        0.266       78.468       16.920        0.046      337.551        9.601      867.241
01/19/2015  01:16:00       50.628       35.258       13.578       36.273       26.858       25.829     1315.739      721.370      667.145        0.335        0.135       61.695       14.205        0.053      337.538        9.579      867.254
01/19/2015  01:17:00       52.306       30.061        6.662       24.060       17.445       17.310      578.903      304.343      299.645        0.243        0.059       60.329       10.979        0.033      337.546        9.593      867.274
01/19/2015  01:18:00       25.413       23.048       -3.520       16.122       12.584       12.778      259.917      158.353      163.282        0.089        0.029       34.308        6.700        0.038      337.543        9.586      867.286
01/19/2015  01:19:00       48.709       16.042        2.478       23.411       14.169       14.583      548.054      200.770      212.678        0.180        0.048       51.283        9.147        0.032      337.537        9.577      867.281
01/19/2015  01:20:00       46.745       14.505       12.555       24.315       14.060       13.882      591.231      197.687      192.716        0.177        0.049       48.944       10.155        0.043      337.510        9.531      867.262
01/19/2015  01:21:00       65.193       31.635        3.568       14.606       14.445       10.411      213.342      208.657      108.390        0.290        0.027       72.463        7.980        0.012      337.556        9.611      867.244
01/19/2015  01:22:00       15.855       18.552        7.823       17.602       11.593       12.745      309.824      134.391      162.440        0.063        0.030       24.404        5.971        0.060      337.548        9.598      867.234
01/19/2015  01:23:00      -10.576       25.242       -8.043       11.984       12.560        6.720      143.608      157.751       45.165        0.058        0.017       27.368        5.222        0.036      337.603        9.687      867.237
01/19/2015  01:24:00      -42.890       35.432       -9.684       17.174       19.957        9.952      294.938      398.278       99.047        0.199        0.040       55.633       11.211        0.041      337.484        9.489      867.230
01/19/2015  01:25:00      -36.273       66.522       -7.814       24.912       15.575       13.497      620.613      242.575      182.160        0.342        0.052       75.769        9.309        0.015      337.543        9.588      867.208
01/19/2015  01:26:00      -11.262       78.472       -8.272       16.221       16.535       10.573      263.111      273.421      111.786        0.350        0.032       79.276        6.505        0.007      337.627        9.729      867.193
01/19/2015  01:27:00      -14.249       72.922       -6.419       14.034       16.366       12.091      196.946      267.841      146.200        0.309        0.031       74.302       10.710        0.021      337.626        9.726      867.189
01/19/2015  01:28:00      -15.981       40.530       -5.044       16.361       19.103       10.337      267.667      364.914      106.857        0.133        0.037       43.567        7.189        0.027      337.577        9.644      867.210
01/19/2015  01:29:00        3.070       51.504       -1.447       10.807       29.111       11.514      116.784      847.437      132.567        0.188        0.055       51.595       15.724        0.093      337.607        9.695      867.227
01/19/2015  01:30:00        1.075       83.868       -9.033        8.245       11.401        4.072       67.987      129.977       16.578        0.367        0.011       83.875        3.207        0.001      337.620        9.717      867.222
01/19/2015  01:31:00      -19.572      105.018      -16.097       13.791       12.572        7.804      190.179      158.062       60.900        0.604        0.020      106.827        7.064        0.004      337.652        9.770      867.207
01/19/2015  01:32:00      -56.556      115.906      -17.827       36.723       21.249       15.433     1348.602      451.526      238.170        0.949        0.102      128.968       11.412        0.008      337.740        9.919      867.210
01/19/2015  01:33:00      -85.603       50.801      -17.365       23.086       34.598       17.992      532.984     1197.049      323.719        0.613        0.103       99.542       12.666        0.016      337.581        9.651      867.235
01/19/2015  01:34:00      -45.441       11.342      -10.122       24.197       15.167       12.469      585.497      230.040      155.469        0.163        0.049       46.835       14.799        0.100      337.578        9.647      867.257
01/19/2015  01:35:00      -66.958       -5.950      -12.765       20.534       18.412       15.169      421.659      338.989      230.098        0.284        0.050       67.222        5.060        0.006      337.542        9.584      867.265
01/19/2015  01:36:00      -66.536        1.864       -5.931       28.662       14.686       15.133      821.483      215.680      229.019        0.287        0.063       66.562       15.196        0.052      337.584        9.657      867.259
01/19/2015  01:37:00      -64.176       42.951      -14.898       12.978       17.426        9.562      168.431      303.679       91.433        0.337        0.028       77.223        9.815        0.016      337.735        9.910      867.265
01/19/2015  01:38:00      -12.008       62.115       -1.350       38.282       20.604       12.625     1465.504      424.527      159.397        0.303        0.102       63.265       13.138        0.043      337.804       10.025      867.271
01/19/2015  01:39:00       24.045       91.388       -9.242       17.264       13.981       10.840      298.062      195.474      117.514        0.481        0.031       94.499       12.019        0.016      337.813       10.040      867.261
01/19/2015  01:40:00       25.081       39.495        2.665       16.246       34.553       17.402      263.934     1193.940      302.827        0.198        0.088       46.786       19.585        0.175      337.720        9.885      867.261
01/19/2015  01:41:00        2.652       11.498       -5.755       19.784       20.936       12.984      391.391      438.300      168.591        0.059        0.050       11.800       10.980        0.866      337.666        9.796      867.266
01/19/2015  01:42:00      -41.029       24.571       -9.598       22.365       26.598        9.673      500.195      707.444       93.564        0.184        0.065       47.824       13.567        0.080      337.691        9.836      867.290
01/19/2015  01:43:00     -107.078        5.925      -15.360       37.980       34.048       17.829     1442.472     1159.274      317.884        0.733        0.146      107.241       16.606        0.024      337.523        9.554      867.325
01/19/2015  01:44:00     -129.801       18.836      -17.711       50.957       33.964       22.981     2596.595     1153.534      528.114        1.090        0.214      131.161       16.807        0.016      337.445        9.422      867.349
01/19/2015  01:45:00     -109.784       42.012      -21.894       31.142       34.064       16.182      969.855     1160.361      261.861        0.834        0.120      117.548       11.016        0.009      337.540        9.583      867.359
01/19/2015  01:46:00      -89.873       45.252      -20.835       29.118       32.313       21.301      847.868     1044.122      453.746        0.645        0.117      100.622       13.636        0.018      337.702        9.854      867.358
01/19/2015  01:47:00      -10.938       83.108       -5.811       40.513       19.705       14.321     1641.282      388.278      205.082        0.465        0.112       83.825       17.051        0.041      338.001       10.356      867.340
01/19/2015  01:48:00       74.464       45.062       11.187       22.654       22.784       16.141      513.211      519.117      260.542        0.450        0.065       87.037        8.386        0.009      338.029       10.403      867.291
01/19/2015  01:49:00       45.173       49.195       44.791       34.447       36.655       31.560     1186.621     1343.624      996.043        0.500        0.176       66.788       28.875        0.187      337.813       10.041      867.285
01/19/2015  01:50:00       28.621       91.469       88.020       41.441       32.918       27.815     1717.391     1083.569      773.701        1.025        0.179       95.843       26.437        0.076      337.993       10.344      867.279
01/19/2015  01:51:00       21.468       79.109       78.589       44.814       45.734       30.341     2008.303     2091.618      920.579        0.896        0.251       81.970       30.706        0.140      338.027       10.399      867.264
01/19/2015  01:52:00       22.321       80.152       88.519       30.713       42.475       17.670      943.272     1804.085      312.228        0.891        0.153       83.202       20.822        0.063      337.985       10.329      867.228
01/19/2015  01:53:00       35.404       83.248       73.153       38.226       27.022       21.879     1461.248      730.188      478.684        0.810        0.134       90.463       21.802        0.058      338.000       10.355      867.215
01/19/2015  01:54:00       37.142       42.774       44.598       40.077       34.048       26.304     1606.138     1159.290      691.911        0.433        0.173       56.650       21.836        0.149      337.927       10.231      867.226
01/19/2015  01:55:00       55.408       20.411       19.302       32.044       33.761       31.467     1026.813     1139.812      990.193        0.351        0.158       59.048       20.423        0.120      337.933       10.243      867.221
01/19/2015  01:56:00       24.360       33.806       54.857       21.895       22.792       15.017      479.402      519.467      225.511        0.298        0.061       41.668       12.584        0.091      337.851       10.105      867.211
01/19/2015  01:57:00       15.916       35.599       61.415       23.549       37.655       27.992      554.542     1417.898      783.559        0.402        0.138       38.994       26.837        0.474      337.824       10.057      867.198
01/19/2015  01:58:00       83.756     -112.795      -11.411       34.864       39.802       24.254     1215.517     1584.191      588.252        1.163        0.169      140.491       23.173        0.027      337.985       10.328      867.207
01/19/2015  01:59:00      125.227     -118.087      -18.117       30.477       27.615       18.740      928.863      762.590      351.181        1.600        0.102      172.123       14.619        0.007      338.085       10.498      867.228
01/19/2015  02:00:00       74.759      -72.054       -6.954       36.526       52.070       23.482     1334.120     2711.313      551.421        0.771        0.230      103.830       24.822        0.057      338.024       10.394      867.241
01/19/2015  02:01:00       37.427       12.879       31.948       33.063       28.726       25.084     1093.136      825.192      629.220        0.257        0.127       39.581       20.247        0.262      337.872       10.138      867.244
01/19/2015  02:02:00       31.060       32.421       23.072       29.965       23.947       24.957      897.899      573.468      622.853        0.232        0.105       44.899       16.591        0.137      337.828       10.067      867.239
01/19/2015  02:03:00      -13.358      -36.283        2.495       32.282       24.301       13.028     1042.095      590.528      169.724        0.165        0.090       38.664       11.889        0.095      337.800       10.019      867.282
01/19/2015  02:04:00      -76.063      -12.774       -6.024       36.771       25.091       19.379     1352.081      629.557      375.560        0.417        0.118       77.128       17.755        0.053      337.603        9.690      867.341
01/19/2015  02:05:00      -91.059      -15.822       -1.454       28.440       23.826       13.374      808.861      567.699      178.855        0.505        0.078       92.424       13.708        0.022      337.489        9.496      867.368
01/19/2015  02:06:00      -49.990       14.368        2.190       43.947       27.320       15.266     1931.333      746.374      233.055        0.281        0.146       52.014       16.425        0.100      337.554        9.606      867.367
01/19/2015  02:07:00      -22.022       29.799       -2.547       21.971       34.999       15.139      482.722     1224.911      229.180        0.166        0.097       37.053       11.911        0.103      337.625        9.727      867.352
01/19/2015  02:08:00      -49.407       62.977      -13.215       20.060       25.225        9.557      402.397      636.284       91.337        0.386        0.057       80.045        8.363        0.011      337.799       10.016      867.350
01/19/2015  02:09:00       18.572       33.525        6.028       10.633        9.499        8.045      113.062       90.227       64.716        0.089        0.013       38.326        5.152        0.018      337.884       10.159      867.343
01/19/2015  02:10:00       14.669       28.201       -1.976       11.431        9.365        6.473      130.670       87.698       41.898        0.064        0.013       31.788        4.156        0.017      337.836       10.080      867.352
01/19/2015  02:11:00       18.563       23.387        0.968       10.586       14.811        6.316      112.069      219.373       39.892        0.063        0.019       29.859        6.604        0.049      337.849       10.101      867.354
01/19/2015  02:12:00       38.516       21.288        0.964        7.824        6.279        5.949       61.210       39.424       35.391        0.104        0.007       44.008        4.329        0.010      337.771        9.969      867.345
01/19/2015  02:13:00       46.302       35.946        7.324        9.946       11.148        8.907       98.928      124.285       79.344        0.190        0.015       58.617        3.981        0.005      337.779        9.984      867.328
01/19/2015  02:14:00       53.991       17.585       10.569       16.056       14.853       11.594      257.804      220.606      134.426        0.197        0.031       56.782        8.943        0.025      337.823       10.057      867.313
01/19/2015  02:15:00        5.913       -6.195        1.019       25.137       12.161        9.504      631.888      147.898       90.321        0.047        0.044        8.564        9.895        1.335      337.919       10.219      867.326
01/19/2015  02:16:00      -46.188      -11.702       -8.895        9.681       10.442        7.132       93.726      109.041       50.872        0.130        0.013       47.647        4.001        0.007      337.790       10.002      867.356
01/19/2015  02:17:00      -53.724       14.598       -8.256       14.828        7.482        7.826      219.866       55.984       61.242        0.175        0.017       55.672        7.674        0.019      337.659        9.784      867.378
01/19/2015  02:18:00      -55.215       30.050      -17.741       20.077       16.058        8.401      403.071      257.847       70.582        0.250        0.037       62.862        8.856        0.020      337.746        9.930      867.395
01/19/2015  02:19:00      -74.715       71.507      -17.899       16.017       15.082        8.617      256.534      227.480       74.253        0.579        0.028      103.419        7.312        0.005      337.907       10.198      867.405
01/19/2015  02:20:00      -61.896       81.102      -11.557       17.291       14.582       15.257      298.988      212.631      232.782        0.564        0.037      102.023       12.062        0.014      338.001       10.356      867.403
01/19/2015  02:21:00      -22.631       76.586       -4.158       26.036       14.973       11.310      677.895      224.180      127.926        0.371        0.052       79.860        6.933        0.008      338.050       10.439      867.393
01/19/2015  02:22:00      -15.616       81.168       -8.151       11.636       17.750       12.381      135.385      315.059      153.292        0.375        0.030       82.656        9.578        0.013      337.992       10.341      867.397
01/19/2015  02:23:00      -26.864       73.249       -9.745       12.559       16.842        7.225      157.726      283.654       52.193        0.334        0.025       78.020        3.219        0.002      337.981       10.322      867.416
01/19/2015  02:24:00      -48.615        0.694       -7.516        8.578       20.336        8.382       73.590      413.536       70.265        0.149        0.028       48.620        6.099        0.016      337.639        9.748      867.443
01/19/2015  02:25:00      -70.854      -26.231       -6.024       20.549       13.576       10.552      422.280      184.298      111.351        0.323        0.036       75.553        6.190        0.007      337.548        9.596      867.456
01/19/2015  02:26:00      -61.389      -26.046      -10.231       10.335       10.136        6.911      106.807      102.741       47.763        0.240        0.013       66.686        5.200        0.006      337.578        9.648      867.458
01/19/2015  02:27:00      -24.255      -22.053       -6.997       22.714        7.935       10.529      515.930       62.969      110.851        0.091        0.034       32.782       11.075        0.114      337.570        9.634      867.440
01/19/2015  02:28:00        4.651      -22.863        0.695        7.760       11.117       10.641       60.219      123.584      113.232        0.042        0.015       23.332        4.465        0.037      337.661        9.787      867.426
01/19/2015  02:29:00      -15.553       -7.084      -14.267       12.887       11.386        8.365      166.069      129.633       69.974        0.043        0.018       17.091        6.085        0.127      337.695        9.844      867.423
01/19/2015  02:30:00      -27.917        6.699       -7.025        7.790        8.583        6.454       60.691       73.661       41.660        0.052        0.009       28.710        4.023        0.020      337.678        9.817      867.424
01/19/2015  02:31:00      -50.641       23.638      -11.197       14.255        8.635        8.610      203.206       74.555       74.140        0.180        0.018       55.886        7.178        0.016      337.688        9.830      867.433
01/19/2015  02:32:00      -68.555       63.105      -16.104       11.854       14.431        7.943      140.513      208.241       63.093        0.468        0.021       93.178        6.340        0.005      337.750        9.936      867.441
01/19/2015  02:33:00      -74.016       74.579      -20.238       10.565       11.783        7.598      111.613      138.832       57.726        0.588        0.015      105.073        2.335        0.000      337.762        9.955      867.449
01/19/2015  02:34:00      -65.332       87.712      -14.077       16.933       23.470       15.803      286.729      550.838      249.725        0.662        0.054      109.369       14.522        0.018      337.780        9.985      867.442
01/19/2015  02:35:00      -24.906      107.926      -13.411       24.363       19.002        9.799      593.554      361.082       96.018        0.675        0.053      110.762        3.567        0.001      338.042       10.425      867.431
01/19/2015  02:36:00      -41.697       70.914       -2.782       29.146       27.389       21.252      849.514      750.184      451.639        0.441        0.103       82.264       19.861        0.058      337.881       10.154      867.433
01/19/2015  02:37:00      -46.080       63.261       -6.905       25.825       16.688       12.899      666.941      278.498      166.387        0.364        0.056       78.265        7.922        0.010      337.778        9.981      867.436
01/19/2015  02:38:00      -63.360       37.219      -10.204       17.254       20.165        9.577      297.710      406.642       91.710        0.315        0.040       73.483        7.180        0.010      337.674        9.807      867.433
01/19/2015  02:39:00      -58.805       30.165       -7.079       12.757       15.194       12.074      162.745      230.855      145.775        0.248        0.027       66.091        8.169        0.015      337.712        9.871      867.424
01/19/2015  02:40:00      -54.563        9.124       -7.117       13.119       11.136        7.430      172.109      124.003       55.204        0.173        0.018       55.320        7.611        0.019      337.718        9.881      867.408
01/19/2015  02:41:00      -52.516      -12.216       -7.359        6.705        8.485        6.624       44.961       72.001       43.884        0.156        0.008       53.918        2.402        0.002      337.578        9.647      867.399
01/19/2015  02:42:00      -54.070       -0.633       -2.924        9.765       11.662        8.748       95.347      136.011       76.532        0.162        0.015       54.074        6.744        0.016      337.667        9.795      867.393
01/19/2015  02:43:00      -44.955       16.849       -1.545       13.532       13.681       10.932      183.126      187.166      119.506        0.140        0.024       48.009        7.282        0.023      337.867       10.129      867.394
01/19/2015  02:44:00      -20.050        3.566       -1.600        8.719       10.374        6.133       76.013      107.617       37.614        0.032        0.011       20.365        3.739        0.034      337.834       10.076      867.395
01/19/2015  02:45:00      -10.976      -21.651       -3.418        5.701       10.880        4.246       32.498      118.368       18.025        0.038        0.008       24.274        4.624        0.036      337.805       10.025      867.385
01/19/2015  02:46:00      -22.329      -18.190       -3.861        6.479        6.453        4.378       41.978       41.648       19.166        0.047        0.005       28.800        3.316        0.013      337.754        9.944      867.367
01/19/2015  02:47:00      -36.765       -9.199       -5.901       10.241        5.870        3.950      104.877       34.457       15.604        0.081        0.008       37.898        1.430        0.001      337.728        9.900      867.348
01/19/2015  02:48:00      -63.371       -6.807      -11.725       11.302       12.496        7.431      127.739      156.156       55.217        0.227        0.017       63.736        4.727        0.005      337.424        9.387      867.324
01/19/2015  02:49:00      -53.805       11.672      -10.533       12.757       14.522        9.491      162.731      210.884       90.086        0.180        0.023       55.057        7.384        0.018      337.416        9.376      867.302
01/19/2015  02:50:00      -37.162       10.511      -10.344       12.900       15.713        8.559      166.409      246.888       73.263        0.104        0.024       38.620        3.616        0.009      337.474        9.473      867.277
01/19/2015  02:51:00      -50.851        5.622       -6.524       13.655       14.548        9.684      186.452      211.648       93.776        0.158        0.025       51.161        5.550        0.012      337.585        9.659      867.262
01/19/2015  02:52:00      -51.957       -2.803       -5.507        9.310       12.877        6.279       86.677      165.821       39.431        0.151        0.015       52.032        3.637        0.005      337.562        9.620      867.251
01/19/2015  02:53:00      -26.457       -3.975       -2.247        8.021        7.268        6.418       64.342       52.817       41.197        0.044        0.008       26.754        5.869        0.048      337.586        9.662      867.243
01/19/2015  02:54:00      -18.340      -13.975       -3.012        7.497        9.699        3.803       56.207       94.074       14.466        0.035        0.008       23.058        4.328        0.035      337.667        9.797      867.239
01/19/2015  02:55:00      -22.346       -4.971       -2.812        7.058        5.305        2.394       49.812       28.144        5.733        0.031        0.004       22.892        1.759        0.006      337.771        9.969      867.242
01/19/2015  02:56:00      -34.116       -1.467       -3.878        5.936        5.803        3.445       35.234       33.676       11.868        0.063        0.004       34.148        1.866        0.003      337.804       10.023      867.250
01/19/2015  02:57:00      -43.576      -26.844       -5.912        5.149        7.584        4.189       26.513       57.510       17.549        0.138        0.005       51.181        2.464        0.002      337.637        9.744      867.262
01/19/2015  02:58:00      -50.743      -35.274       -8.505        6.484        8.298        5.443       42.036       68.857       29.626        0.202        0.007       61.799        3.863        0.004      337.575        9.639      867.265
01/19/2015  02:59:00      -33.565      -30.908       -2.203       12.446        7.911        8.517      154.902       62.586       72.537        0.119        0.015       45.628        7.080        0.024      337.581        9.652      867.270
01/19/2015  03:00:00      -19.959      -13.538       -1.813       10.802        9.085        4.148      116.683       82.538       17.206        0.040        0.011       24.117        2.946        0.015      337.649        9.766      867.278
01/19/2015  03:01:00       -5.076       -1.158       -0.939        5.977        4.864        4.326       35.728       23.654       18.716        0.005        0.004        5.206        3.503        0.453      337.649        9.768      867.300
01/19/2015  03:02:00      -10.849       12.906       -2.198        5.689       11.313        4.962       32.366      127.981       24.623        0.024        0.009       16.860        3.439        0.042      337.756        9.944      867.326
01/19/2015  03:03:00      -11.525      -12.608        6.528        9.006        5.030        7.420       81.115       25.302       55.058        0.025        0.008       17.082        7.336        0.184      337.565        9.626      867.353
01/19/2015  03:04:00        6.286        9.951       12.955        8.490       12.403        8.911       72.076      153.833       79.409        0.031        0.015       11.770        9.734        0.684      337.531        9.568      867.378
01/19/2015  03:05:00       28.834       26.551       24.129       10.685        9.210        9.226      114.168       84.817       85.115        0.120        0.014       39.196        2.887        0.005      337.415        9.373      867.384
01/19/2015  03:06:00       38.756       29.150        9.911        6.677        5.912        8.533       44.582       34.951       72.814        0.130        0.008       48.495        4.539        0.009      337.529        9.564      867.389
01/19/2015  03:07:00       31.423       21.411        7.750        8.826        6.551        6.559       77.891       42.911       43.025        0.083        0.008       38.024        3.998        0.011      337.591        9.669      867.381
01/19/2015  03:08:00       31.787       15.740       -1.823        6.073        5.882        3.598       36.877       34.596       12.944        0.067        0.004       35.470        2.842        0.006      337.645        9.757      867.364
01/19/2015  03:09:00       20.186      -10.941       -0.491       13.109       12.849        5.995      171.837      165.096       35.937        0.045        0.019       22.960        6.363        0.077      337.690        9.835      867.346
01/19/2015  03:10:00      -12.408      -23.690       -2.102       14.111       14.508       13.995      199.129      210.471      195.847        0.066        0.030       26.742       10.578        0.156      337.429        9.396      867.325
01/19/2015  03:11:00      -68.179      -30.808       -1.135       20.565       18.820       10.625      422.935      354.176      112.896        0.324        0.045       74.816        6.349        0.007      337.201        9.015      867.313
01/19/2015  03:12:00      -68.535      -57.255        3.650       40.847       23.726       18.504     1668.491      562.937      342.415        0.528        0.129       89.304       13.090        0.021      337.331        9.233      867.312
01/19/2015  03:13:00     -106.992      -48.912       -0.179       41.914       27.030       22.558     1756.752      730.641      508.883        0.842        0.150      117.642       19.838        0.028      337.171        8.967      867.319
01/19/2015  03:14:00      -77.166      -45.530        9.103       41.151       40.934       19.917     1693.397     1675.598      396.669        0.594        0.188       89.597       22.345        0.062      337.286        9.158      867.322
01/19/2015  03:15:00      -12.658       -5.570        9.093       20.197       19.800        9.954      407.903      392.029       99.078        0.059        0.045       13.829       11.852        0.734      337.264        9.121      867.318
01/19/2015  03:16:00       18.862       15.156        7.745       12.739        9.483        8.894      162.273       89.928       79.097        0.049        0.017       24.196        3.286        0.018      337.298        9.177      867.319
01/19/2015  03:17:00      -20.025       10.199       -2.543       16.182       10.118        7.426      261.871      102.369       55.152        0.047        0.021       22.473        8.241        0.134      337.359        9.280      867.341
01/19/2015  03:18:00      -87.950       17.481      -12.265       31.521       14.001        9.743      993.543      196.035       94.920        0.474        0.064       89.671        9.123        0.010      337.298        9.178      867.375
01/19/2015  03:19:00     -128.086       -1.910      -14.903        8.244       14.654        6.287       67.963      214.737       39.526        0.848        0.016      128.101        6.318        0.002      337.277        9.143      867.385
01/19/2015  03:20:00      -81.294        7.053      -13.225       27.025        9.896       11.233      730.335       97.939      126.173        0.389        0.048       81.599        8.684        0.011      337.413        9.369      867.391
01/19/2015  03:21:00      -32.877        6.864       -5.838        9.040        9.473        7.045       81.729       89.733       49.630        0.069        0.011       33.586        3.819        0.013      337.607        9.696      867.385
01/19/2015  03:22:00      -26.260        4.103      -13.957        7.868        5.238        4.138       61.901       27.433       17.127        0.050        0.005       26.578        2.448        0.008      337.901       10.188      867.380
01/19/2015  03:23:00      -12.594        4.849       -3.459        4.573        3.389        3.669       20.913       11.487       13.461        0.012        0.002       13.495        2.722        0.041      337.969       10.298      867.359
01/19/2015  03:24:00        2.030       15.923        4.893        5.157        5.006        5.117       26.590       25.064       26.182        0.018        0.004       16.052        2.467        0.024      337.956       10.277      867.342
01/19/2015  03:25:00       -2.647        5.933        2.089        7.182        6.074        4.065       51.579       36.894       16.522        0.008        0.005        6.496        5.256        0.655      337.941       10.255      867.329
01/19/2015  03:26:00      -22.492       -6.792       -1.408        5.553        6.517        3.744       30.832       42.466       14.015        0.032        0.004       23.495        3.428        0.021      337.880       10.156      867.338
01/19/2015  03:27:00      -30.500      -21.783       -8.341        8.648        6.808        6.013       74.791       46.342       36.160        0.082        0.008       37.480        2.493        0.004      337.533        9.569      867.342
01/19/2015  03:28:00      -48.697       -7.811      -12.144        7.990       11.986        5.130       63.839      143.667       26.322        0.141        0.012       49.320        3.625        0.005      337.497        9.509      867.346
01/19/2015  03:29:00      -80.022        6.504      -10.632       12.525        8.885        5.597      156.887       78.948       31.331        0.341        0.013       80.286        2.112        0.001      337.571        9.633      867.353
01/19/2015  03:30:00      -71.704       10.023      -11.876       16.430       12.631       10.528      269.947      159.531      110.847        0.296        0.027       72.401        5.872        0.007      337.565        9.625      867.360
01/19/2015  03:31:00      -30.744        3.404       -5.734       13.061        5.893        8.271      170.590       34.727       68.417        0.063        0.014       30.932        6.704        0.047      337.616        9.710      867.369
01/19/2015  03:32:00      -34.390       29.958      -10.740        9.374        8.331        3.429       87.880       69.399       11.757        0.118        0.008       45.608        2.361        0.003      337.992       10.345      867.368
01/19/2015  03:33:00       -3.523        4.883        1.043        8.283       10.502        8.180       68.606      110.288       66.919        0.014        0.012        6.021        6.136        1.039      337.840       10.085      867.369
01/19/2015  03:34:00      -24.344      -25.066       -1.583       14.852       11.060       12.738      220.574      122.330      162.259        0.086        0.025       34.942        9.610        0.076      337.848       10.098      867.403
01/19/2015  03:35:00      -76.889      -35.646        2.367       27.517       14.578        9.293      757.176      212.528       86.353        0.412        0.053       84.750       12.412        0.021      337.471        9.466      867.439
01/19/2015  03:36:00     -114.001      -25.038       -4.838       21.916       18.059       11.489      480.318      326.144      131.987        0.729        0.047      116.718        4.741        0.002      337.297        9.174      867.473
01/19/2015  03:37:00     -122.210      -34.376       -2.132       31.274       27.967       18.134      978.064      782.134      328.849        0.911        0.104      126.953       15.907        0.016      337.139        8.910      867.510
01/19/2015  03:38:00     -137.322       -2.717      -13.743       23.999       25.378       18.916      575.947      644.043      357.817        1.032        0.079      137.349       14.036        0.010      337.178        8.975      867.522
01/19/2015  03:39:00      -85.370       21.928       -9.400       29.107       21.376       16.596      847.227      456.946      275.411        0.472        0.079       88.141       14.215        0.026      337.136        8.905      867.528
01/19/2015  03:40:00      -55.139        8.262       -2.210       23.830       20.539       14.940      567.871      421.860      223.210        0.216        0.061       55.754       13.891        0.062      337.173        8.970      867.533
01/19/2015  03:41:00      -43.641      -16.527        3.561       44.002       14.430       14.650     1936.217      208.232      214.608        0.227        0.118       46.665       21.554        0.213      337.273        9.136      867.545
01/19/2015  03:42:00      -65.554       -9.839       -9.812       17.238       10.846        7.394      297.165      117.628       54.671        0.248        0.023       66.288        6.929        0.011      337.366        9.292      867.557
01/19/2015  03:43:00     -107.184       49.565      -19.345       49.002       44.602       20.078     2401.188     1989.369      403.114        0.956        0.240      118.090       22.910        0.038      337.236        9.074      867.567
01/19/2015  03:44:00     -163.465       82.209      -27.575       59.766       31.439       25.148     3571.927      988.407      632.430        1.972        0.260      182.973       21.235        0.013      337.238        9.075      867.581
01/19/2015  03:45:00      -68.440        1.816      -10.100       22.578       37.118       12.307      509.752     1377.752      151.468        0.341        0.102       68.465        9.699        0.020      337.185        8.989      867.570
01/19/2015  03:46:00      -88.477      -35.463      -10.172       35.239       22.318       22.515     1241.805      498.112      506.913        0.572        0.112       95.319       17.553        0.034      337.260        9.114      867.557
01/19/2015  03:47:00      -54.516      -11.147       -2.068       26.035       27.474       18.413      677.821      754.812      339.035        0.244        0.089       55.644        8.600        0.024      337.241        9.083      867.541
01/19/2015  03:48:00      -79.910       14.831       -8.604       15.141       14.635       10.007      229.247      214.171      100.132        0.361        0.027       81.275        6.535        0.006      337.359        9.280      867.519
01/19/2015  03:49:00      -82.381       32.964      -19.350       14.942       16.031       10.453      223.258      257.000      109.268        0.442        0.029       88.731        7.433        0.007      337.436        9.408      867.505
01/19/2015  03:50:00      -96.551       30.965       -8.841       27.719       31.458       19.288      768.340      989.604      372.017        0.624        0.106      101.395       16.911        0.028      337.514        9.539      867.497
01/19/2015  03:51:00     -100.238       99.599      -26.180       13.741       17.104        9.229      188.820      292.553       85.174        1.061        0.028      141.307        7.202        0.003      338.118       10.551      867.461
01/19/2015  03:52:00      -97.369      112.749      -25.385       25.935       29.566       18.947      672.613      874.175      358.974        1.237        0.095      148.973       16.153        0.012      337.773        9.974      867.438
01/19/2015  03:53:00      -94.081       84.392      -20.561       27.743       36.292       16.785      769.663     1317.076      281.742        0.938        0.118      126.386       14.635        0.013      337.704        9.858      867.437
01/19/2015  03:54:00      -71.254       12.189       -4.191       29.754       66.745       20.259      885.300     4454.896      410.435        0.550        0.288       72.289       14.453        0.040      337.437        9.410      867.447
01/19/2015  03:55:00      -91.348      -62.521        2.851       65.023       50.417       38.964     4227.973     2541.905     1518.211        1.027        0.414      110.695       39.336        0.126      337.043        8.750      867.467
01/19/2015  03:56:00     -111.183      -61.900        1.745       32.629       43.791       22.867     1064.650     1917.690      522.902        0.985        0.175      127.253       17.642        0.019      337.200        9.012      867.465
01/19/2015  03:57:00      -87.204      -40.178       -8.541       25.080       23.633       19.658      629.013      558.536      386.450        0.543        0.079       96.014       17.446        0.033      337.233        9.069      867.446
01/19/2015  03:58:00      -76.968        1.516       -1.783       25.994       20.066       14.508      675.678      402.634      210.468        0.361        0.064       76.983       11.754        0.023      337.252        9.099      867.432
01/19/2015  03:59:00      -42.821      -15.662        2.944       30.816       17.663       11.918      949.638      311.985      142.038        0.175        0.070       45.595       16.872        0.137      337.281        9.150      867.421
01/19/2015  04:00:00       23.333       -6.492       11.965       14.895       25.775       11.520      221.851      664.339      132.703        0.087        0.051       24.220       11.993        0.245      337.334        9.238      867.402
01/19/2015  04:01:00       -3.208       29.419       66.726       31.000       61.543       32.807      960.987     3787.486     1076.305        0.558        0.291       29.593       37.174        1.578      337.311        9.198      867.384
01/19/2015  04:02:00       -5.187      -65.996      -22.424       38.505       34.051       16.929     1482.659     1159.499      286.586        0.391        0.146       66.199       15.072        0.052      337.215        9.039      867.386
01/19/2015  04:03:00      -45.212      -55.551       -2.454       31.014       38.229       22.745      961.870     1461.463      517.334        0.404        0.147       71.624       18.558        0.067      337.282        9.151      867.362
01/19/2015  04:04:00        4.379       18.243        2.489       36.538       33.715       24.030     1335.059     1136.732      577.442        0.170        0.152       18.762       24.129        1.654      337.376        9.307      867.332
01/19/2015  04:05:00      112.787       69.481       26.989       41.192       16.662       12.941     1696.795      277.637      167.466        1.021        0.107      132.471       11.654        0.008      337.173        8.969      867.286
01/19/2015  04:06:00       35.422       48.572       40.053       56.825       34.283       29.415     3229.116     1175.302      865.263        0.524        0.263       60.116       21.636        0.130      337.273        9.137      867.243
01/19/2015  04:07:00       24.773       25.609       -2.273       42.494       45.670       28.589     1805.727     2085.761      817.357        0.299        0.235       35.631       13.491        0.143      337.149        8.929      867.265
01/19/2015  04:08:00      152.441      102.391       18.629       66.444       44.780       40.054     4414.763     2005.228     1604.307        2.105        0.401      183.636       20.197        0.012      336.917        8.538      867.279
01/19/2015  04:09:00       69.668       86.380       79.424       63.999       48.002       42.492     4095.830     2304.169     1805.604        1.341        0.410      110.974       45.658        0.169      336.656        8.104      867.293
01/19/2015  04:10:00       51.803       23.671       75.980       60.322       71.942       48.544     3638.722     5175.584     2356.533        1.009        0.559       56.955       52.971        0.865      336.541        7.912      867.306
01/19/2015  04:11:00        7.843       73.392      111.730       38.735       67.305       44.063     1500.375     4529.920     1941.591        1.295        0.399       73.810       47.178        0.409      336.631        8.064      867.304
01/19/2015  04:12:00       53.482      101.949      111.750       50.560       49.130       32.962     2556.327     2413.753     1086.490        1.590        0.303      115.126       34.570        0.090      336.637        8.072      867.308
01/19/2015  04:13:00       60.284       60.045       69.629       38.030       35.923       29.127     1446.268     1290.433      848.370        0.784        0.179       85.086       14.591        0.029      336.541        7.913      867.318
01/19/2015  04:14:00       65.918       29.535       30.676       29.760       26.011       23.381      885.644      676.583      546.674        0.413        0.105       72.232       17.160        0.056      336.524        7.884      867.323
01/19/2015  04:15:00      101.538       64.908       11.205       28.702       24.734       21.581      823.826      611.771      465.757        0.827        0.095      120.512       12.904        0.011      336.516        7.871      867.308
01/19/2015  04:16:00       38.789       74.628       -4.528       36.893       38.045       24.838     1361.080     1447.459      616.935        0.526        0.171       84.107       21.163        0.063      336.501        7.846      867.317
01/19/2015  04:17:00       24.874      121.471       -8.623       31.027       43.079       31.500      962.668     1855.758      992.235        0.963        0.191      123.992       29.859        0.058      336.517        7.872      867.329
01/19/2015  04:18:00       35.015       76.598       -7.857       24.705       47.246       24.171      610.325     2232.154      584.229        0.529        0.171       84.222       27.241        0.105      336.526        7.889      867.339
01/19/2015  04:19:00       96.933       55.456       11.303       42.247       28.595       25.121     1784.791      817.688      631.040        0.792        0.162      111.676       20.046        0.032      336.559        7.943      867.331
01/19/2015  04:20:00       81.660       57.639       12.350       29.017       19.961       17.556      842.001      398.424      308.222        0.585        0.077       99.953        3.730        0.001      336.627        8.057      867.339
01/19/2015  04:21:00       45.885       28.132       10.555       17.684        9.936       12.706      312.717       98.715      161.443        0.179        0.029       53.822        6.355        0.014      336.586        7.991      867.353
01/19/2015  04:22:00       46.161       33.547        2.843       23.232       18.546       12.799      539.719      343.968      163.824        0.216        0.052       57.063       11.882        0.043      336.541        7.913      867.369
01/19/2015  04:23:00       79.241       56.780       13.937       18.106       14.064       13.688      327.834      197.784      187.349        0.520        0.036       97.483        8.769        0.008      336.555        7.936      867.361
01/19/2015  04:24:00       92.426       65.334        2.422       21.321       27.314       19.397      454.582      746.069      376.237        0.720        0.079      113.186       12.045        0.011      336.588        7.991      867.330
01/19/2015  04:25:00       63.658       52.271       30.342       56.228       36.326       41.519     3161.600     1319.566     1723.844        0.695        0.310       82.368       40.456        0.241      336.598        8.009      867.308
01/19/2015  04:26:00       26.884       23.818       23.575       40.104       26.044       21.946     1608.348      678.285      481.648        0.231        0.138       35.917       22.694        0.399      336.529        7.893      867.304
01/19/2015  04:27:00       73.578       45.890       10.732       40.309       39.142       23.289     1624.855     1532.122      542.362        0.567        0.185       86.716       12.834        0.022      336.512        7.865      867.304
01/19/2015  04:28:00       45.821       38.604       38.754       28.383       24.985       18.097      805.598      624.261      327.517        0.342        0.088       59.916        4.716        0.006      336.471        7.793      867.305
01/19/2015  04:29:00       24.407       11.209       30.882       29.098       26.884       20.384      846.722      722.772      415.494        0.183        0.099       26.858       19.733        0.540      336.486        7.819      867.329
01/19/2015  04:30:00       52.019      -52.972        2.456       32.918       40.634       19.861     1083.578     1651.085      394.444        0.432        0.156       74.243       18.813        0.064      336.467        7.787      867.355
01/19/2015  04:31:00      108.980      -82.161      -13.578       34.759       34.981       26.826     1208.176     1223.651      719.610        1.098        0.158      136.481       24.088        0.031      336.476        7.803      867.378
01/19/2015  04:32:00       98.126      -78.191      -17.358       49.840       45.427       31.092     2484.007     2063.595      966.683        1.078        0.276      125.469       26.953        0.046      336.474        7.799      867.415
01/19/2015  04:33:00       10.705       26.619       54.522       31.897       40.279       31.883     1017.411     1622.387     1016.537        0.373        0.183       28.691       32.637        1.294      336.437        7.737      867.430
01/19/2015  04:34:00       41.945        0.664       36.418       53.372       76.399       40.523     2848.546     5836.735     1642.123        0.671        0.516       41.951       56.931        1.842      336.505        7.852      867.438
01/19/2015  04:35:00       50.420       -0.803       23.285       48.615       24.495       19.359     2363.377      599.986      374.787        0.321        0.167       50.426       20.065        0.158      336.494        7.834      867.462
01/19/2015  04:36:00       43.800        8.700       53.158       41.371       41.497       25.466     1711.548     1721.963      648.510        0.445        0.204       44.656       28.887        0.418      336.556        7.937      867.471
01/19/2015  04:37:00       11.182        4.786       14.796       14.549       22.274       20.052      211.683      496.117      402.100        0.074        0.055       12.163       15.426        1.608      336.539        7.909      867.494
01/19/2015  04:38:00       50.302        2.371       12.653       27.148       17.198       24.569      737.036      295.755      603.624        0.217        0.082       50.358       18.166        0.130      336.622        8.048      867.534
01/19/2015  04:39:00       19.407      -18.463       20.333       20.673       22.276       17.844      427.378      496.235      318.424        0.119        0.062       26.786        5.679        0.045      336.609        8.026      867.541
01/19/2015  04:40:00       25.981       28.867       34.828       25.953       28.895       27.572      673.565      834.919      760.195        0.249        0.113       38.837       19.301        0.247      336.587        7.989      867.563
01/19/2015  04:41:00       10.698       29.619       82.939       32.787       82.234       55.356     1075.018     6762.488     3064.302        0.938        0.545       31.492       58.383        3.437      336.638        8.075      867.585
01/19/2015  04:42:00       12.849        1.492       78.183       39.482       82.312       47.593     1558.820     6775.318     2265.114        0.844        0.530       12.935       48.386       13.992      336.610        8.029      867.622
01/19/2015  04:43:00       35.016       19.366       83.407       56.842       58.785       49.670     3230.963     3455.734     2467.093        0.885        0.458       40.015       40.534        1.026      336.574        7.969      867.606
01/19/2015  04:44:00       15.026      -70.686       30.755       54.642       54.631       37.183     2985.758     2984.509     1382.586        0.676        0.368       72.265       32.472        0.202      336.619        8.044      867.630
01/19/2015  04:45:00       61.470      -54.905       11.843       54.082       37.059       30.382     2924.853     1373.370      923.064        0.608        0.261       82.420       18.289        0.049      336.603        8.017      867.636
01/19/2015  04:46:00       38.430       -3.481       19.184       33.774       30.024       20.503     1140.699      901.440      420.390        0.216        0.123       38.588       10.776        0.078      336.528        7.892      867.624
01/19/2015  04:47:00       65.373       51.490        7.651       35.639       27.494       23.525     1270.147      755.939      553.430        0.478        0.129       83.215       12.173        0.021      336.445        7.750      867.634
01/19/2015  04:48:00      116.021       62.748       31.345       44.894       41.554       34.576     2015.469     1726.721     1195.468        1.166        0.247      131.903       28.132        0.045      336.407        7.688      867.613
01/19/2015  04:49:00      120.110       63.243       52.540       65.639       47.723       48.833     4308.527     2277.438     2384.704        1.508        0.449      135.743       35.674        0.069      336.345        7.584      867.556
01/19/2015  04:50:00       97.045       55.612       44.881       64.114       46.750       41.750     4110.631     2185.572     1743.040        1.128        0.402      111.851       39.225        0.123      336.276        7.468      867.529
01/19/2015  04:51:00       82.722       54.210       62.772       54.830       37.755       36.599     3006.341     1425.463     1339.508        0.975        0.289       98.902       28.668        0.084      336.250        7.425      867.544
01/19/2015  04:52:00       66.339       58.429       54.310       43.010       35.884       36.479     1849.854     1287.688     1330.697        0.762        0.223       88.401       29.452        0.111      336.222        7.378      867.565
01/19/2015  04:53:00      114.153       88.846       34.336       30.610       31.768       33.863      937.000     1009.186     1146.705        1.260        0.155      144.653       24.592        0.029      336.289        7.491      867.572
01/19/2015  04:54:00      125.340       53.843       19.810       38.720       32.109       34.938     1499.237     1031.018     1220.679        1.138        0.188      136.416       22.512        0.027      336.327        7.554      867.568
01/19/2015  04:55:00       71.365       39.202       12.689       47.894       33.750       27.378     2293.882     1139.053      749.571        0.549        0.209       81.424       26.392        0.105      336.340        7.574      867.584
01/19/2015  04:56:00       72.038       71.479        0.320       25.655       35.273       24.777      658.161     1244.210      613.907        0.641        0.126      101.483       18.813        0.034      336.196        7.334      867.613
01/19/2015  04:57:00      116.080       80.639       19.061       36.211       25.263       27.286     1311.244      638.201      744.517        1.152        0.135      141.341       11.887        0.007      336.157        7.269      867.584
01/19/2015  04:58:00       87.593       75.006       43.584       51.184       37.316       38.874     2619.843     1392.515     1511.153        1.036        0.276      115.319       34.934        0.092      336.247        7.421      867.567
01/19/2015  04:59:00       93.085       61.770        8.905       40.215       33.541       29.097     1617.236     1124.996      846.653        0.807        0.179      111.715       22.212        0.040      336.141        7.242      867.608
01/19/2015  05:00:00       94.383       61.445        8.040       42.572       23.258       27.797     1812.370      540.956      772.686        0.794        0.156      112.622       23.990        0.045      336.177        7.304      867.608
01/19/2015  05:01:00       92.536       86.998       52.225       71.186       55.252       57.278     5067.503     3052.766     3280.797        1.513        0.570      127.010       59.563        0.220      336.581        7.979      867.550
01/19/2015  05:02:00       23.551       88.420       70.900       43.523       40.259       45.306     1894.213     1620.785     2052.597        0.948        0.278       91.503       43.999        0.231      336.538        7.907      867.518
01/19/2015  05:03:00       74.823       48.024        9.755       36.183       30.969       26.530     1309.232      959.076      703.822        0.549        0.149       88.909       14.296        0.026      336.957        8.609      867.532
01/19/2015  05:04:00       68.361       64.362       -1.021       40.475       22.885       27.341     1638.237      523.701      747.547        0.586        0.145       93.892       13.677        0.021      336.684        8.152      867.540
01/19/2015  05:05:00       45.377       47.571      -11.551       23.782       27.544       14.573      565.587      758.662      212.380        0.300        0.077       65.742       12.475        0.036      336.718        8.208      867.538
01/19/2015  05:06:00       59.131       10.416       22.539       67.049       30.875       18.627     4495.589      953.261      346.970        0.495        0.290       60.042       26.042        0.188      336.802        8.349      867.539
01/19/2015  05:07:00       53.898       26.223        9.227       45.767       28.642       25.458     2094.589      820.387      648.121        0.362        0.178       59.939       16.421        0.075      336.658        8.108      867.544
01/19/2015  05:08:00       12.849      108.447      -19.772       34.828       54.470       22.133     1212.991     2966.957      489.878        0.849        0.233      109.205       30.763        0.079      336.626        8.056      867.550
01/19/2015  05:09:00       82.563       47.391       -0.094       43.841       36.939       30.477     1922.065     1364.514      928.844        0.664        0.211       95.197       13.406        0.020      336.539        7.909      867.548
01/19/2015  05:10:00       85.354       49.484        8.592       52.456       28.538       28.432     2751.599      814.431      808.393        0.709        0.219       98.661       19.105        0.037      336.505        7.853      867.553
01/19/2015  05:11:00       60.341       40.601        6.905       35.332       31.575       30.513     1248.324      996.991      931.025        0.426        0.159       72.729       18.982        0.068      336.601        8.012      867.570
01/19/2015  05:12:00       50.702       45.865        3.769       30.824       27.844       20.237      950.132      775.295      409.542        0.341        0.107       68.368       13.993        0.042      336.643        8.084      867.583
01/19/2015  05:13:00       65.401       58.524        3.323       34.414       38.584       24.239     1184.304     1488.716      587.534        0.549        0.163       87.763       13.972        0.025      336.610        8.027      867.591
01/19/2015  05:14:00       31.970       35.656       -3.390       31.824       22.505       19.423     1012.754      506.492      377.235        0.210        0.095       47.890       16.020        0.112      336.539        7.910      867.611
01/19/2015  05:15:00      -12.132      -12.321        2.914        8.416       14.899       10.061       70.828      221.984      101.229        0.035        0.020       17.291        3.487        0.041      336.556        7.939      867.618
01/19/2015  05:16:00       -2.873        0.596       -3.696        8.107        9.680        6.319       65.717       93.702       39.931        0.011        0.010        2.934        3.996        1.855      336.721        8.214      867.615
01/19/2015  05:17:00       25.271       16.290        1.029       22.070       17.186       15.742      487.077      295.371      247.801        0.097        0.052       30.066       12.138        0.163      336.719        8.212      867.614
01/19/2015  05:18:00       -0.004       32.680       43.443       15.324       21.901       21.579      234.822      479.653      465.633        0.207        0.059       32.680       18.314        0.314      336.638        8.075      867.615
01/19/2015  05:19:00       -9.924       29.140       45.011       16.978       24.317       13.873      288.263      591.324      192.462        0.202        0.054       30.784       13.671        0.197      336.572        7.964      867.629
01/19/2015  05:20:00      -10.534       25.766       45.553        9.445       21.142       17.369       89.212      446.997      301.698        0.184        0.042       27.837       16.886        0.368      336.691        8.164      867.652
01/19/2015  05:21:00       -0.876      -26.889       10.845       15.657       31.076       19.254      245.146      965.693      370.710        0.121        0.079       26.903       20.892        0.603      336.729        8.228      867.668
01/19/2015  05:22:00      -24.626      -25.581        3.024       17.767       11.276        8.756      315.677      127.150       76.659        0.089        0.026       35.508        5.049        0.020      336.809        8.359      867.665
01/19/2015  05:23:00        5.061      -15.777        6.379       10.131       16.044        9.462      102.638      257.402       89.525        0.038        0.022       16.569        3.309        0.040      336.839        8.412      867.649
01/19/2015  05:24:00      -12.025      -29.005       -6.681       10.382       12.301        9.985      107.785      151.303       99.706        0.069        0.018       31.399        4.993        0.025      336.782        8.317      867.629
01/19/2015  05:25:00      -44.294      -18.847       -4.005       19.633        8.615        7.777      385.445       74.222       60.479        0.143        0.026       48.137        6.271        0.017      336.764        8.284      867.631
01/19/2015  05:26:00      -67.936      -39.051       -5.547       15.524        7.557        4.998      240.984       57.106       24.978        0.325        0.016       78.360        5.960        0.006      336.814        8.369      867.621
01/19/2015  05:27:00      -18.800      -19.101       10.653       33.465       20.312       20.135     1119.874      412.597      405.422        0.138        0.097       26.801       17.468        0.425      336.754        8.270      867.623
01/19/2015  05:28:00      -47.805      -44.176        4.284       26.005       32.715       19.963      676.283     1070.297      398.540        0.320        0.107       65.091       14.034        0.046      336.802        8.349      867.635
01/19/2015  05:29:00      -23.637      -20.228        5.057       24.183       18.214       13.746      584.801      331.763      188.949        0.105        0.055       31.110        9.392        0.091      336.768        8.292      867.652
01/19/2015  05:30:00      -16.526       -2.661        2.935        8.416        9.797        6.231       70.834       95.982       38.825        0.025        0.010       16.739        4.790        0.082      336.716        8.205      867.656
01/19/2015  05:31:00      -23.365      -44.188        1.446       15.141        9.852       10.261      229.239       97.053      105.297        0.147        0.022       49.985        8.207        0.027      337.014        8.701      867.666
01/19/2015  05:32:00      -41.255      -39.323       -4.858       16.062       12.275       11.859      257.981      150.677      140.627        0.191        0.027       56.994        6.794        0.014      337.102        8.848      867.683
01/19/2015  05:33:00      -63.155      -18.059       -5.791       15.157       16.350       10.094      229.740      267.324      101.888        0.247        0.030       65.686        7.750        0.014      336.827        8.389      867.694
01/19/2015  05:34:00      -51.435       -3.728       -4.141       20.472       10.062        9.147      419.101      101.251       83.659        0.164        0.030       51.570        8.490        0.027      336.876        8.472      867.703
01/19/2015  05:35:00      -32.131      -19.245       -0.181       27.484       16.151        7.575      755.392      260.871       57.384        0.124        0.054       37.454       10.942        0.085      336.944        8.584      867.694
01/19/2015  05:36:00      -40.169       38.172      -13.319       36.915       57.141       20.697     1362.735     3265.112      428.362        0.415        0.253       55.413       16.103        0.084      337.146        8.922      867.684
01/19/2015  05:37:00      -11.750       20.906       21.243       74.074       44.086       40.380     5487.007     1943.559     1630.562        0.504        0.453       23.982       39.921        2.771      337.003        8.684      867.673
01/19/2015  05:38:00      -52.039       38.624       -5.845       65.517       36.969       33.090     4292.523     1366.695     1094.958        0.549        0.338       64.807       38.933        0.361      337.253        9.103      867.660
01/19/2015  05:39:00       38.133       50.791       10.880       75.630       64.358       31.579     5719.839     4141.927      997.211        0.750        0.543       63.513       37.757        0.353      337.071        8.797      867.675
01/19/2015  05:40:00      -32.857      116.057      -11.151       58.390       50.940       31.027     3409.429     2594.875      962.681        1.082        0.348      120.619       35.361        0.086      337.147        8.925      867.680
01/19/2015  05:41:00        0.763       37.964        5.288       30.530       47.367       23.357      932.082     2243.673      545.563        0.259        0.186       37.972       28.750        0.573      337.100        8.846      867.678
01/19/2015  05:42:00      -20.593      -68.192       12.787       45.133       51.213       29.163     2037.017     2622.764      850.503        0.537        0.276       71.234       23.235        0.106      336.918        8.541      867.684
01/19/2015  05:43:00      -25.630      -30.717       18.573       24.117       50.531       21.964      581.617     2553.417      482.431        0.278        0.181       40.005       14.186        0.126      337.153        8.935      867.683
01/19/2015  05:44:00      -31.868      -43.802        5.364       28.561       51.124       27.729      815.729     2613.666      768.884        0.358        0.210       54.168       21.437        0.157      337.023        8.716      867.699
01/19/2015  05:45:00      -46.317       -6.628       11.321       33.558       44.536       23.825     1126.162     1983.475      567.654        0.300        0.184       46.789       17.536        0.140      336.753        8.268      867.723
01/19/2015  05:46:00      -96.525      -29.577       -3.392       26.157       27.051       12.581      684.174      731.781      158.282        0.589        0.079      100.955        9.937        0.010      336.587        7.992      867.736
01/19/2015  05:47:00      -40.827       -9.686        0.982       11.413       12.803        8.529      130.257      163.921       72.741        0.106        0.018       41.960        4.648        0.012      336.551        7.930      867.726
01/19/2015  05:48:00      -25.426       12.589        2.902       15.260       19.569        9.690      232.853      382.948       93.898        0.076        0.035       28.372        7.327        0.067      336.523        7.882      867.701
01/19/2015  05:49:00      -27.154      -44.959       -2.692       27.407       54.488       25.160      751.148     2968.900      633.023        0.356        0.218       52.523       13.196        0.063      336.560        7.945      867.673
01/19/2015  05:50:00        9.923     -103.545      -16.440       47.340       35.049       27.984     2241.062     1228.410      783.094        0.767        0.213      104.019       23.639        0.052      336.643        8.085      867.664
01/19/2015  05:51:00       -6.213      -47.654        6.173       20.520       33.595       26.453      421.076     1128.608      699.757        0.230        0.112       48.058       19.298        0.161      336.591        7.996      867.657
01/19/2015  05:52:00        1.512       -9.089       17.624       27.565       29.940       14.374      759.850      896.409      206.625        0.113        0.093        9.214       11.932        1.677      336.518        7.875      867.666
01/19/2015  05:53:00      -10.977       10.387        5.494       18.376       15.192       14.358      337.691      230.804      206.150        0.052        0.039       15.112        5.238        0.120      336.471        7.794      867.670
01/19/2015  05:54:00      -10.594      -32.454        6.964       30.717       24.433       21.532      943.522      596.951      463.632        0.161        0.100       34.140       23.308        0.466      336.488        7.822      867.675
01/19/2015  05:55:00       17.174      -35.153        3.827       17.490       17.415       15.417      305.917      303.295      237.671        0.120        0.042       39.124       12.890        0.109      336.604        8.019      867.674
01/19/2015  05:56:00       27.105       -1.110        2.293       16.821       15.705       11.693      282.944      246.633      136.733        0.070        0.033       27.128        8.115        0.089      336.567        7.956      867.684
01/19/2015  05:57:00       26.770       15.457        5.407       16.790       10.280       10.494      281.911      105.671      110.134        0.074        0.025       30.912       10.601        0.118      336.492        7.830      867.687
01/19/2015  05:58:00       44.305       63.378       -4.232       18.127       31.241       18.500      328.581      976.010      342.238        0.382        0.082       77.328       18.612        0.058      336.658        8.108      867.688
01/19/2015  05:59:00       41.309       42.816        9.467       36.308       32.871       24.320     1318.236     1080.492      591.447        0.331        0.150       59.495       24.218        0.166      336.673        8.134      867.685
01/19/2015  06:00:00        5.797       67.562       -8.964       20.960       24.139       14.890      439.328      582.694      221.705        0.296        0.062       67.810       14.671        0.047      336.644        8.085      867.673
01/19/2015  06:01:00       -7.654       96.460      -12.396       27.210       17.685       11.652      740.410      312.761      135.765        0.535        0.059       96.763       10.478        0.012      336.727        8.225      867.660
01/19/2015  06:02:00      -25.728       48.179       -4.696       22.031       32.412       12.692      485.348     1050.570      161.092        0.235        0.085       54.618       12.736        0.054      336.662        8.114      867.642
01/19/2015  06:03:00      -47.839       12.835       -2.829       12.310       12.754        7.804      151.529      162.668       60.909        0.142        0.019       49.531        4.926        0.010      336.462        7.780      867.642
01/19/2015  06:04:00      -46.149        3.483       -6.932       18.738       11.460       11.523      351.111      131.331      132.780        0.140        0.031       46.280        9.694        0.044      336.368        7.622      867.656
01/19/2015  06:05:00      -36.020       -3.232       -5.911       22.897       17.477       13.256      524.268      305.453      175.723        0.117        0.050       36.165       12.993        0.129      336.100        7.174      867.673
01/19/2015  06:06:00      -79.345      -39.379       -3.424       26.775       22.562       13.703      716.923      509.041      187.768        0.464        0.071       88.580       11.673        0.017      336.057        7.102      867.676
01/19/2015  06:07:00      -71.197      -38.154        4.558       41.701       29.929       18.923     1738.935      895.721      358.071        0.477        0.150       80.776       23.152        0.082      336.022        7.044      867.687
01/19/2015  06:08:00      -87.077      -19.813       -7.263       27.335       23.178       15.940      747.189      537.208      254.086        0.478        0.077       89.303       15.957        0.032      336.056        7.101      867.713
01/19/2015  06:09:00      -93.108      -31.559       -2.279       21.556       28.621       15.876      464.654      819.166      252.040        0.560        0.077       98.311        9.753        0.010      336.081        7.141      867.729
01/19/2015  06:10:00     -100.087       12.972       -7.277       34.513       28.647       18.184     1191.142      820.649      330.644        0.629        0.117      100.924       14.133        0.020      335.950        6.925      867.756
01/19/2015  06:11:00     -166.046       -2.014      -20.559       17.432       37.542       14.106      303.866     1409.411      198.970        1.495        0.096      166.058        7.460        0.002      336.036        7.067      867.767
01/19/2015  06:12:00     -108.292      -39.598       -4.627       32.358       38.396       24.695     1047.058     1474.245      609.831        0.822        0.157      115.304       22.046        0.037      336.019        7.039      867.774
01/19/2015  06:13:00     -108.305      -16.209       -9.329       38.346       29.643       18.140     1470.449      878.681      329.042        0.738        0.134      109.511       20.010        0.033      336.030        7.058      867.771
01/19/2015  06:14:00     -119.671      -13.578       -7.174       39.244       36.922       18.957     1540.061     1363.202      359.359        0.891        0.163      120.439       17.842        0.022      335.934        6.897      867.757
01/19/2015  06:15:00      -95.151      -38.697       -6.428       76.228       42.759       27.708     5810.696     1828.364      767.711        0.950        0.420      102.719       38.083        0.137      336.199        7.340      867.745
01/19/2015  06:16:00      -27.298      -65.606       -2.881       53.864       29.044       17.148     2901.301      843.562      294.055        0.455        0.202       71.059       13.262        0.035      336.244        7.415      867.721
01/19/2015  06:17:00      -53.988        2.964        0.344       30.784       46.722       15.810      947.684     2182.942      249.969        0.315        0.169       54.069       11.527        0.045      336.128        7.220      867.721
01/19/2015  06:18:00      -39.310       57.758       -4.098       25.975       33.142       13.996      674.696     1098.424      195.900        0.343        0.098       69.866       14.441        0.043      336.201        7.344      867.714
01/19/2015  06:19:00      -91.455       -4.704      -10.421       31.626       22.022       17.486     1000.206      484.959      305.765        0.514        0.090       91.576       17.530        0.037      336.153        7.263      867.690
01/19/2015  06:20:00      -83.862      -37.801       -4.780       43.374       18.708       17.087     1881.284      350.005      291.959        0.550        0.126       91.988       22.276        0.059      336.148        7.254      867.673
01/19/2015  06:21:00      -38.959      -24.121       -6.677       47.338       33.421       22.117     2240.923     1116.954      489.148        0.299        0.192       45.821       25.908        0.320      336.221        7.376      867.651
01/19/2015  06:22:00      -66.524        3.716      -10.137       75.896       53.999       41.469     5760.276     2915.877     1719.685        0.747        0.520       66.628       34.128        0.262      336.498        7.841      867.645
01/19/2015  06:23:00      -85.638      -30.497       -0.607       33.354       32.050       18.946     1112.473     1027.180      358.956        0.538        0.125       90.906       20.585        0.051      336.130        7.223      867.653
01/19/2015  06:24:00      -59.393      -59.739        5.257       45.978       37.800       20.044     2113.994     1428.818      401.757        0.553        0.197       84.240       19.626        0.054      336.153        7.264      867.677
01/19/2015  06:25:00      -80.834      -46.796      -10.579       17.075       28.166       11.232      291.557      793.326      126.161        0.502        0.061       93.402        7.456        0.006      336.171        7.293      867.704
01/19/2015  06:26:00      -86.640      -34.542       -4.607       33.869       24.303       12.936     1147.077      590.625      167.331        0.531        0.095       93.272       14.846        0.025      336.178        7.306      867.710
01/19/2015  06:27:00      -19.104       -8.827        5.978       25.519       19.600       12.416      651.210      384.141      154.149        0.083        0.059       21.044        7.884        0.140      336.053        7.096      867.711
01/19/2015  06:28:00        2.448       26.883       -0.911       11.473       16.558        7.432      131.637      274.169       55.229        0.060        0.023       26.994        5.882        0.047      336.091        7.158      867.701
01/19/2015  06:29:00       -7.879       11.433        0.728        9.299        7.547        6.867       86.472       56.951       47.149        0.019        0.010       13.885        6.009        0.187      336.179        7.306      867.699
01/19/2015  06:30:00      -11.939        8.252       -4.719        8.060       10.614        5.814       64.970      112.658       33.803        0.022        0.011       14.514        3.483        0.058      336.217        7.369      867.718
01/19/2015  06:31:00      -43.983       21.772       -2.270       16.196        9.470        8.795      262.315       89.683       77.348        0.142        0.021       49.077        7.499        0.023      336.227        7.387      867.736
01/19/2015  06:32:00      -33.500       25.454       -6.669       19.730       12.277        6.033      389.256      150.731       36.400        0.120        0.029       42.073        3.682        0.008      336.195        7.334      867.772
01/19/2015  06:33:00      -19.839       29.995        1.176       24.493       18.488       14.385      599.887      341.804      206.926        0.122        0.057       35.962       15.001        0.174      336.029        7.057      867.803
01/19/2015  06:34:00      -62.805       46.193      -11.283       10.585       17.761       14.698      112.044      315.465      216.021        0.342        0.032       77.963        9.141        0.014      335.968        6.955      867.840
01/19/2015  06:35:00      -55.918       10.667      -12.435       13.799        9.922        8.762      190.413       98.442       76.772        0.188        0.018       56.927        8.613        0.023      336.006        7.019      867.867
01/19/2015  06:36:00      -40.354      -11.195       -4.865       18.160       15.754        9.521      329.776      248.187       90.653        0.122        0.033       41.878        8.820        0.044      335.798        6.672      867.883
01/19/2015  06:37:00      -33.689      -10.194        1.472       22.281       21.497       16.375      496.453      462.115      268.127        0.123        0.061       35.198       11.610        0.109      335.736        6.571      867.876
01/19/2015  06:38:00      -23.373       -4.288       -2.242       17.037       19.756       16.904      290.258      390.286      285.749        0.077        0.048       23.763       11.692        0.242      335.894        6.832      867.855
01/19/2015  06:39:00       -0.006      -16.060        4.473       11.947       14.744        9.887      142.720      217.384       97.755        0.037        0.023       16.060        4.284        0.071      335.964        6.947      867.818
01/19/2015  06:40:00      -14.257       -7.803        3.100       20.651       11.689       11.231      426.465      136.635      126.137        0.048        0.034       16.253       12.057        0.550      335.959        6.938      867.790
01/19/2015  06:41:00      -39.832      -29.053       -5.279       26.591       17.031       15.160      707.067      290.071      229.840        0.184        0.061       49.302       14.090        0.082      335.910        6.858      867.769
01/19/2015  06:42:00      -44.596      -36.660        8.039       37.012       25.973       17.308     1369.921      674.616      299.578        0.287        0.117       57.730       17.096        0.088      335.862        6.777      867.761
01/19/2015  06:43:00      -84.112      -79.490        0.974       61.806       45.878       28.604     3819.976     2104.820      818.176        1.007        0.337      115.730       26.891        0.054      335.887        6.820      867.748
01/19/2015  06:44:00      -93.418      -95.717       -5.556       52.458       36.141       25.844     2751.846     1306.174      667.905        1.132        0.236      133.749       24.716        0.034      335.955        6.932      867.729
01/19/2015  06:45:00      -43.317      -79.062        1.742       33.212       31.722       18.744     1103.043     1006.264      351.346        0.529        0.123       90.151       16.046        0.032      336.145        7.249      867.701
01/19/2015  06:46:00      -19.212      -74.381        1.995       15.962       31.009       13.802      254.800      961.536      190.489        0.366        0.070       76.823        6.333        0.007      336.244        7.416      867.686
01/19/2015  06:47:00       11.544      -20.809        3.087       18.893       19.868        8.931      356.935      394.745       79.768        0.070        0.042       23.797        9.028        0.144      336.104        7.182      867.695
01/19/2015  06:48:00       12.337        7.388       14.487        8.715        7.793        6.167       75.943       60.724       38.035        0.030        0.009       14.380        4.088        0.081      335.928        6.887      867.712
01/19/2015  06:49:00       18.997       21.698        1.564       12.774       11.625        8.841      163.176      135.136       78.156        0.061        0.019       28.839        7.094        0.061      335.965        6.949      867.742
01/19/2015  06:50:00       -4.728      -12.338        1.403       21.501       16.203        7.644      462.286      262.552       58.431        0.048        0.039       13.213        9.592        0.527      335.995        6.999      867.773
01/19/2015  06:51:00      -36.789       25.236       -5.239        8.973       20.226        7.745       80.510      409.100       59.992        0.128        0.027       44.612        4.897        0.012      336.086        7.150      867.795
01/19/2015  06:52:00      -61.981       28.063       -7.450       23.948        9.155       13.638      573.512       83.806      185.989        0.276        0.042       68.038       14.887        0.048      336.054        7.097      867.808
01/19/2015  06:53:00      -71.536       24.549       -8.414       11.613       15.237        9.161      134.867      232.175       83.929        0.312        0.023       75.631        2.645        0.001      335.850        6.758      867.818
01/19/2015  06:54:00      -69.981       15.766       -8.761       11.455       12.656        9.942      131.215      160.166       98.841        0.281        0.020       71.735        4.637        0.004      335.644        6.416      867.826
01/19/2015  06:55:00      -54.220        2.677       -8.474        8.445        9.418        6.387       71.316       88.707       40.792        0.161        0.010       54.286        4.752        0.008      335.707        6.521      867.830
01/19/2015  06:56:00      -59.745       -1.402       -7.635       15.139       17.860       13.332      229.194      318.977      177.755        0.218        0.036       59.762        7.038        0.014      335.658        6.439      867.828
01/19/2015  06:57:00      -57.420       10.146      -10.739       14.327       18.010        9.720      205.277      324.349       94.481        0.207        0.031       58.310        7.924        0.018      335.783        6.646      867.831
01/19/2015  06:58:00      -68.925       25.466       -9.661       18.194       18.263       11.176      331.013      333.538      124.914        0.314        0.039       73.479        4.039        0.003      335.842        6.744      867.823
01/19/2015  06:59:00      -79.624        5.687       -9.400       28.575       21.819       13.412      816.523      476.056      179.882        0.397        0.074       79.827       13.714        0.030      335.809        6.691      867.812
01/19/2015  07:00:00     -114.798       -8.817      -12.870       30.715       22.940       12.924      943.385      526.266      167.034        0.753        0.082      115.136       11.831        0.011      335.714        6.532      867.799
01/19/2015  07:01:00     -116.673      -11.301      -10.675       31.691       25.621       14.710     1004.336      656.412      216.394        0.787        0.094      117.219       14.674        0.016      335.560        6.275      867.788
01/19/2015  07:02:00     -108.149      -22.188       -8.046       36.988       27.298       20.444     1368.085      745.195      417.964        0.739        0.127      110.402       18.013        0.027      335.458        6.104      867.781
01/19/2015  07:03:00     -125.685      -42.572       -3.139       48.946       38.245       27.969     2395.724     1462.666      782.281        1.113        0.232      132.700       28.339        0.046      335.403        6.013      867.783
01/19/2015  07:04:00     -108.284      -23.178        1.537       48.713       33.562       22.179     2372.919     1126.394      491.912        0.813        0.200      110.737       24.928        0.051      335.462        6.110      867.774
01/19/2015  07:05:00     -110.258      -54.780       -3.073       60.864       50.729       26.964     3704.446     2573.480      727.040        1.108        0.350      123.116       34.392        0.078      335.612        6.363      867.767
01/19/2015  07:06:00      -76.612      -28.946        5.673       49.292       38.358       23.947     2429.694     1471.366      573.465        0.561        0.224       81.898       21.698        0.070      335.576        6.300      867.760
01/19/2015  07:07:00      -77.346      -21.698        0.415       23.538       26.508       16.806      554.050      702.685      282.448        0.400        0.077       80.332       16.502        0.042      335.598        6.339      867.740
01/19/2015  07:08:00      -40.486      -44.919        5.005       43.374       28.461       20.226     1881.297      810.006      409.072        0.339        0.155       60.472       21.817        0.130      335.625        6.384      867.732
01/19/2015  07:09:00      -35.258        2.775       -0.248       17.825       11.700       11.236      317.721      136.887      126.245        0.092        0.029       35.368       11.559        0.107      335.619        6.373      867.721
01/19/2015  07:10:00        4.855       47.805        2.534       15.757       20.745       13.522      248.278      430.369      182.853        0.159        0.043       48.051        9.430        0.039      335.499        6.174      867.723
01/19/2015  07:11:00       29.763       65.621      -15.206       22.507       19.360       14.551      506.577      374.794      211.724        0.326        0.055       72.056        7.588        0.011      335.183        5.648      867.742
01/19/2015  07:12:00      -16.455       72.834      -12.100       25.196       28.124       15.407      634.847      790.948      237.363        0.369        0.083       74.670       11.541        0.024      335.372        5.963      867.759
01/19/2015  07:13:00      -29.145       82.729       -3.537       25.932       37.761       20.403      672.470     1425.916      416.278        0.511        0.126       87.713       21.094        0.058      335.382        5.978      867.761
01/19/2015  07:14:00      -33.690       82.919      -13.551       32.951       28.049       12.122     1085.765      786.735      146.943        0.511        0.101       89.502        8.689        0.009      335.426        6.051      867.778
01/19/2015  07:15:00      -97.373       41.161      -16.938       37.484       18.345       14.147     1405.069      336.530      200.132        0.670        0.097      105.716        9.999        0.009      335.637        6.405      867.794
01/19/2015  07:16:00      -59.545      -14.578      -11.767       14.591       19.108        9.879      212.904      365.117       97.594        0.229        0.034       61.304        6.429        0.011      335.405        6.016      867.807
01/19/2015  07:17:00      -42.282      -30.212       -7.035       18.622       10.982        9.205      346.775      120.597       84.724        0.165        0.028       51.966        4.946        0.009      335.353        5.928      867.810
01/19/2015  07:18:00      -68.332      -32.607      -14.443       15.690       12.470       11.035      246.175      155.502      121.772        0.323        0.026       75.713        8.969        0.014      335.395        5.998      867.810
01/19/2015  07:19:00      -91.415      -25.695      -15.512       15.818       13.263        8.667      250.199      175.917       75.119        0.488        0.025       94.958        5.608        0.003      335.357        5.937      867.822
01/19/2015  07:20:00     -100.276      -36.517      -15.976       17.092       17.038        9.181      292.140      290.307       84.284        0.616        0.033      106.718        6.616        0.004      335.348        5.920      867.826
01/19/2015  07:21:00      -94.485      -42.050      -14.790       21.367       17.898       11.179      456.560      320.355      124.977        0.591        0.045      103.419        5.321        0.003      335.268        5.786      867.822
01/19/2015  07:22:00     -125.951      -40.630      -20.484       17.028       21.342       12.444      289.949      455.502      154.841        0.942        0.045      132.342        7.552        0.003      335.093        5.499      867.821
01/19/2015  07:23:00     -119.085      -23.417       -5.032       37.582       35.277       26.087     1412.442     1244.491      680.537        0.905        0.167      121.365       23.672        0.038      335.058        5.440      867.826
01/19/2015  07:24:00     -141.536        9.152       -9.025       43.696       32.587       22.818     1909.318     1061.883      520.652        1.184        0.175      141.831       19.299        0.019      335.408        6.020      867.831
01/19/2015  07:25:00     -148.575       -5.905       -8.163       30.120       22.237       19.433      907.223      494.497      377.634        1.198        0.089      148.692       16.260        0.012      335.329        5.891      867.829
01/19/2015  07:26:00     -100.064      -12.222       -4.733       32.400       26.159       19.201     1049.784      684.300      368.686        0.614        0.105      100.808       16.574        0.027      335.230        5.725      867.831
01/19/2015  07:27:00     -128.725        4.204      -14.334       15.818       18.677       12.205      250.219      348.820      148.957        0.877        0.037      128.794        8.657        0.005      335.167        5.620      867.839
01/19/2015  07:28:00     -126.570       11.849      -16.446       22.121       21.561       13.390      489.355      464.885      179.300        0.878        0.057      127.123       10.786        0.007      335.214        5.699      867.862
01/19/2015  07:29:00     -104.485       23.340      -10.443       33.015       20.992       15.056     1090.008      440.673      226.696        0.666        0.088      107.060       11.269        0.011      335.295        5.833      867.883
01/19/2015  07:30:00      -70.395       29.172       -9.334       22.130       25.323       13.198      489.727      641.240      174.183        0.360        0.065       76.200       10.594        0.019      335.447        6.085      867.904
01/19/2015  07:31:00      -97.816       60.312      -17.530       29.257       24.023       19.920      855.991      577.093      396.794        0.767        0.091      114.915       17.778        0.024      335.554        6.265      867.919
01/19/2015  07:32:00     -107.682       76.080      -13.374       35.266       38.925       24.996     1243.660     1515.176      624.824        1.047        0.169      131.847       21.113        0.026      335.734        6.566      867.933
01/19/2015  07:33:00      -13.031      101.141       -8.063       18.705       28.742       17.546      349.872      826.096      307.863        0.597        0.074      101.977       12.135        0.014      335.390        5.991      867.951
01/19/2015  07:34:00      -36.282      131.379      -15.037       20.614       24.446       15.609      424.945      597.617      243.652        1.003        0.063      136.296       14.600        0.011      335.427        6.053      867.957
01/19/2015  07:35:00      -87.439       62.023      -17.621       21.544       25.480       12.774      464.122      649.220      163.184        0.654        0.064      107.203       11.362        0.011      335.586        6.318      867.961
01/19/2015  07:36:00      -94.385        5.445      -17.801       19.867       23.101       16.753      394.696      533.678      280.652        0.523        0.060       94.542        9.858        0.011      335.321        5.877      867.964
01/19/2015  07:37:00     -107.786      -20.059      -17.033       20.264       23.797       14.223      410.641      566.292      202.300        0.674        0.059      109.636       10.852        0.010      335.013        5.366      867.967
01/19/2015  07:38:00     -129.716      -11.304      -16.204       35.324       26.629       16.368     1247.819      709.099      267.908        0.972        0.111      130.208       12.402        0.009      334.925        5.219      867.955
01/19/2015  07:39:00     -115.585        2.325       -7.629       38.270       28.327       23.115     1464.556      802.395      534.293        0.811        0.140      115.608       21.325        0.034      335.087        5.489      867.927
01/19/2015  07:40:00     -118.515       -9.671      -10.092       43.073       23.801       19.576     1855.281      566.486      383.236        0.852        0.140      118.909       20.867        0.031      335.074        5.468      867.904
01/19/2015  07:41:00     -144.241      -24.658      -13.039       25.435       24.203       16.887      646.924      585.775      285.176        1.155        0.076      146.334       12.698        0.008      335.004        5.351      867.878
01/19/2015  07:42:00     -143.446      -20.043      -16.160       20.581       14.109       15.004      423.578      199.064      225.110        1.104        0.042      144.840       13.097        0.008      335.044        5.417      867.852
01/19/2015  07:43:00     -110.556      -26.687       -7.978       29.592       18.072       18.625      875.704      326.606      346.885        0.727        0.077      113.731       17.583        0.024      335.111        5.528      867.838
01/19/2015  07:44:00     -103.944      -34.955       -5.237       19.895       12.891       11.354      395.800      166.171      128.904        0.637        0.035      109.665        6.139        0.003      335.205        5.686      867.835
01/19/2015  07:45:00     -135.968      -23.592       -6.845       17.248       18.486        9.793      297.482      341.728       95.897        0.991        0.037      138.000        7.909        0.003      335.242        5.745      867.845
01/19/2015  07:46:00     -102.977       -3.579        0.810       32.834       16.780       15.961     1078.093      281.585      254.767        0.612        0.081      103.039       16.938        0.027      335.282        5.811      867.862
01/19/2015  07:47:00      -52.144       11.769        3.191       35.874       23.261       13.793     1286.919      541.079      190.242        0.244        0.101       53.456       13.233        0.061      335.349        5.923      867.865
01/19/2015  07:48:00      -42.385       38.378      -10.201       21.588       37.879       14.318      466.026     1434.851      205.008        0.274        0.105       57.178       11.320        0.039      335.574        6.301      867.871
01/19/2015  07:49:00       65.154       38.137       -1.979       37.383       24.601       22.508     1397.510      605.212      506.621        0.411        0.125       75.495       15.552        0.042      335.288        5.822      867.871
01/19/2015  07:50:00       81.163       52.491       15.090       26.779       22.536       23.106      717.118      507.876      533.898        0.566        0.088       96.658       14.743        0.023      335.144        5.582      867.877
01/19/2015  07:51:00       76.165       65.716        1.845       25.898       24.859       17.662      670.683      617.983      311.932        0.586        0.080      100.596       12.381        0.015      335.191        5.661      867.885
01/19/2015  07:52:00       75.539       56.589       -1.476       20.443       17.269       19.109      417.926      298.234      365.147        0.500        0.054       94.384       12.886        0.019      335.296        5.835      867.892
01/19/2015  07:53:00       47.041       21.380        8.098       14.233       11.730        9.757      202.580      137.596       95.200        0.159        0.022       51.672        1.260        0.001      335.313        5.862      867.899
01/19/2015  07:54:00       25.580        9.681        5.395        8.805        9.588        7.629       77.527       91.932       58.209        0.050        0.011       27.351        4.916        0.032      335.478        6.137      867.899
01/19/2015  07:55:00      -14.182        7.655        4.444       18.457        7.702        9.653      340.674       59.322       93.173        0.039        0.025       16.116        6.644        0.170      335.467        6.120      867.907
01/19/2015  07:56:00      -50.839       15.906       -6.336       14.970       14.287        7.653      224.088      204.116       58.570        0.168        0.024       53.269        5.888        0.012      335.077        5.471      867.923
01/19/2015  07:57:00      -42.195       15.458      -10.004       11.200       11.647        9.563      125.448      135.652       91.451        0.124        0.018       44.937        7.259        0.026      335.122        5.546      867.935
01/19/2015  07:58:00      -32.314       15.525       -2.821       10.749       11.152        8.660      115.545      124.369       74.995        0.080        0.016       35.850        3.572        0.010      335.186        5.653      867.948
01/19/2015  07:59:00      -59.830        0.817      -10.058       12.198        6.968        5.544      148.791       48.556       30.733        0.195        0.011       59.835        2.354        0.002      335.332        5.894      867.967
01/19/2015  08:00:00      -74.358       -3.300       -7.732       10.114       12.438       10.237      102.291      154.701      104.790        0.298        0.018       74.431        6.148        0.007      335.377        5.969      867.979
01/19/2015  08:01:00      -89.120       -3.725      -12.278       16.588       16.910       12.086      275.168      285.937      146.065        0.441        0.035       89.198        8.796        0.010      335.295        5.833      867.992
01/19/2015  08:02:00      -99.249      -15.818      -13.124       18.829       15.091       12.026      354.531      227.724      144.632        0.550        0.036      100.502       11.930        0.014      335.359        5.940      868.008
01/19/2015  08:03:00      -86.569       -9.953      -12.553       21.468       20.507       17.010      460.895      420.538      289.331        0.446        0.059       87.139       12.273        0.020      335.298        5.838      868.034
01/19/2015  08:04:00      -97.576      -15.956       -5.978       39.211       31.117       21.953     1537.509      968.294      481.919        0.640        0.149       98.872       18.878        0.036      335.268        5.786      868.041
01/19/2015  08:05:00     -153.159        4.083      -20.511       20.092       24.056       15.715      403.707      578.688      246.959        1.256        0.061      153.214        9.676        0.004      335.384        5.981      868.068
01/19/2015  08:06:00     -150.591       -4.303      -22.108       30.323       22.872       18.757      919.478      523.135      351.823        1.249        0.090      150.653       14.641        0.009      335.358        5.937      868.078
01/19/2015  08:07:00     -114.551       -9.724      -10.868       21.783       24.150       16.501      474.490      583.204      272.293        0.733        0.066      114.963       11.935        0.011      335.410        6.024      868.092
01/19/2015  08:08:00      -73.955       -8.910      -12.093       25.941       22.443       13.095      672.926      503.666      171.492        0.352        0.067       74.490       12.135        0.027      335.523        6.213      868.090
01/19/2015  08:09:00      -42.629        5.791       -4.885       16.625       16.385       12.844      276.404      268.468      164.978        0.129        0.035       43.021        8.454        0.039      335.759        6.607      868.098
01/19/2015  08:10:00      -54.504       -0.622       -9.365       29.628       21.007       12.070      877.804      441.307      145.693        0.226        0.073       54.507       10.600        0.038      335.843        6.748      868.111
01/19/2015  08:11:00      -79.304       16.411       -4.787       19.496       21.311       15.184      380.105      454.143      230.558        0.382        0.053       80.985        9.633        0.014      335.866        6.787      868.116
01/19/2015  08:12:00      -88.318       32.352      -17.915       22.703       32.303       13.594      515.428     1043.473      184.801        0.546        0.087       94.057        7.082        0.006      336.051        7.093      868.135
01/19/2015  08:13:00      -74.452       46.296       -8.327       29.321       19.869       16.067      859.743      394.760      258.152        0.463        0.076       87.672        9.479        0.012      336.307        7.520      868.151
01/19/2015  08:14:00      -68.580        7.103       -9.003       29.203       20.703       16.514      852.806      428.615      272.701        0.319        0.078       68.947       15.561        0.051      336.015        7.033      868.181
01/19/2015  08:15:00      -74.713       -9.378      -12.310       23.802       19.687       17.360      566.523      387.565      301.387        0.354        0.063       75.299       13.741        0.033      336.044        7.081      868.214
01/19/2015  08:16:00     -114.008      -12.413       -3.982       38.622       36.744       24.027     1491.659     1350.146      577.306        0.829        0.171      114.682       24.470        0.046      335.992        6.993      868.223
01/19/2015  08:17:00     -139.981      -15.858       -9.418       35.933       27.388       21.712     1291.215      750.092      471.407        1.122        0.126      140.876       17.939        0.016      336.163        7.280      868.237
01/19/2015  08:18:00     -129.550       -4.148      -20.743       32.991       32.102       20.530     1088.374     1030.549      421.480        0.989        0.127      129.616       11.670        0.008      336.161        7.276      868.251
01/19/2015  08:19:00     -107.056      -17.643      -11.189       26.775       48.223       18.333      716.924     2325.479      336.088        0.764        0.169      108.500       10.498        0.009      336.159        7.274      868.266
01/19/2015  08:20:00     -140.920        6.173      -16.926       46.354       45.822       28.904     2148.737     2099.674      835.422        1.263        0.254      141.055       24.936        0.031      336.257        7.436      868.289
01/19/2015  08:21:00      -64.781        3.335      -10.394       36.276       29.633       17.605     1315.949      878.098      309.937        0.341        0.125       64.867       11.070        0.029      336.306        7.518      868.317
01/19/2015  08:22:00      -20.823        7.988        8.420       54.112       44.763       26.929     2928.119     2003.708      725.185        0.311        0.283       22.302       22.059        0.978      336.468        7.791      868.330
01/19/2015  08:23:00      -37.008       22.133        0.352       46.724       38.533       31.794     2183.118     1484.769     1010.879        0.327        0.234       43.122       34.358        0.635      336.537        7.905      868.337
01/19/2015  08:24:00      -59.484       81.856       -3.548       43.339       61.659       34.721     1878.302     3801.881     1205.544        0.857        0.344      101.187       37.843        0.140      336.584        7.984      868.338
01/19/2015  08:25:00      -50.113       15.392       -8.552       23.879       40.831       10.106      570.211     1667.184      102.140        0.258        0.117       52.424       11.100        0.045      336.523        7.882      868.339
01/19/2015  08:26:00     -108.453      -39.409      -12.527       32.230       28.925       20.120     1038.747      836.657      404.817        0.788        0.114      115.391       17.178        0.022      336.466        7.787      868.337
01/19/2015  08:27:00     -105.501      -38.646      -10.072       31.133       40.504       18.681      969.259     1640.562      348.976        0.784        0.148      112.357       15.261        0.018      336.491        7.829      868.326
01/19/2015  08:28:00       -0.180      -27.680        6.125       19.562       26.687       14.811      382.687      712.197      219.352        0.106        0.066       27.681       12.850        0.216      336.706        8.188      868.319
01/19/2015  08:29:00      -40.634        7.203        2.754       26.583       17.184       16.486      706.632      295.281      271.792        0.149        0.064       41.268        6.509        0.025      336.657        8.106      868.307
01/19/2015  08:30:00      -31.535      -25.298        2.224       14.357       11.743       10.050      206.134      137.889      101.005        0.104        0.022       40.428        9.618        0.057      336.691        8.164      868.297
01/19/2015  08:31:00      -42.155       -9.395        1.678       14.239       24.392       10.254      202.751      594.947      105.152        0.139        0.045       43.189        8.341        0.037      336.730        8.229      868.271
01/19/2015  08:32:00      -24.143        6.656       29.427       33.958       17.844       21.132     1153.152      318.412      446.553        0.171        0.096       25.044       20.381        0.662      336.843        8.418      868.246
01/19/2015  08:33:00       -1.297       36.398       54.899       28.926       41.604       28.894      836.714     1730.892      834.854        0.387        0.170       36.421       25.244        0.480      336.887        8.490      868.236
01/19/2015  08:34:00       39.636      -72.255        5.663       30.461       54.497       34.266      927.869     2969.903     1174.184        0.595        0.254       82.412       34.440        0.175      336.683        8.150      868.240
01/19/2015  08:35:00       34.385      -37.266       28.184       32.589       42.021       30.297     1062.037     1765.755      917.912        0.355        0.187       50.705       32.101        0.401      336.792        8.332      868.249
01/19/2015  08:36:00       17.009      -29.329       20.539       16.541       50.200       20.118      273.592     2520.082      404.743        0.238        0.160       33.904       27.341        0.650      336.817        8.373      868.261
01/19/2015  08:37:00      -16.687      -22.766       -1.050       32.948       26.418       18.914     1085.570      697.914      357.739        0.147        0.107       28.227       14.181        0.252      336.843        8.417      868.273
01/19/2015  08:38:00       -4.177       27.337       34.542       22.154       24.602       29.560      490.783      605.246      873.815        0.196        0.098       27.655       19.889        0.517      337.069        8.795      868.279
01/19/2015  08:39:00       23.583       57.570       25.011       40.665       30.798       40.932     1653.643      948.509     1675.434        0.439        0.214       62.213       21.942        0.124      337.021        8.713      868.295
01/19/2015  08:40:00       77.881       44.648        7.822       29.618       25.256       21.347      877.244      637.867      455.676        0.505        0.099       89.771       14.711        0.027      336.862        8.450      868.308
01/19/2015  08:41:00       34.122       13.060        0.381       30.475       41.534       21.664      928.752     1725.077      469.311        0.223        0.156       36.536       15.033        0.169      336.923        8.551      868.328
01/19/2015  08:42:00       10.970        1.974       25.291       30.922       37.050       29.629      956.196     1372.721      877.907        0.198        0.160       11.146       29.913        7.203      337.300        9.182      868.343
01/19/2015  08:43:00       36.274       60.759       68.553       46.789       32.274       31.298     2189.189     1041.635      979.537        0.696        0.211       70.764       26.254        0.138      337.129        8.896      868.369
01/19/2015  08:44:00      105.209       72.785       22.195       45.400       32.076       32.665     2061.143     1028.858     1066.995        1.051        0.208      127.932       28.790        0.051      336.991        8.663      868.403
01/19/2015  08:45:00       80.383       55.370        6.213       43.139       34.223       30.882     1860.981     1171.226      953.712        0.678        0.199       97.608       14.457        0.022      336.966        8.621      868.441
01/19/2015  08:46:00       34.528       67.732       -0.615       35.734       48.156       32.307     1276.911     2318.997     1043.740        0.521        0.232       76.025       32.249        0.180      337.044        8.753      868.481
01/19/2015  08:47:00      103.232       74.528       11.496       21.927       23.530       25.143      480.811      553.683      632.192        0.900        0.083      127.323       14.415        0.013      336.956        8.605      868.494
01/19/2015  08:48:00       51.441       38.794       18.119       30.370       20.554       27.549      922.318      422.478      758.928        0.329        0.105       64.429       20.730        0.104      337.256        9.106      868.495
01/19/2015  08:49:00        5.767       23.077       25.974       23.761       32.670       26.202      564.574     1067.320      686.530        0.178        0.116       23.787       17.994        0.572      337.432        9.402      868.493
01/19/2015  08:50:00       15.786       48.707       65.197       41.171       37.870       32.421     1695.088     1434.117     1051.135        0.553        0.209       51.201       30.280        0.350      337.443        9.421      868.497
01/19/2015  08:51:00       28.032       45.729       39.000       39.068       26.022       29.880     1526.288      677.128      892.798        0.375        0.155       53.637       30.227        0.318      337.214        9.037      868.508
01/19/2015  08:52:00        2.050       -1.823       23.122       17.393       30.215       24.931      302.514      912.969      621.547        0.119        0.092        2.743       23.149       71.207      337.480        9.482      868.511
01/19/2015  08:53:00       -5.796       -0.957       30.785       16.963       26.872       13.971      287.730      722.093      195.183        0.109        0.060        5.875        7.979        1.845      337.755        9.943      868.519
01/19/2015  08:54:00      -12.322        4.175       21.270       10.998       19.495       13.408      120.950      380.059      179.763        0.065        0.034       13.010       12.001        0.851      337.597        9.679      868.525
01/19/2015  08:55:00       23.901       66.666        1.033       32.422       43.849       27.115     1051.159     1922.741      735.246        0.436        0.185       70.821       20.383        0.083      337.300        9.182      868.533
01/19/2015  08:56:00        1.296       61.388       10.591       25.762       44.149       33.514      663.662     1949.127     1123.195        0.381        0.187       61.402       26.244        0.183      337.320        9.214      868.522
01/19/2015  08:57:00        4.847       52.962       -5.101       18.883       41.891       19.667      356.577     1754.823      386.797        0.268        0.125       53.184       22.796        0.184      337.405        9.355      868.523
01/19/2015  08:58:00      -25.407       38.435      -14.203       26.673       31.195       16.889      711.442      973.158      285.233        0.215        0.098       46.074       13.832        0.090      337.238        9.078      868.522
01/19/2015  08:59:00      -11.305       29.388      -29.215       46.651       29.634       18.087     2176.304      878.147      327.141        0.261        0.169       31.487       17.186        0.298      337.238        9.078      868.530
01/19/2015  09:00:00       23.484       91.348       -8.973       21.272       41.477       23.098      452.496     1720.328      533.527        0.584        0.135       94.318       24.938        0.070      337.441        9.418      868.537
01/19/2015  09:01:00       25.724       45.068        0.135       30.828       31.137       26.706      950.341      969.516      713.222        0.266        0.132       51.893       13.842        0.071      337.508        9.529      868.549
01/19/2015  09:02:00      -12.633       47.709        8.249       54.583       28.881       25.259     2979.292      834.121      638.021        0.348        0.223       49.354       17.388        0.124      337.497        9.511      868.566
01/19/2015  09:03:00       -0.669      151.643       -6.038       39.144       60.698       42.004     1532.260     3684.285     1764.345        1.501        0.349      151.644       40.958        0.073      337.468        9.461      868.590
01/19/2015  09:04:00       47.876      109.768       -2.914       53.429       67.348       36.424     2854.629     4535.715     1326.727        1.153        0.436      119.754       41.161        0.118      337.521        9.550      868.619
01/19/2015  09:05:00       81.793       64.964        7.072       38.234       29.873       33.501     1461.807      892.421     1122.299        0.722        0.174      104.453       19.251        0.034      337.502        9.519      868.633
01/19/2015  09:06:00       14.916       10.876        4.632       37.476       15.015       21.533     1404.438      225.437      463.665        0.123        0.105       18.460       19.120        1.073      337.664        9.790      868.640
01/19/2015  09:07:00       23.487       83.522       -6.430       35.029       66.032       32.979     1227.061     4360.233     1087.633        0.712        0.334       86.761       34.575        0.159      337.688        9.832      868.655
01/19/2015  09:08:00       55.305       82.101        9.583       72.849       70.568       38.082     5306.911     4979.810     1450.265        1.081        0.587       98.991       32.285        0.106      337.624        9.724      868.665
01/19/2015  09:09:00      -23.411      136.010        1.155       40.548      102.318       48.966     1644.175    10468.922     2397.672        1.678        0.726      138.011       58.335        0.179      337.646        9.760      868.686
01/19/2015  09:10:00      -57.036      181.640      -17.151       43.977       47.098       36.683     1933.980     2218.207     1345.613        2.102        0.275      190.384       34.232        0.032      337.441        9.417      868.703
01/19/2015  09:11:00      -39.353      272.190      -32.317       42.897       66.217       23.584     1840.119     4384.697      556.211        4.173        0.339      275.020       22.227        0.007      337.332        9.231      868.721
01/19/2015  09:12:00      -71.174      183.072      -26.108       58.686       71.984       27.700     3444.027     5181.693      767.284        2.433        0.470      196.420       26.527        0.018      337.363        9.286      868.742
01/19/2015  09:13:00      -75.075      105.583      -16.421       52.621       52.463       34.624     2769.016     2752.360     1198.811        1.189        0.336      129.553       33.653        0.067      337.470        9.466      868.749
01/19/2015  09:14:00       -6.495      232.285      -21.907       45.801       95.957       39.396     2097.695     9207.719     1552.009        3.367        0.643      232.376       43.702        0.035      337.556        9.605      868.752
01/19/2015  09:15:00       16.915      212.111      -27.786       37.415       77.944       30.255     1399.874     6075.236      915.379        2.722        0.420      212.784       34.649        0.027      337.560        9.614      868.754
01/19/2015  09:16:00      -15.158      178.110      -19.973       32.067       56.457       21.558     1028.288     3187.421      464.733        1.852        0.234      178.754       17.589        0.010      337.651        9.768      868.764
01/19/2015  09:17:00      -33.414      130.480       -9.346       35.611       63.608       27.037     1268.115     4046.034      731.007        1.214        0.302      134.691       28.327        0.044      337.790       10.002      868.760
01/19/2015  09:18:00        8.324      192.433      -12.135       46.429       78.797       47.218     2155.622     6209.033     2229.507        2.392        0.530      192.613       46.923        0.059      337.694        9.838      868.762
01/19/2015  09:19:00       -7.672      186.870       -5.044       34.306       98.910       40.410     1176.918     9783.275     1632.947        2.380        0.630      187.027       53.296        0.081      337.708        9.862      868.769
01/19/2015  09:20:00      -45.562      265.142      -26.885       54.908       79.020       33.088     3014.874     6244.108     1094.840        4.172        0.518      269.028       36.891        0.019      337.530        9.563      868.768
01/19/2015  09:21:00       -0.454      302.480      -37.416       52.214       55.035       27.593     2726.251     3028.810      761.357        4.970        0.326      302.481       27.180        0.008      337.413        9.365      868.769
01/19/2015  09:22:00      -94.803      177.553      -20.480       57.870       58.590       37.054     3348.972     3432.797     1373.022        2.454        0.408      201.278       26.820        0.018      337.637        9.743      868.773
01/19/2015  09:23:00       -4.354      240.855      -26.777       33.175       84.754       32.241     1100.564     7183.211     1039.486        3.403        0.466      240.894       41.294        0.029      337.538        9.577      868.775
01/19/2015  09:24:00      -14.870      237.886      -27.644       40.210       49.559       28.775     1616.878     2456.058      827.979        3.124        0.245      238.350       25.904        0.012      337.533        9.567      868.758
01/19/2015  09:25:00       -1.186      230.976      -28.999       37.227       52.930       23.938     1385.878     2801.631      573.044        2.948        0.238      230.979       26.433        0.013      337.543        9.586      868.753
01/19/2015  09:26:00        8.987      173.186      -17.863       45.017       61.605       37.012     2026.555     3795.157     1369.858        1.879        0.360      173.419       35.954        0.043      337.772        9.970      868.736
01/19/2015  09:27:00      -17.361      249.314      -28.715       36.881       86.440       33.554     1360.189     7471.939     1125.881        3.662        0.498      249.918       30.103        0.015      337.632        9.733      868.740
01/19/2015  09:28:00      -39.089      191.096      -14.538       38.710       69.512       31.178     1498.485     4831.907      972.047        2.278        0.365      195.053       30.039        0.024      337.658        9.778      868.741
01/19/2015  09:29:00      -96.714      195.151      -23.450       60.520       62.967       48.229     3662.725     3964.786     2326.004        2.897        0.498      217.802       47.822        0.048      337.763        9.954      868.727
01/19/2015  09:30:00      -75.962      212.804      -27.662       46.512       59.614       23.304     2163.398     3553.779      543.085        2.904        0.313      225.955       13.683        0.004      337.638        9.744      868.729
01/19/2015  09:31:00      -52.623      141.518      -11.446       34.696       41.667       25.377     1203.778     1736.174      644.013        1.326        0.179      150.985       22.564        0.022      337.765        9.960      868.729
01/19/2015  09:32:00      -36.969      151.658       -7.260       31.860       67.145       25.981     1015.045     4508.470      674.999        1.531        0.310      156.099       33.098        0.045      337.809       10.034      868.744
01/19/2015  09:33:00      -24.594      196.845      -15.268       31.672       54.604       28.193     1003.094     2981.578      794.821        2.218        0.239      198.376       19.889        0.010      337.740        9.917      868.739
01/19/2015  09:34:00       -8.255      215.653      -24.308       34.627       44.795       21.226     1199.048     2006.607      450.524        2.541        0.183      215.811       17.887        0.007      337.597        9.676      868.758
01/19/2015  09:35:00      -63.989      176.784      -19.603       52.838       96.261       29.493     2791.807     9266.144      869.825        2.433        0.646      188.009       34.985        0.035      337.707        9.861      868.781
01/19/2015  09:36:00      -10.649       93.007        6.566       29.757       54.620       34.774      885.454     2983.370     1209.241        0.694        0.254       93.614       27.616        0.087      338.047       10.433      868.803
01/19/2015  09:37:00      -30.853      165.432      -18.678       42.310       97.061       30.495     1790.166     9420.783      929.967        2.040        0.607      168.285       42.968        0.065      337.903       10.190      868.830
01/19/2015  09:38:00       -0.024      187.188      -19.126       23.426       93.876       27.874      548.770     8812.677      776.983        2.277        0.507      187.188       36.647        0.038      337.740        9.916      868.855
01/19/2015  09:39:00      -74.546      144.428      -12.844       61.904       86.192       38.529     3832.087     7429.138     1484.521        1.966        0.637      162.531       49.053        0.091      337.895       10.177      868.887
01/19/2015  09:40:00      -66.733       85.548      -12.549       56.539       57.564       37.141     3196.639     3313.591     1379.420        0.991        0.394      108.498       37.632        0.120      337.972       10.307      868.891
01/19/2015  09:41:00      -50.693       71.938        0.373       37.685       45.869       27.692     1420.174     2103.943      766.867        0.602        0.215       88.005       26.903        0.093      338.207       10.700      868.893
01/19/2015  09:42:00      -28.657      167.835       -6.669       40.611       72.586       30.681     1649.216     5268.730      941.325        1.845        0.393      170.264       35.486        0.043      337.998       10.349      868.910
01/19/2015  09:43:00      -23.158      171.592      -12.622       27.483       49.091       28.762      755.291     2409.919      827.229        1.707        0.200      173.148       23.400        0.018      337.934       10.243      868.924
01/19/2015  09:44:00      -65.528      207.160      -19.032       61.154       62.212       29.369     3739.851     3870.348      862.551        2.802        0.424      217.276       29.019        0.018      337.882       10.154      868.931
01/19/2015  09:45:00      -91.821      171.313      -32.909       52.258       45.211       30.061     2730.862     2044.039      903.644        2.227        0.284      194.369       22.502        0.013      337.810       10.035      868.941
01/19/2015  09:46:00      -49.181      175.133      -12.212       59.768       71.510       39.952     3572.155     5113.701     1596.161        2.176        0.514      181.908       32.142        0.031      337.989       10.333      868.937
01/19/2015  09:47:00      -34.481       87.453       -3.278       39.443       47.937       33.459     1555.729     2297.993     1119.532        0.691        0.249       94.005       22.024        0.055      338.186       10.666      868.931
01/19/2015  09:48:00      -22.633       63.350       -2.076       42.720       53.903       28.570     1824.977     2905.576      816.239        0.504        0.277       67.272       18.455        0.075      338.187       10.669      868.921
01/19/2015  09:49:00      -36.667      304.058      -31.137       35.500       60.742       28.919     1260.236     3689.570      836.332        5.027        0.289      306.261       23.774        0.006      337.887       10.159      868.929
01/19/2015  09:50:00      -53.105      280.719      -24.649       43.444       68.329       31.906     1887.405     4668.886     1017.969        4.490        0.379      285.698       19.644        0.005      337.954       10.273      868.925
01/19/2015  09:51:00      -18.644      212.454      -20.210       49.266       80.891       30.101     2427.101     6543.433      906.085        2.788        0.494      213.271       37.379        0.031      337.973       10.307      868.945
01/19/2015  09:52:00       -2.511      144.178       -9.361       31.979       60.404       32.957     1022.686     3648.669     1086.184        1.332        0.288      144.200       35.005        0.059      338.109       10.537      868.939
01/19/2015  09:53:00       10.882      159.559      -22.308       54.039       55.120       30.931     2920.245     3038.195      956.750        1.649        0.346      159.930       27.016        0.029      338.057       10.449      868.948
01/19/2015  09:54:00       66.549       44.651       25.326       67.751       35.213       33.759     4590.187     1239.969     1139.666        0.702        0.348       80.140       22.448        0.078      338.436       11.085      868.943
01/19/2015  09:55:00       56.756       43.957       17.808       58.572       54.495       36.083     3430.712     2969.736     1302.004        0.659        0.385       71.788       24.553        0.117      338.283       10.830      868.958
01/19/2015  09:56:00       59.961      168.606      -15.450       65.607      105.459       59.072     4304.294    11121.658     3489.502        2.559        0.946      178.951       61.212        0.117      338.156       10.613      868.961
01/19/2015  09:57:00      -57.128      225.664      -27.959       36.957       57.945       45.664     1365.838     3357.664     2085.206        3.089        0.340      232.783       32.795        0.020      337.949       10.266      868.970
01/19/2015  09:58:00      -37.479      135.589      -13.480       35.545       46.478       26.222     1263.413     2160.178      687.608        1.204        0.206      140.673       19.975        0.020      338.342       10.929      868.972
01/19/2015  09:59:00      -37.786      141.658      -15.006       46.455       82.247       34.775     2158.031     6764.602     1209.320        1.592        0.507      146.611       46.583        0.101      338.355       10.949      868.978
01/19/2015  10:00:00      -67.661      109.782       -5.042       56.891       77.412       42.267     3236.613     5992.689     1786.487        1.383        0.551      128.958       46.869        0.132      338.202       10.693      868.991
01/19/2015  10:01:00      -22.668      165.469      -13.203       53.980       82.704       36.327     2913.805     6839.919     1319.666        1.957        0.554      167.014       35.979        0.046      338.168       10.636      868.987
01/19/2015  10:02:00       -2.871      104.682       -2.852       66.235       72.280       36.875     4387.133     5224.346     1359.731        1.097        0.549      104.721       40.838        0.152      338.378       10.988      868.990
01/19/2015  10:03:00      -69.679      209.120      -27.681       82.672       62.444       38.545     6834.710     3899.314     1485.706        3.078        0.611      220.423       30.356        0.019      338.135       10.578      868.999
01/19/2015  10:04:00     -112.681      175.140      -20.674       60.954       74.615       42.222     3715.401     5567.432     1782.668        2.743        0.553      208.257       46.295        0.049      338.074       10.476      868.993
01/19/2015  10:05:00      -96.693      138.694      -16.751       69.341       67.822       33.514     4808.196     4599.852     1123.205        1.970        0.527      169.073       40.167        0.056      338.259       10.787      868.995
01/19/2015  10:06:00      -18.999      255.375      -21.804       38.389       61.853       36.728     1473.736     3825.839     1348.911        3.635        0.332      256.081       34.435        0.018      338.107       10.531      868.986
01/19/2015  10:07:00      -19.538      186.600      -11.883       30.839       77.623       31.485      951.029     6025.270      991.314        2.165        0.398      187.621       29.205        0.024      338.221       10.723      869.000
01/19/2015  10:08:00      -31.117      181.980      -16.496       45.391       85.086       38.049     2060.298     7239.664     1447.691        2.255        0.537      184.621       41.620        0.051      338.190       10.670      868.982
01/19/2015  10:09:00       21.074      223.014      -19.385       50.017       69.236       44.686     2501.706     4793.669     1996.853        2.992        0.465      224.008       41.250        0.034      338.136       10.580      868.987
01/19/2015  10:10:00        7.351      183.660      -14.615       54.500       82.893       43.086     2970.260     6871.255     1856.391        2.285        0.585      183.807       50.198        0.075      338.306       10.866      868.977
01/19/2015  10:11:00      -56.715      177.597      -14.529       42.499       62.159       38.704     1806.145     3863.749     1497.973        2.107        0.358      186.433       35.514        0.036      338.206       10.698      868.989
01/19/2015  10:12:00       29.185       90.279        9.459       55.063       68.820       39.822     3031.911     4736.135     1585.816        0.922        0.468       94.879       39.040        0.169      338.552       11.280      868.986
01/19/2015  10:13:00       66.330      101.377        5.362       63.547       66.050       47.998     4038.245     4362.667     2303.786        1.270        0.535      121.148       38.477        0.101      338.432       11.078      868.984
01/19/2015  10:14:00      133.251      112.348       20.719       58.456       55.264       44.072     3417.111     3054.130     1942.370        1.961        0.421      174.292       31.106        0.032      338.344       10.930      868.981
01/19/2015  10:15:00       65.684       83.264       27.082       61.160       45.733       55.235     3740.594     2091.473     3050.884        1.043        0.444      106.054       39.883        0.141      338.456       11.120      868.967
01/19/2015  10:16:00       30.404       91.794        5.406       40.908       55.539       31.971     1673.472     3084.560     1022.138        0.758        0.289       96.698       31.483        0.106      338.400       11.027      868.983
01/19/2015  10:17:00      -20.013       57.627       -9.903       50.995       59.682       31.992     2600.504     3561.993     1023.458        0.550        0.359       61.004       28.319        0.216      338.392       11.011      868.981
01/19/2015  10:18:00      -90.137      133.918      -17.289       48.681       68.528       38.744     2369.817     4696.096     1501.107        1.746        0.428      161.427       26.682        0.027      338.405       11.032      868.967
01/19/2015  10:19:00      -66.085      -46.199       21.035       81.874       73.562       57.943     6703.317     5411.312     3357.412        1.121        0.774       80.632       54.115        0.450      338.389       11.006      868.942
01/19/2015  10:20:00        3.706       30.268       76.017       48.887       63.860       43.019     2389.902     4078.121     1850.617        0.751        0.416       30.494       32.089        1.107      338.662       11.466      868.940
01/19/2015  10:21:00       38.450       75.242       10.824       44.152       46.098       36.357     1949.380     2125.012     1321.847        0.633        0.270       84.497       23.095        0.075      338.541       11.263      868.956
01/19/2015  10:22:00       -1.073      100.995        2.476       36.199       50.691       32.683     1310.382     2569.576     1068.178        0.758        0.247      101.000       29.123        0.083      338.401       11.027      868.968
01/19/2015  10:23:00       13.945       80.965        5.522       32.724       53.698       31.044     1070.857     2883.520      963.729        0.585        0.246       82.157       26.554        0.104      338.590       11.345      868.974
01/19/2015  10:24:00       44.566       36.472       30.233       55.482       39.795       42.317     3078.212     1583.662     1790.747        0.534        0.323       57.588       29.134        0.256      338.723       11.567      868.960
01/19/2015  10:25:00       -0.602       87.161      109.921       30.839       48.086       30.424      951.058     2312.257      925.595        1.193        0.209       87.163       30.661        0.124      338.538       11.256      868.948
01/19/2015  10:26:00       44.087       22.903       73.097       45.079       65.414       39.471     2032.137     4278.933     1557.951        0.784        0.393       49.681       41.520        0.698      338.575       11.320      868.936
01/19/2015  10:27:00       31.001      -53.672       14.395       42.254       51.978       39.060     1785.433     2701.681     1525.711        0.503        0.301       61.982       20.173        0.106      338.661       11.464      868.926
01/19/2015  10:28:00       19.724        4.621       49.663       45.872       66.025       49.853     2104.251     4359.277     2485.340        0.591        0.447       20.258       43.847        4.685      338.736       11.591      868.921
01/19/2015  10:29:00        5.970       61.021       56.718       41.641       36.628       26.922     1734.004     1341.595      724.807        0.539        0.190       61.312       22.790        0.138      338.752       11.618      868.909
01/19/2015  10:30:00       33.844       66.192        2.828       35.599       32.972       38.622     1267.271     1087.179     1491.660        0.469        0.192       74.342       19.622        0.070      338.678       11.492      868.913
01/19/2015  10:31:00      -15.664       68.639       -1.601       40.754       43.740       29.968     1660.853     1913.149      898.079        0.471        0.224       70.403       30.049        0.182      338.645       11.438      868.908
01/19/2015  10:32:00        2.871      137.605       16.661       63.324       44.504       63.543     4009.888     1980.593     4037.776        1.462        0.501      137.635       51.731        0.141      338.652       11.449      868.902
01/19/2015  10:33:00      -15.482       78.278       10.914       36.669       47.640       29.190     1344.630     2269.578      852.080        0.548        0.223       79.794       30.329        0.144      338.801       11.699      868.896
01/19/2015  10:34:00      -34.771      136.799       -8.868       31.490       34.851       20.755      991.622     1214.581      430.785        1.132        0.132      141.149       16.939        0.014      338.502       11.197      868.894
01/19/2015  10:35:00       -5.833      132.191      -14.345       19.744       35.431       21.635      389.828     1255.336      468.060        0.991        0.106      132.320       20.926        0.025      338.431       11.078      868.881
01/19/2015  10:36:00      -21.387        2.170       11.881       26.589       19.670       20.918      706.987      386.920      437.543        0.107        0.077       21.497       13.524        0.396      338.971       11.985      868.869
01/19/2015  10:37:00      -44.509       14.047        2.021       18.643       24.912       16.592      347.556      620.629      275.294        0.171        0.062       46.673       14.980        0.103      338.571       11.312      868.852
01/19/2015  10:38:00       -4.891        7.723       38.639       22.842       21.240       20.503      521.742      451.151      420.355        0.148        0.070        9.141       12.626        1.908      339.445       12.786      868.835
01/19/2015  10:39:00       10.483       33.514       55.840       32.730       28.000       34.737     1071.260      783.997     1206.664        0.371        0.153       35.115       28.192        0.645      338.997       12.030      868.821
01/19/2015  10:40:00       27.815       84.647       80.585       60.573       52.177       43.386     3669.039     2722.415     1882.369        1.135        0.414       89.100       38.299        0.185      339.082       12.171      868.810
01/19/2015  10:41:00      138.561      151.925      116.222       93.358       66.642       61.871     8715.677     4441.146     3828.019        3.638        0.849      205.622       59.006        0.082      338.395       11.015      868.791
01/19/2015  10:42:00       99.798       60.115       84.227       56.839       55.390       43.053     3230.623     3067.998     1853.550        1.441        0.408      116.505       32.199        0.076      338.425       11.068      868.781
01/19/2015  10:43:00      109.300       81.923       73.849       57.998       61.388       48.079     3363.803     3768.437     2311.582        1.678        0.472      136.594       32.008        0.055      338.580       11.326      868.766
01/19/2015  10:44:00       83.158       82.202       58.327       43.447       43.483       45.693     1887.630     1890.760     2087.826        1.147        0.293      116.929       26.850        0.053      338.439       11.092      868.770
01/19/2015  10:45:00       22.101       37.256        0.667       40.933       25.438       16.571     1675.541      647.076      274.608        0.224        0.130       43.318       11.622        0.072      338.515       11.219      868.757
01/19/2015  10:46:00       32.210      -51.904        4.873       40.342       64.375       35.859     1627.503     4144.204     1285.895        0.541        0.353       61.086       34.476        0.319      338.926       11.909      868.738
01/19/2015  10:47:00        2.396        7.292       39.341       27.430       22.565       19.156      752.385      509.192      366.949        0.162        0.081        7.676       13.257        2.983      339.521       12.912      868.735
01/19/2015  10:48:00        0.887      -16.320       37.271       17.137       40.790       26.900      293.681     1663.845      723.585        0.217        0.134       16.344       27.199        2.770      339.428       12.754      868.724
01/19/2015  10:49:00       16.743      -29.153       52.694       43.639      100.641       59.550     1904.350    10128.610     3546.151        0.974        0.779       33.619       66.845        3.953      339.096       12.197      868.712
01/19/2015  10:50:00       43.476       70.790       94.352       62.000      151.531      101.825     3843.972    22961.639    10368.402        2.648        1.859       83.075      113.840        1.878      338.720       11.561      868.693
01/19/2015  10:51:00       77.555       -7.689       51.878       72.187       53.054       43.231     5210.937     2814.716     1868.935        0.933        0.495       77.936       36.413        0.218      338.534       11.251      868.712
01/19/2015  10:52:00       80.315      -16.325       42.398       78.868      106.635       47.263     6220.238    11371.057     2233.757        1.417        0.991       81.958       54.613        0.444      338.757       11.624      868.693
01/19/2015  10:53:00       46.052       67.660      107.775       75.221       78.490       63.930     5658.209     6160.753     4087.070        1.711        0.795       81.845       65.517        0.641      338.779       11.661      868.673
01/19/2015  10:54:00       38.156       59.263       73.979       58.690       55.416       34.659     3444.535     3070.890     1201.236        0.908        0.386       70.484       28.977        0.169      338.903       11.873      868.651
01/19/2015  10:55:00       16.940       60.023       91.913       57.105       85.033       45.526     3260.950     7230.611     2072.587        1.245        0.628       62.368       43.710        0.491      339.046       12.110      868.624
01/19/2015  10:56:00      112.293      -71.332       32.808      109.146      104.985       64.653    11912.799    11021.827     4179.964        2.294        1.356      133.034       65.698        0.244      338.906       11.875      868.603
01/19/2015  10:57:00       68.940       34.356      102.755       78.515      119.453       86.460     6164.662    14268.963     7475.389        2.220        1.395       77.026       91.177        1.401      338.786       11.675      868.585
01/19/2015  10:58:00       37.706       13.201       43.646       51.877       81.630       59.063     2691.240     6663.499     3488.479        0.817        0.642       39.950       57.521        2.073      339.221       12.406      868.588
01/19/2015  10:59:00        2.465       32.098       81.699       38.735       86.269       54.356     1500.408     7442.398     2954.601        0.980        0.595       32.193       62.378        3.755      339.319       12.570      868.571
01/19/2015  11:00:00       73.820      -94.323       19.362       85.292      130.961       73.079     7274.724    17150.913     5340.476        2.224        1.488      119.776       78.690        0.432      339.053       12.121      868.548
01/19/2015  11:01:00       54.590       47.057       70.773       68.466      100.426       67.564     4687.648    10085.353     4564.928        1.477        0.967       72.072       72.011        0.998      338.906       11.876      868.558
01/19/2015  11:02:00       64.887       52.891       95.601       78.164      110.148       67.807     6109.680    12132.650     4597.801        1.949        1.142       83.712       73.764        0.776      338.950       11.949      868.551
01/19/2015  11:03:00       95.794       94.088       68.024       93.716       70.334       56.101     8782.764     4946.810     3147.329        1.976        0.844      134.272       55.880        0.173      338.990       12.016      868.548
01/19/2015  11:04:00      107.902      107.326       54.597       76.282       67.109       72.522     5818.999     4503.622     5259.507        2.086        0.779      152.190       19.001        0.016      338.793       11.685      868.552
01/19/2015  11:05:00      196.302      172.454       96.152       73.680       51.090       56.560     5428.699     2610.233     3199.007        4.438        0.562      261.294       45.664        0.031      338.554       11.281      868.541
01/19/2015  11:06:00      183.405      109.426       83.782       77.940       66.841       60.238     6074.680     4467.682     3628.643        3.340        0.709      213.568       43.398        0.041      338.488       11.172      868.536
01/19/2015  11:07:00       61.536       36.662        9.895       75.133       56.931       29.739     5644.911     3241.187      884.398        0.750        0.489       71.629       30.038        0.176      338.525       11.234      868.563
01/19/2015  11:08:00        6.819       -2.957       12.267       53.568       74.574       36.179     2869.484     5561.352     1308.940        0.497        0.487        7.433       22.088        8.831      338.599       11.359      868.543
01/19/2015  11:09:00       18.657       64.494       13.553       40.872       44.009       28.484     1670.494     1936.823      811.353        0.455        0.221       67.138       27.423        0.167      338.757       11.625      868.519
01/19/2015  11:10:00       38.464       59.898        1.662       48.735       38.400       35.046     2375.133     1474.529     1228.235        0.507        0.254       71.185       28.498        0.160      338.676       11.489      868.494
01/19/2015  11:11:00      158.637       78.847       23.490       54.042       48.580       38.913     2920.539     2360.061     1514.240        1.936        0.340      177.151       23.367        0.017      338.873       11.819      868.474
01/19/2015  11:12:00      169.023       72.806       43.979       81.838       73.807       45.159     6697.438     5447.411     2039.303        2.499        0.709      184.037       33.555        0.033      338.655       11.452      868.469
01/19/2015  11:13:00      113.321       73.837       22.165       80.839       60.422       43.823     6534.895     3650.788     1920.484        1.544        0.605      135.253       31.974        0.056      338.858       11.792      868.461
01/19/2015  11:14:00       84.510       69.726       14.453       47.175       39.016       35.576     2225.456     1522.258     1265.621        0.861        0.251      109.561       25.793        0.055      338.826       11.741      868.454
01/19/2015  11:15:00       31.042       43.323       16.376       55.112       53.752       32.648     3037.376     2889.252     1065.908        0.505        0.350       53.296       31.189        0.342      339.161       12.305      868.458
01/19/2015  11:16:00       13.643       46.279       58.654       40.642       65.827       47.689     1651.795     4333.138     2274.250        0.701        0.413       48.248       48.936        1.029      339.171       12.322      868.447
01/19/2015  11:17:00      -17.891       11.334       78.892       25.792       49.000       28.383      665.222     2401.041      805.583        0.527        0.194       21.179       25.350        1.433      339.370       12.658      868.433
01/19/2015  11:18:00       19.359        6.290       55.503       42.025       60.590       42.975     1766.122     3671.102     1846.890        0.539        0.364       20.356       40.972        4.051      339.311       12.558      868.428
01/19/2015  11:19:00       61.672      -42.109        7.215       43.835       53.648       31.455     1921.499     2878.115      989.432        0.571        0.289       74.677       20.382        0.074      339.045       12.112      868.427
01/19/2015  11:20:00        0.537       28.076       49.746       33.852       36.125       40.445     1145.944     1305.046     1635.771        0.367        0.204       28.081       16.515        0.346      339.316       12.565      868.397
01/19/2015  11:21:00       16.756       56.955       83.448       39.223       57.666       32.960     1538.482     3325.325     1086.377        0.822        0.298       59.369       30.435        0.263      339.112       12.223      868.372
01/19/2015  11:22:00       41.577       61.370       56.121       49.876       46.305       46.644     2487.660     2144.129     2175.628        0.772        0.340       74.128       36.591        0.244      338.937       11.929      868.359
01/19/2015  11:23:00       21.589       -8.975       12.145       21.585       36.729       22.973      465.921     1349.008      527.745        0.152        0.117       23.380       19.231        0.677      339.049       12.116      868.342
01/19/2015  11:24:00      -34.717       -5.948       38.237       25.691       49.212       34.843      660.043     2421.772     1214.001        0.350        0.215       35.223       38.343        1.185      339.236       12.431      868.316
01/19/2015  11:25:00        2.376        4.225       33.906       50.454       28.199       32.593     2545.631      795.168     1062.282        0.279        0.220        4.847       38.811       64.118      339.399       12.706      868.289
01/19/2015  11:26:00        3.576       12.842       55.695       33.014       47.230       31.502     1089.915     2230.714      992.391        0.380        0.216       13.331       34.069        6.531      339.413       12.730      868.284
01/19/2015  11:27:00       62.514      -20.844       -4.595       42.665       58.995       34.046     1820.305     3480.362     1159.101        0.541        0.323       65.898       26.079        0.157      339.081       12.170      868.258
01/19/2015  11:28:00      117.617       83.338        6.744       51.075       44.939       39.660     2608.699     2019.489     1572.882        1.351        0.310      144.149       28.112        0.038      338.856       11.791      868.236
01/19/2015  11:29:00       57.381       66.698       -1.212       77.272       48.090       43.883     5970.917     2312.655     1925.727        0.897        0.510       87.984       10.181        0.013      338.898       11.863      868.222
01/19/2015  11:30:00      107.773       56.826       20.367       77.952       59.070       53.229     6076.492     3489.301     2833.331        1.383        0.620      121.837       50.851        0.174      339.145       12.277      868.201
01/19/2015  11:31:00       51.521       10.706       59.562       66.338       60.347       43.751     4400.714     3641.776     1914.140        0.814        0.498       52.622       45.538        0.749      339.105       12.210      868.180
01/19/2015  11:32:00       77.231       55.124       70.672       62.915       55.047       46.718     3958.336     3030.185     2182.579        1.158        0.459       94.885       42.203        0.198      339.061       12.137      868.173
01/19/2015  11:33:00       47.077       63.347       56.385       36.083       43.855       33.455     1301.995     1923.228     1119.265        0.688        0.217       78.925       22.985        0.085      339.192       12.358      868.163
01/19/2015  11:34:00       41.158       58.701       77.382       70.613       55.539       47.639     4986.158     3084.605     2269.461        1.073        0.517       71.692       35.543        0.246      339.312       12.560      868.142
01/19/2015  11:35:00       38.577       35.219       66.152       48.392       67.905       52.640     2341.831     4611.153     2770.955        0.841        0.486       52.236       47.648        0.832      339.246       12.447      868.132
01/19/2015  11:36:00       55.443      -62.118       19.863       53.551       57.215       49.144     2867.696     3273.588     2415.108        0.794        0.428       83.262       37.543        0.203      339.312       12.560      868.114
01/19/2015  11:37:00       47.041      -51.177        9.019       42.533       52.195       44.812     1809.052     2724.350     2008.108        0.573        0.327       69.512       31.571        0.206      339.098       12.200      868.085
01/19/2015  11:38:00       56.405       58.990       88.632       53.817       67.863       41.277     2896.308     4605.433     1703.808        1.186        0.460       81.617       39.435        0.233      339.326       12.584      868.075
01/19/2015  11:39:00        6.471       -7.218       27.790       25.531       57.254       32.371      651.810     3277.973     1047.906        0.292        0.249        9.694       29.582        9.312      339.363       12.646      868.070
01/19/2015  11:40:00      -18.827      -40.353       16.176       28.392       44.533       29.362      806.114     1983.189      862.151        0.295        0.183       44.529       22.921        0.265      339.600       13.045      868.048
01/19/2015  11:41:00       27.266      -19.320       21.133       26.488       37.709       32.075      701.590     1421.999     1028.790        0.236        0.158       33.417       27.515        0.678      339.408       12.721      868.053
01/19/2015  11:42:00       31.205       39.794       75.072       59.816      101.156       50.994     3577.955    10232.581     2600.429        1.230        0.821       50.570       67.307        1.772      339.363       12.646      868.040
01/19/2015  11:43:00       69.582      135.472      103.120       77.005       66.042       77.697     5929.809     4361.493     6036.850        2.508        0.816      152.297       68.958        0.205      339.033       12.086      868.026
01/19/2015  11:44:00       88.777       89.333       92.840       44.618       67.230       41.095     1990.742     4519.839     1688.804        1.634        0.410      125.943       44.547        0.125      338.796       11.691      868.032
01/19/2015  11:45:00       62.882      -68.880       23.103       48.857       80.112       39.893     2387.054     6417.880     1591.478        0.981        0.520       93.266       42.695        0.210      338.888       11.845      868.031
01/19/2015  11:46:00       26.045     -130.609       -9.194       48.435       48.597       38.160     2345.967     2361.677     1456.199        1.199        0.308      133.181       17.375        0.017      339.032       12.087      867.992
01/19/2015  11:47:00       58.534     -114.235      -24.085       46.738       63.011       28.661     2184.459     3970.414      821.475        1.201        0.349      128.359       24.878        0.038      338.962       11.970      867.982
01/19/2015  11:48:00       20.510       -8.446       -3.786       35.262       45.358       29.945     1243.405     2057.373      896.684        0.235        0.210       22.181       29.447        1.762      339.196       12.362      867.973
01/19/2015  11:49:00       54.003       70.327       52.673      104.426       56.786       47.516    10904.814     3224.620     2257.759        1.351        0.819       88.669       60.777        0.470      339.492       12.862      867.948
01/19/2015  11:50:00      118.341      116.257       13.373       74.369       68.198       50.750     5530.745     4650.992     2575.597        2.023        0.638      165.893       29.021        0.031      338.985       12.007      867.932
01/19/2015  11:51:00       90.483       82.503        7.270       63.278       44.271       43.097     4004.161     1959.895     1857.353        1.143        0.391      122.449       28.882        0.056      339.010       12.052      867.919
01/19/2015  11:52:00      112.273       85.536       11.825       41.459       55.081       42.450     1718.869     3033.878     1801.981        1.331        0.328      141.144       34.624        0.060      339.065       12.142      867.896
01/19/2015  11:53:00       68.566       67.211       17.175       66.376       45.344       36.191     4405.823     2056.069     1309.803        0.864        0.389       96.013       35.058        0.133      339.213       12.392      867.865
01/19/2015  11:54:00      142.618       88.661      -11.710       66.125       44.989       36.517     4372.575     2024.015     1333.524        1.803        0.387      167.931        4.793        0.001      338.930       11.916      867.853
01/19/2015  11:55:00       14.533       61.466       -8.657       25.502       30.557       26.535      650.356      933.734      704.117        0.318        0.114       63.161       13.519        0.046      339.092       12.188      867.827
01/19/2015  11:56:00        2.226       96.422       -3.172       23.716       39.980       25.622      562.430     1598.432      656.488        0.606        0.141       96.448       24.348        0.064      339.110       12.219      867.786
01/19/2015  11:57:00        5.184       15.716        8.014       24.890       32.258       19.544      619.523     1040.553      381.979        0.119        0.102       16.549       17.177        1.077      339.547       12.955      867.762
01/19/2015  11:58:00       -3.189       23.559       48.885       35.183       39.926       53.746     1237.876     1594.109     2888.596        0.434        0.286       23.774       30.813        1.680      339.769       13.329      867.738
01/19/2015  11:59:00       66.901      -38.027       39.997       53.687      112.084       68.331     2882.303    12562.825     4669.153        1.381        1.006       76.953       86.495        1.263      339.052       12.121      867.721
01/19/2015  12:00:00       -1.594     -101.248      -13.286       27.882       40.395       23.017      777.418     1631.764      529.798        0.668        0.147      101.260       15.504        0.023      338.841       11.765      867.697
01/19/2015  12:01:00       54.846       17.874       27.680       58.413       49.164       28.472     3412.079     2417.062      810.628        0.537        0.332       57.685       25.560        0.196      339.347       12.617      867.677
01/19/2015  12:02:00       37.325      -26.333       36.563       59.057       90.214       39.427     3487.686     8138.641     1554.460        0.830        0.659       45.679       38.778        0.721      339.584       13.017      867.653
01/19/2015  12:03:00       91.719       73.265       44.296       59.683       33.837       41.012     3562.062     1144.919     1681.958        1.106        0.319      117.389       36.493        0.097      339.289       12.521      867.633
01/19/2015  12:04:00        5.074      -16.434       68.195       40.287       97.628       47.061     1623.062     9531.204     2214.701        0.916        0.668       17.200       56.890       10.940      339.648       13.124      867.609
01/19/2015  12:05:00      147.879       52.507       72.121      101.148       83.652       67.172    10230.966     6997.663     4512.013        2.578        1.087      156.924       58.967        0.141      339.309       12.553      867.592
01/19/2015  12:06:00      101.625       46.209       65.498       73.452       86.591       52.468     5395.133     7497.991     2752.865        1.620        0.782      111.638       45.294        0.165      339.278       12.500      867.578
01/19/2015  12:07:00       87.791      -47.476       53.538       63.737       61.688       49.784     4062.434     3805.461     2478.485        1.159        0.517       99.806       42.851        0.184      339.640       13.112      867.534
01/19/2015  12:08:00       83.537       54.206      109.825      106.072      101.796       72.745    11251.224    10362.346     5291.818        2.444        1.345       99.583       67.395        0.458      339.682       13.181      867.511
01/19/2015  12:09:00      102.425      -38.334       43.308       86.190      142.840       66.478     7428.648    20403.279     4419.285        2.304        1.613      109.364       82.459        0.569      339.292       12.524      867.502
01/19/2015  12:10:00       26.993       54.482       45.954       39.943       42.720       45.688     1595.436     1824.964     2087.391        0.566        0.275       60.802       32.323        0.283      339.634       13.102      867.499
01/19/2015  12:11:00       59.818       80.398       47.418       67.006       57.884       39.575     4489.774     3350.517     1566.210        1.085        0.470      100.210       25.815        0.066      339.851       13.466      867.477
01/19/2015  12:12:00       76.513       65.293       16.662       75.147       40.755       37.652     5647.121     1660.991     1417.658        0.956        0.436      100.585       26.749        0.071      339.337       12.601      867.465
01/19/2015  12:13:00       -6.878       33.970       13.486       21.959       33.196       24.441      482.183     1101.977      597.342        0.178        0.109       34.660       18.282        0.278      339.692       13.199      867.434
01/19/2015  12:14:00       30.090       22.754       27.459       64.750       33.085       31.820     4192.557     1094.622     1012.486        0.424        0.315       37.725       16.029        0.181      339.817       13.411      867.416
01/19/2015  12:15:00       17.560       58.631       65.014       35.841       43.552       31.050     1284.609     1896.809      964.090        0.606        0.207       61.204       22.644        0.137      339.732       13.267      867.396
01/19/2015  12:16:00       59.164      -67.653       13.771       48.756       58.108       47.301     2377.142     3376.573     2237.400        0.813        0.400       89.874       38.409        0.183      339.592       13.031      867.381
01/19/2015  12:17:00       63.294      -18.920       16.841       61.456       62.482       36.937     3776.821     3904.040     1364.347        0.684        0.452       66.061       33.554        0.258      339.335       12.596      867.370
01/19/2015  12:18:00      169.244      112.749       26.225       76.103       68.090       53.499     5791.694     4636.188     2862.140        2.766        0.665      203.361       39.259        0.037      339.410       12.721      867.355
01/19/2015  12:19:00      136.839      118.901       14.596       93.533       63.864       64.313     8748.444     4078.623     4136.207        2.502        0.848      181.280       40.700        0.050      339.404       12.710      867.320
01/19/2015  12:20:00      186.497       72.913       12.579      105.718       84.974       62.819    11176.348     7220.599     3946.245        3.130        1.117      200.244       40.210        0.040      339.580       13.008      867.308
01/19/2015  12:21:00       74.226       83.897       65.205       73.328       72.905       86.749     5377.011     5315.138     7525.411        1.751        0.911      112.018       64.469        0.331      339.890       13.532      867.316
01/19/2015  12:22:00      133.894      108.560      118.407       86.332       73.232       56.127     7453.165     5362.909     3150.284        2.985        0.798      172.374       47.919        0.077      339.394       12.694      867.320
01/19/2015  12:23:00      154.327      113.867       72.305       58.197       50.509       44.452     3386.848     2551.192     1975.955        2.496        0.396      191.787       32.843        0.029      339.360       12.636      867.299
01/19/2015  12:24:00       89.348       57.065       49.102       98.464       52.105       46.578     9695.232     2714.882     2169.525        1.411        0.729      106.017       49.099        0.214      339.605       13.053      867.295
01/19/2015  12:25:00       86.226       35.579       49.524       65.062       68.400       53.381     4233.094     4678.573     2849.479        1.146        0.588       93.279       48.435        0.270      339.669       13.161      867.281
01/19/2015  12:26:00       74.284       60.857       19.691       41.429       29.537       22.297     1716.380      872.422      497.135        0.635        0.154       96.029       11.678        0.015      339.356       12.635      867.260
01/19/2015  12:27:00       27.494       45.510       53.968       33.496       46.268       32.279     1121.999     2140.746     1041.946        0.502        0.215       53.170       28.514        0.288      339.946       13.628      867.232
01/19/2015  12:28:00       38.504      -43.950       48.484       43.799      121.488       45.292     1918.350    14759.254     2051.396        1.224        0.936       58.431       65.309        1.249      339.742       13.282      867.218
01/19/2015  12:29:00       45.943      -89.952       18.855       50.360       81.124       50.113     2536.158     6581.160     2511.280        1.109        0.581      101.006       46.655        0.213      339.779       13.345      867.209
01/19/2015  12:30:00      -24.266       17.681       36.490       37.112       46.541       19.793     1377.333     2166.029      391.775        0.308        0.197       30.024       14.126        0.221      340.273       14.180      867.208
01/19/2015  12:31:00       59.570       53.763       44.252       59.809       56.905       45.146     3577.154     3238.125     2038.135        0.862        0.443       80.244       30.828        0.148      339.891       13.535      867.192
01/19/2015  12:32:00       58.069       28.039       21.557       59.409       69.454       51.526     3529.426     4823.911     2654.929        0.781        0.550       64.484       29.801        0.214      339.838       13.445      867.168
01/19/2015  12:33:00       85.235       12.465       67.602       78.699       82.078       64.232     6193.575     6736.856     4125.756        1.452        0.853       86.142       64.576        0.562      340.022       13.755      867.164
01/19/2015  12:34:00       25.197      -14.021       39.502       48.904       80.165       52.184     2391.576     6426.493     2723.160        0.696        0.577       28.835       56.450        3.833      340.028       13.766      867.163
01/19/2015  12:35:00       46.915      -18.677       33.079       50.228       69.851       47.866     2522.900     4879.161     2291.195        0.667        0.485       50.496       56.473        1.251      339.789       13.364      867.152
01/19/2015  12:36:00       25.892       48.358      100.952       59.810       78.332       55.237     3577.287     6135.979     3051.157        1.298        0.638       54.854       46.235        0.710      339.991       13.703      867.125
01/19/2015  12:37:00      115.493     -113.367        6.144       64.739       80.021       64.380     4191.185     6403.339     4144.814        2.048        0.737      161.835       63.889        0.156      339.612       13.064      867.105
01/19/2015  12:38:00      103.476     -102.262      -25.250       49.628       70.902       42.487     2462.980     5027.147     1805.108        1.555        0.465      145.481       40.600        0.078      339.484       12.847      867.097
01/19/2015  12:39:00       35.969      -50.658        7.680       46.832       59.351       35.136     2193.216     3522.493     1234.547        0.543        0.348       62.129       36.212        0.340      339.826       13.426      867.066
01/19/2015  12:40:00      147.867     -129.409       21.509       78.260       71.156       51.850     6124.689     5063.152     2688.424        2.647        0.694      196.498       38.953        0.039      339.538       12.936      867.046
01/19/2015  12:41:00      154.393     -127.843       23.610       73.072       75.804       52.397     5339.513     5746.251     2745.402        2.728        0.692      200.452       43.661        0.047      339.586       13.019      867.015
01/19/2015  12:42:00      152.696     -123.889       13.717       61.203      113.378       63.812     3745.789    12854.523     4072.029        2.976        1.034      196.633       74.856        0.145      339.744       13.283      866.996
01/19/2015  12:43:00       71.032      -92.917       15.258       78.737       76.080       42.721     6199.461     5788.130     1825.096        1.386        0.691      116.958       34.004        0.085      339.819       13.413      866.978
01/19/2015  12:44:00       46.269      -33.177       42.633       57.441       93.940       61.988     3299.516     8824.660     3842.543        1.051        0.798       56.934       68.425        1.444      340.177       14.017      866.961
01/19/2015  12:45:00       23.183      -86.810       17.483       58.299       98.003       49.696     3398.744     9604.589     2469.709        1.192        0.774       89.852       30.150        0.113      340.145       13.962      866.939
01/19/2015  12:46:00      -15.029      -20.107       37.447       37.276       54.144       31.390     1389.466     2931.579      985.339        0.367        0.265       25.103       27.348        1.187      340.181       14.025      866.919
01/19/2015  12:47:00       77.003      -51.085       16.390       95.098      134.807       69.443     9043.694    18172.839     4822.277        2.042        1.602       92.407       77.817        0.709      340.031       13.770      866.892
01/19/2015  12:48:00      125.582     -185.507      -21.223       92.588      122.850       59.622     8572.625    15092.224     3554.784        3.892        1.361      224.017       60.297        0.072      339.742       13.282      866.871
01/19/2015  12:49:00      103.330      -65.706       39.666       57.741      126.670       78.349     3334.030    16045.275     6138.624        2.104        1.276      122.452       89.130        0.530      339.857       13.476      866.867
01/19/2015  12:50:00      132.886      -39.286       40.349       87.616      103.446       66.833     7676.632    10700.975     4466.610        2.183        1.142      138.572       66.608        0.231      339.936       13.608      866.853
01/19/2015  12:51:00      107.149       37.772       58.381       87.024       73.663       59.469     7573.160     5426.210     3536.598        1.642        0.827      113.612       47.429        0.174      339.769       13.327      866.842
01/19/2015  12:52:00       71.386       80.623      110.269       80.419       79.509       64.118     6467.146     6321.703     4111.092        2.032        0.845      107.685       60.860        0.319      339.954       13.641      866.804
01/19/2015  12:53:00       50.094       38.736       72.085       74.465       66.036       54.212     5545.073     4360.764     2938.977        1.102        0.642       63.324       48.741        0.592      339.958       13.647      866.781
01/19/2015  12:54:00       43.709       65.737      129.173       75.424      106.349       70.603     5688.844    11310.081     4984.829        2.245        1.099       78.942       65.111        0.680      340.015       13.742      866.746
01/19/2015  12:55:00       85.843      -47.000       57.460       71.338      154.542       92.025     5089.089    23883.336     8468.600        2.515        1.872       97.867      109.207        1.245      339.958       13.647      866.725
01/19/2015  12:56:00       74.205      -20.254       42.421       61.470      100.141       76.804     3778.598    10028.188     5898.860        1.371        0.985       76.920       78.883        1.052      339.903       13.555      866.711
01/19/2015  12:57:00       86.923      120.526      123.380      104.685       80.568       64.228    10958.869     6491.157     4125.174        2.944        1.079      148.600       57.238        0.148      339.919       13.580      866.699
01/19/2015  12:58:00      115.657      115.235      114.583       74.154       75.988       58.888     5498.793     5774.147     3467.765        2.726        0.737      163.265       44.456        0.074      339.633       13.098      866.700
01/19/2015  12:59:00       67.068       68.466       74.910       62.546       52.690       41.023     3912.051     2776.260     1682.848        1.158        0.419       95.842       41.061        0.184      339.795       13.373      866.698
01/19/2015  13:00:00       61.091      107.166       89.017       64.960       51.863       64.094     4219.808     2689.751     4108.079        1.708        0.551      123.355       60.576        0.241      339.745       13.288      866.677
01/19/2015  13:01:00       75.883       65.541       51.446       53.238       55.646       47.060     2834.322     3096.502     2214.665        1.042        0.407      100.269       22.268        0.049      339.850       13.467      866.666
01/19/2015  13:02:00       44.758      -60.236       21.240       61.675      105.861       47.105     3803.860    11206.535     2218.901        1.165        0.861       75.044       64.128        0.730      339.914       13.573      866.637
01/19/2015  13:03:00       41.008      -93.852       -9.505       48.909       73.662       37.902     2392.059     5426.124     1436.569        0.992        0.463      102.420       40.382        0.155      340.100       13.886      866.618
01/19/2015  13:04:00       85.127      -94.308      -12.988       48.066       55.346       39.166     2310.373     3063.179     1533.943        1.161        0.345      127.046       36.715        0.084      339.903       13.556      866.599
01/19/2015  13:05:00       64.367     -159.243      -21.969       58.063       67.368       31.035     3371.355     4538.493      963.144        1.943        0.444      171.760       21.635        0.016      339.770       13.331      866.582
01/19/2015  13:06:00       32.290       23.003       64.388       66.251       80.001       47.452     4389.223     6400.182     2251.649        0.938        0.652       39.646       61.170        2.381      340.190       14.040      866.571
01/19/2015  13:07:00       40.511       31.526       53.589       94.291      119.073       79.565     8890.835    14178.456     6330.627        1.745        1.470       51.332       82.889        2.607      340.129       13.935      866.543
01/19/2015  13:08:00      -13.502        8.709       46.622       41.880       51.792       31.038     1753.920     2682.442      963.346        0.391        0.270       16.067       19.305        1.444      340.577       14.694      866.537
01/19/2015  13:09:00       61.662      -42.138       25.889       66.665       70.452       42.189     4444.196     4963.442     1779.926        0.872        0.559       74.685       45.674        0.374      340.243       14.128      866.525
01/19/2015  13:10:00       78.711       95.697       82.353       98.799       58.386       61.769     9761.166     3408.892     3815.436        1.956        0.849      123.909       41.021        0.110      340.209       14.068      866.493
01/19/2015  13:11:00      120.958      131.938       90.691       81.282       44.983       47.555     6606.731     2023.448     2261.495        2.558        0.545      178.993       40.203        0.050      339.761       13.314      866.478
01/19/2015  13:12:00       12.620      -13.005       43.230       36.323       53.959       37.501     1319.387     2911.591     1406.352        0.392        0.282       18.121       27.518        2.306      340.326       14.269      866.454
01/19/2015  13:13:00       42.362       39.387       56.649       69.369       52.797       54.185     4812.126     2787.537     2935.974        0.854        0.527       57.843       38.109        0.434      340.395       14.385      866.437
01/19/2015  13:14:00       58.993      -26.041        6.359       72.877       57.377       35.166     5311.059     3292.096     1236.631        0.702        0.492       64.485       23.519        0.133      340.175       14.014      866.437
01/19/2015  13:15:00       55.562      -66.184       14.299       51.631       62.106       44.878     2665.740     3857.135     2014.028        0.810        0.427       86.415       31.726        0.135      340.064       13.826      866.416
01/19/2015  13:16:00       88.435      -45.025       48.419       77.778      108.042       77.937     6049.350    11672.975     6074.163        1.799        1.190       99.237       78.704        0.629      340.204       14.063      866.384
01/19/2015  13:17:00      124.618     -174.890       -6.657       91.787      111.212       48.946     8424.896    12368.040     2395.716        3.467        1.159      214.747       67.172        0.098      339.805       13.386      866.349
01/19/2015  13:18:00       18.126      -27.279       39.149       40.161       67.860       41.858     1612.921     4604.998     1752.072        0.529        0.398       32.752       33.687        1.058      340.243       14.130      866.349
01/19/2015  13:19:00       92.221      -80.472       20.853       79.172       77.619       51.520     6268.228     6024.638     2654.295        1.518        0.747      122.394       50.326        0.169      340.025       13.761      866.347
01/19/2015  13:20:00      105.787      -62.842       46.318       81.355      157.599       73.484     6618.623    24837.391     5399.956        2.706        1.843      123.045       98.979        0.647      340.006       13.726      866.336
01/19/2015  13:21:00       40.163       34.940       38.512       47.107       39.250       36.376     2219.060     1540.584     1323.206        0.470        0.254       53.234       23.292        0.191      340.368       14.340      866.338
01/19/2015  13:22:00       64.602       55.416        1.478       36.949       25.041       28.489     1365.224      627.056      811.602        0.502        0.140       85.114       13.191        0.024      340.103       13.894      866.330
01/19/2015  13:23:00       50.518       51.600        7.416       50.383       32.220       24.514     2538.403     1038.122      600.936        0.472        0.209       72.213       17.572        0.059      340.232       14.109      866.302
01/19/2015  13:24:00      135.733       71.800       44.842      100.315       54.199       59.115    10063.053     2937.557     3494.535        2.104        0.825      153.554       39.815        0.067      340.039       13.783      866.292
01/19/2015  13:25:00      107.151       98.361       13.003       98.087       72.584       59.967     9621.061     5268.480     3596.086        1.990        0.924      145.452       39.225        0.073      340.010       13.734      866.264
01/19/2015  13:26:00      121.820       79.565       68.708      100.270       90.382       63.094    10054.069     8168.912     3980.909        2.404        1.110      145.501       64.893        0.199      340.219       14.084      866.247
01/19/2015  13:27:00      144.393       73.318       37.006       87.420       56.518       54.724     7642.208     3194.319     2994.686        2.071        0.692      161.940       46.356        0.082      340.297       14.218      866.241
01/19/2015  13:28:00      149.181       86.932       31.548       48.783       34.662       34.631     2379.774     1201.452     1199.290        1.779        0.239      172.662       23.639        0.019      339.885       13.523      866.249
01/19/2015  13:29:00       54.127       59.175       55.764       41.890       53.864       42.707     1754.779     2901.331     1823.887        0.801        0.324       80.197       43.907        0.300      339.974       13.675      866.234
01/19/2015  13:30:00       18.869       13.896       16.076       29.255       45.270       21.716      855.884     2049.385      471.588        0.209        0.169       23.434        6.397        0.075      340.197       14.052      866.217
01/19/2015  13:31:00       39.800       43.005        6.673       35.938       39.162       20.416     1291.557     1533.657      416.824        0.336        0.162       58.596       14.183        0.059      340.065       13.828      866.190
01/19/2015  13:32:00        6.939        2.604       -7.977       14.628       13.267       11.244      213.975      176.023      126.431        0.032        0.026        7.412        8.987        1.470      340.204       14.063      866.178
01/19/2015  13:33:00       14.937      -11.657       11.693       26.637       22.526       21.947      709.554      507.433      481.657        0.110        0.085       18.947       17.999        0.902      340.664       14.840      866.177
01/19/2015  13:34:00       67.275      -65.826        4.760       61.878       85.369       47.139     3828.866     7287.877     2222.081        1.111        0.667       94.122       51.449        0.299      340.353       14.314      866.162
01/19/2015  13:35:00      130.422     -146.553      -28.869       74.414       78.635       46.716     5537.436     6183.499     2182.393        2.661        0.695      196.182       47.308        0.058      339.946       13.626      866.145
01/19/2015  13:36:00       42.912      -95.698        9.912       45.147       69.051       46.460     2038.268     4768.029     2158.546        1.003        0.448      104.879       48.295        0.212      340.220       14.091      866.141
01/19/2015  13:37:00       86.125     -152.046       -5.535       80.188      103.414       53.221     6430.087    10694.527     2832.427        2.526        0.998      174.744       31.626        0.033      340.231       14.106      866.119
01/19/2015  13:38:00       62.438       -9.796       50.790       59.995       75.082       45.981     3599.450     5637.280     2114.231        0.896        0.568       63.202       40.637        0.413      340.583       14.704      866.127
01/19/2015  13:39:00        3.855       52.449       70.865       37.833       68.290       32.817     1431.350     4663.492     1076.953        0.748        0.359       52.591       26.690        0.258      340.499       14.562      866.142
01/19/2015  13:40:00       61.571       69.449       44.458       36.475       37.182       36.814     1330.438     1382.490     1355.268        0.733        0.203       92.812       20.873        0.051      340.285       14.199      866.140
01/19/2015  13:41:00       61.066       35.346       23.111       59.622       34.837       39.551     3554.757     1213.583     1564.290        0.592        0.317       70.558       24.764        0.123      340.408       14.408      866.127
01/19/2015  13:42:00       93.487       28.347       10.354       45.975       52.027       29.652     2113.698     2706.762      879.248        0.767        0.285       97.690       16.945        0.030      340.364       14.334      866.114
01/19/2015  13:43:00      151.141       80.214        0.773       55.364       69.771       39.795     3065.223     4867.967     1583.635        1.940        0.476      171.108       23.862        0.019      340.184       14.027      866.104
01/19/2015  13:44:00       79.742       71.891        5.940       52.867       34.125       27.156     2794.969     1164.542      737.443        0.813        0.235      107.365       23.990        0.050      340.175       14.014      866.104
01/19/2015  13:45:00       66.778       85.126       -2.645       71.411       40.366       36.352     5099.478     1629.421     1321.445        0.988        0.403      108.193       27.710        0.066      340.114       13.911      866.096
01/19/2015  13:46:00      109.459       90.527       16.113       62.753       42.403       39.939     3937.967     1798.038     1595.128        1.388        0.367      142.044       14.547        0.010      340.084       13.860      866.084
01/19/2015  13:47:00       41.275       68.116       71.568       64.752       65.504       68.296     4192.878     4290.759     4664.341        1.230        0.657       79.645       59.796        0.564      340.281       14.193      866.069
01/19/2015  13:48:00       48.791       85.742       95.521       34.748       40.947       25.198     1207.418     1676.648      634.930        1.119        0.176       98.652       23.790        0.058      340.071       13.839      866.075
01/19/2015  13:49:00       92.657       -1.874       30.993       65.311       82.799       48.837     4265.575     6855.633     2385.086        1.153        0.675       92.676       39.940        0.186      340.038       13.784      866.067
01/19/2015  13:50:00       45.472       54.683       76.381       36.963       38.273       28.117     1366.259     1464.844      790.544        0.726        0.181       71.119       25.016        0.124      340.191       14.041      866.053
01/19/2015  13:51:00       35.410       38.952       40.895       26.888       25.389       16.442      722.963      644.586      270.334        0.304        0.082       52.642       16.058        0.093      340.150       13.972      866.047
01/19/2015  13:52:00       21.627        2.139       16.799       16.072       21.797       13.648      258.317      475.123      186.271        0.084        0.046       21.732       10.651        0.240      340.307       14.237      866.033
01/19/2015  13:53:00       10.599       11.935       14.109       16.201       33.183       13.564      262.469     1101.116      183.990        0.100        0.077       15.962       14.088        0.779      340.469       14.510      866.019
01/19/2015  13:54:00        7.493       43.888        5.720       32.101       25.232       20.495     1030.500      636.654      420.048        0.205        0.104       44.523       16.923        0.144      340.336       14.286      865.997
01/19/2015  13:55:00       29.022       27.374       -0.463       32.619       21.080       16.574     1063.996      444.383      274.688        0.169        0.089       39.895       13.108        0.108      340.315       14.250      865.983
01/19/2015  13:56:00        3.302        9.195        5.890       20.142       25.557       14.911      405.714      653.176      222.350        0.071        0.064        9.770       11.251        1.326      340.718       14.932      865.985
01/19/2015  13:57:00       18.094       21.549        5.647       19.778       19.849       11.231      391.189      393.974      126.127        0.087        0.046       28.138        5.668        0.041      340.661       14.835      865.974
01/19/2015  13:58:00       52.666       16.848       12.776       51.923       54.048       37.299     2696.031     2921.141     1391.188        0.511        0.350       55.295       31.421        0.323      340.512       14.582      865.961
01/19/2015  13:59:00      100.661       71.687       40.354       49.642       35.290       49.710     2464.304     1245.390     2471.106        1.154        0.309      123.579       25.740        0.043      340.113       13.910      865.953
01/19/2015  14:00:00       69.332       89.636       69.950       73.124       48.279       58.787     5347.080     2330.847     3455.868        1.443        0.557      113.320       50.562        0.199      340.351       14.311      865.955
01/19/2015  14:01:00       83.279       29.104       10.489       41.436       56.143       31.968     1716.903     3152.017     1021.953        0.689        0.295       88.219       21.528        0.060      340.407       14.407      865.952
01/19/2015  14:02:00       97.115       14.936       64.624      102.775       79.725       53.847    10562.725     6356.080     2899.539        1.682        0.991       98.257       66.407        0.457      340.357       14.320      865.934
01/19/2015  14:03:00       68.384      -27.986       28.003       86.513       81.395       62.313     7484.426     6625.122     3882.856        1.212        0.900       73.889       68.456        0.858      340.602       14.736      865.918
01/19/2015  14:04:00       28.666       20.720       69.419       55.186       85.604       50.640     3045.494     7328.003     2564.432        0.950        0.647       35.371       57.339        2.628      340.491       14.548      865.925
01/19/2015  14:05:00       26.204       41.055       13.288       24.600       28.254       30.288      605.176      798.285      917.346        0.243        0.116       48.705       13.571        0.078      340.422       14.432      865.924
01/19/2015  14:06:00       16.788       23.488       53.013       40.988       51.024       32.350     1680.000     2603.401     1046.523        0.449        0.266       28.871       30.677        1.129      340.786       15.047      865.911
01/19/2015  14:07:00       50.754      -16.958       70.837       61.615      115.745       60.904     3796.375    13396.831     3709.243        1.439        1.045       53.512       71.513        1.786      340.747       14.979      865.897
01/19/2015  14:08:00      102.083       -8.795       20.719       87.527       87.104       72.754     7660.924     7587.138     5293.107        1.573        1.027      102.461       66.952        0.427      340.286       14.200      865.924
01/19/2015  14:09:00      121.910     -188.722      -40.435       66.055       78.281       41.476     4363.253     6127.921     1720.280        3.216        0.611      224.673       39.461        0.031      340.222       14.090      865.899
01/19/2015  14:10:00       72.492     -122.034      -13.108       64.930       51.084       20.853     4215.909     2609.526      434.859        1.379        0.363      141.942       17.074        0.014      340.091       13.871      865.905
01/19/2015  14:11:00       85.752     -150.387      -27.829       58.417       78.272       45.381     3412.551     6126.544     2059.447        2.117        0.580      173.118       31.968        0.034      340.473       14.516      865.895
01/19/2015  14:12:00      108.028     -110.082      -20.232       44.404       39.991       24.335     1971.690     1599.272      592.190        1.418        0.208      154.235       18.913        0.015      340.267       14.172      865.895
01/19/2015  14:13:00       76.804      -50.552       -1.778       41.331       47.223       17.401     1708.225     2229.984      302.791        0.635        0.212       91.948       25.015        0.074      340.247       14.135      865.895
01/19/2015  14:14:00       16.740       23.418       46.181       32.249       38.650       40.494     1039.969     1493.827     1639.755        0.357        0.209       28.786       38.350        1.775      340.661       14.837      865.882
01/19/2015  14:15:00       -9.316       30.668       41.852       23.171       44.641       33.859      536.901     1992.849     1146.452        0.323        0.184       32.052       32.654        1.038      340.924       15.282      865.884
01/19/2015  14:16:00       21.013        7.944        6.912       28.473       34.882       25.310      810.732     1216.770      640.578        0.161        0.133       22.465       13.840        0.380      340.858       15.168      865.873
01/19/2015  14:17:00       20.215      -36.979       24.028       33.981       54.044       32.788     1154.698     2920.804     1075.034        0.375        0.258       42.143       21.190        0.253      340.977       15.369      865.856
01/19/2015  14:18:00       81.313      -17.225       35.368       72.027       82.223       53.735     5187.925     6760.561     2887.488        1.150        0.742       83.117       44.715        0.289      340.641       14.802      865.848
01/19/2015  14:19:00       23.635       20.239       33.238       38.072       61.340       31.565     1449.453     3762.571      996.338        0.414        0.310       31.117       34.162        1.205      340.550       14.648      865.848
01/19/2015  14:20:00       59.822     -108.463        9.657       52.543       66.979       48.658     2760.734     4486.236     2367.588        1.252        0.481      123.866       36.083        0.085      340.615       14.756      865.845
01/19/2015  14:21:00       89.136      -27.369       -5.332       25.149       27.201       27.413      632.470      739.871      751.445        0.542        0.106       93.243       18.142        0.038      340.380       14.361      865.849
01/19/2015  14:22:00       21.337       27.177       27.295       47.594       34.509       30.643     2265.234     1190.888      939.015        0.317        0.220       34.552       27.688        0.642      340.829       15.119      865.839
01/19/2015  14:23:00       43.481       55.001       11.597       26.606       35.448       29.613      707.868     1256.595      876.904        0.395        0.142       70.112       12.010        0.029      340.586       14.709      865.834
01/19/2015  14:24:00       69.814       62.470       10.628       62.814       54.603       36.411     3945.652     2981.475     1325.767        0.857        0.413       93.683       25.170        0.072      340.721       14.936      865.835
01/19/2015  14:25:00      118.358       97.067        1.533       72.675       61.860       58.233     5281.725     3826.604     3391.082        1.796        0.625      153.070       45.186        0.087      340.392       14.379      865.830
01/19/2015  14:26:00      184.321      114.351       24.112       73.545       54.645       48.750     5408.890     2986.027     2376.571        2.920        0.539      216.911       32.033        0.022      340.392       14.378      865.833
01/19/2015  14:27:00      129.356       89.548       22.240       58.849       49.807       36.088     3463.219     2480.713     1302.374        1.625        0.362      157.327       23.060        0.021      340.350       14.309      865.840
01/19/2015  14:28:00      102.236      107.554       10.137       67.369       47.792       45.051     4538.626     2284.030     2029.567        1.549        0.443      148.392        8.509        0.003      340.328       14.274      865.826
01/19/2015  14:29:00      120.650       63.543       20.827       48.022       45.711       37.950     2306.134     2089.525     1440.229        1.243        0.292      136.360       26.108        0.037      340.426       14.438      865.829
01/19/2015  14:30:00      111.994       40.724       22.719       78.465       38.129       33.947     6156.756     1453.786     1152.370        1.174        0.438      119.169       35.365        0.088      340.721       14.936      865.827
01/19/2015  14:31:00       62.364       54.731        9.540       61.374       62.763       45.292     3766.708     3939.157     2051.384        0.836        0.488       82.975       43.277        0.272      340.629       14.782      865.834
01/19/2015  14:32:00        1.109       49.834        2.372       37.941       41.888       20.342     1439.490     1754.566      413.801        0.305        0.180       49.847       17.630        0.125      340.365       14.336      865.847
01/19/2015  14:33:00        2.770      -12.968       -8.754       13.536       16.065        7.014      183.217      258.094       49.201        0.037        0.025       13.260        4.705        0.126      340.500       14.563      865.845
01/19/2015  14:34:00       -8.872      -22.885      -15.688       20.380       19.108       17.772      415.343      365.135      315.841        0.097        0.055       24.545       10.769        0.192      340.504       14.571      865.820
01/19/2015  14:35:00       21.390        2.653       28.468       31.251       17.133       21.503      976.638      293.542      462.375        0.150        0.087       21.554       15.758        0.535      340.744       14.976      865.804
01/19/2015  14:36:00      -11.832      -13.287        7.573       24.234       18.089       21.671      587.296      327.199      469.633        0.088        0.069       17.791       16.868        0.899      340.869       15.187      865.795
01/19/2015  14:37:00      -23.311       -8.651        6.390       40.091       35.179       22.558     1607.326     1237.542      508.854        0.201        0.168       24.865       15.113        0.369      340.943       15.312      865.786
01/19/2015  14:38:00       -0.572      -20.430        7.226       29.169       26.824       22.746      850.851      719.503      517.389        0.128        0.104       20.438       20.082        0.965      341.080       15.545      865.776
01/19/2015  14:39:00        8.105        7.439       20.475       12.325       17.125       11.786      151.917      293.277      138.917        0.056        0.029       11.001        9.045        0.676      340.940       15.308      865.768
01/19/2015  14:40:00       46.904      -27.233       17.064       55.655       41.633       32.883     3097.455     1733.336     1081.272        0.457        0.296       54.236       36.790        0.460      340.957       15.336      865.759
01/19/2015  14:41:00       59.594      -69.503       11.006       38.238       75.894       36.586     1462.137     5759.835     1338.517        0.853        0.428       91.554       44.240        0.234      340.758       15.000      865.766
01/19/2015  14:42:00       68.047      -22.332       26.901       55.499       61.162       39.840     3080.174     3740.818     1587.216        0.713        0.420       71.618       24.476        0.117      340.821       15.105      865.759
01/19/2015  14:43:00       35.613       44.640       50.584       65.928       49.159       40.774     4346.476     2416.635     1662.510        0.712        0.421       57.106       17.032        0.089      340.893       15.228      865.769
01/19/2015  14:44:00       62.288       83.272       26.166       63.908       39.131       41.262     4084.257     1531.207     1702.549        0.941        0.366      103.990       12.900        0.015      340.707       14.914      865.780
01/19/2015  14:45:00      -36.016      101.192       -1.019       77.254       51.590       44.101     5968.123     2661.545     1944.928        1.105        0.529      107.410       27.011        0.063      340.810       15.088      865.776
01/19/2015  14:46:00      -85.276      121.339      -29.011       56.252       43.456       27.758     3164.308     1888.418      770.510        1.433        0.291      148.308       12.467        0.007      340.495       14.553      865.771
01/19/2015  14:47:00       20.227       15.851        2.218       22.937       22.538       21.776      526.097      507.957      474.210        0.109        0.075       25.699        8.926        0.121      340.606       14.741      865.773
01/19/2015  14:48:00       34.719        1.459        1.942       20.207       18.790       14.879      408.321      353.067      221.375        0.110        0.049       34.750       11.171        0.103      340.633       14.788      865.769
01/19/2015  14:49:00       -8.291      -14.184        8.882       21.792       31.459       22.129      474.881      989.640      489.673        0.115        0.098       16.429       11.137        0.459      341.169       15.695      865.757
01/19/2015  14:50:00        6.389       21.840       61.018       30.154       56.656       33.976      909.280     3209.940     1154.354        0.476        0.264       22.755       38.249        2.825      340.858       15.170      865.745
01/19/2015  14:51:00       73.706       53.192       14.220       43.221       21.938       27.535     1868.093      481.257      758.202        0.579        0.155       90.895       21.044        0.054      340.563       14.670      865.753
01/19/2015  14:52:00       57.399       26.885      -16.756       13.596       58.150       27.907      184.840     3381.404      778.805        0.432        0.217       63.383       28.861        0.207      340.416       14.422      865.762
01/19/2015  14:53:00        1.890       26.135        5.689       24.774       32.937       15.758      613.748     1084.845      248.325        0.133        0.097       26.203       18.815        0.516      340.631       14.785      865.750
01/19/2015  14:54:00      -30.432       38.455        6.689       23.163       29.176       17.386      536.534      851.265      302.262        0.207        0.085       49.040       16.992        0.120      340.814       15.095      865.734
01/19/2015  14:55:00      -24.712       20.543        8.089       30.150       18.459       15.220      909.029      340.728      231.650        0.129        0.074       32.136       10.537        0.108      340.838       15.135      865.720
01/19/2015  14:56:00        6.823      -23.051        2.094       19.072       22.703       19.928      363.738      515.435      397.107        0.093        0.064       24.040        8.507        0.125      340.970       15.358      865.721
01/19/2015  14:57:00       -3.888      -13.401       39.340       26.740       75.701       37.235      715.034     5730.703     1386.433        0.479        0.392       13.953       46.643       11.174      340.909       15.254      865.716
01/19/2015  14:58:00       -6.410       17.857       59.229       25.856       31.574       26.152      668.515      996.932      683.914        0.311        0.117       18.973       20.917        1.216      341.019       15.440      865.708
01/19/2015  14:59:00       24.905      -34.931       15.752       21.692       60.686       37.280      470.558     3682.768     1389.774        0.381        0.277       42.900       43.737        1.039      340.835       15.130      865.712
01/19/2015  15:00:00      -11.156      -32.647       16.370       16.147       22.720       25.391      260.727      516.200      644.725        0.144        0.071       34.500       16.240        0.222      341.104       15.585      865.698
01/19/2015  15:01:00        3.560       40.936       40.164       29.246       26.194       22.004      855.330      686.116      484.173        0.266        0.101       41.091       13.343        0.105      340.935       15.300      865.690
01/19/2015  15:02:00       80.907       79.839       56.853      103.924       49.200       48.582    10800.246     2420.664     2360.247        1.586        0.779      113.667       50.863        0.200      340.839       15.135      865.702
01/19/2015  15:03:00       67.064      103.943        5.993       86.498       59.374       47.157     7481.851     3525.295     2223.797        1.428        0.662      123.700       39.363        0.101      340.838       15.135      865.702
01/19/2015  15:04:00      103.498      119.612        5.968       61.923       66.270       58.765     3834.507     4391.777     3453.309        1.837        0.584      158.174       49.968        0.100      340.597       14.726      865.696
01/19/2015  15:05:00      122.954      105.219       12.247       67.962       59.692       52.795     4618.895     3563.192     2787.297        1.865        0.548      161.830       44.463        0.075      340.522       14.599      865.691
01/19/2015  15:06:00      181.994      130.593       13.957       61.073       36.503       33.852     3729.963     1332.462     1145.952        2.829        0.310      224.000       24.452        0.012      340.471       14.509      865.681
01/19/2015  15:07:00       63.600       83.740       -8.022       66.505       54.858       37.148     4422.935     3009.394     1379.968        0.997        0.441      105.154       14.907        0.020      340.545       14.639      865.678
01/19/2015  15:08:00       88.698       63.346        0.868       55.413       42.376       37.519     3070.627     1795.708     1407.683        0.908        0.314      108.996       21.596        0.039      340.556       14.658      865.674
01/19/2015  15:09:00       76.584       10.529       -3.947       43.181       48.067       25.509     1864.590     2310.393      650.691        0.541        0.241       77.304       22.105        0.082      340.520       14.596      865.683
01/19/2015  15:10:00       53.667       37.264       14.571       47.230       52.424       41.312     2230.702     2748.250     1706.706        0.558        0.334       65.336       12.358        0.036      340.635       14.792      865.684
01/19/2015  15:11:00       97.025       80.436        5.265       32.628       32.811       25.185     1064.612     1076.545      634.297        0.934        0.139      126.031       16.708        0.018      340.485       14.538      865.692
01/19/2015  15:12:00       35.563       79.499       -4.141       33.534       34.124       25.275     1124.520     1164.447      638.847        0.526        0.146       87.091       25.197        0.084      340.544       14.637      865.686
01/19/2015  15:13:00       14.627      112.785      -22.379       24.833       33.646       13.761      616.698     1132.080      189.357        0.769        0.097      113.730        7.707        0.005      340.666       14.844      865.689
01/19/2015  15:14:00      -12.602       81.198      -14.667       35.592       28.974       15.335     1266.821      839.517      235.172        0.465        0.117       82.170        9.050        0.012      340.703       14.906      865.686
01/19/2015  15:15:00       33.311       49.734       12.002       57.888       37.617       39.649     3351.041     1415.039     1572.023        0.503        0.317       59.859       30.527        0.260      340.750       14.985      865.698
01/19/2015  15:16:00       44.214       24.143       18.425       67.491       32.559       29.870     4555.080     1060.111      892.201        0.469        0.325       50.376       28.662        0.324      340.692       14.888      865.691
01/19/2015  15:17:00       40.683      129.728      -18.678       36.642       52.362       26.632     1342.637     2741.756      709.259        1.181        0.240      135.958       24.447        0.032      340.612       14.751      865.688
01/19/2015  15:18:00       33.102       57.624       -5.273       24.893       37.292       22.604      619.680     1390.717      510.950        0.348        0.126       66.455       23.068        0.120      340.590       14.716      865.690
01/19/2015  15:19:00        3.902      109.541      -28.635       22.454       37.080       18.422      504.170     1374.903      339.368        0.753        0.111      109.610       13.416        0.015      340.539       14.630      865.683
01/19/2015  15:20:00       75.231       81.274      -21.819       43.026       61.604       25.824     1851.265     3794.996      666.894        0.953        0.316      110.748       14.688        0.018      340.584       14.705      865.674
01/19/2015  15:21:00       29.082      -15.536      -12.926       30.404       22.613       15.320      924.375      511.348      234.693        0.146        0.084       32.972        7.275        0.049      340.721       14.936      865.665
01/19/2015  15:22:00       15.176       56.962        5.331       19.373       39.840       26.217      375.330     1587.187      687.322        0.308        0.132       58.949       20.198        0.117      340.822       15.108      865.658
01/19/2015  15:23:00      114.349      117.105       12.202       73.398       54.010       52.206     5387.219     2917.082     2725.475        1.898        0.551      163.675       44.100        0.073      340.638       14.796      865.653
01/19/2015  15:24:00       90.331       30.686        3.595       56.238       34.647       22.734     3162.664     1200.393      516.827        0.700        0.244       95.401       19.389        0.041      340.555       14.655      865.657
01/19/2015  15:25:00      105.093       45.477       20.118       54.709       35.357       32.493     2993.041     1250.101     1055.782        0.941        0.265      114.511       29.496        0.066      340.578       14.695      865.648
01/19/2015  15:26:00       93.133       54.172       39.749       64.148       49.065       52.908     4114.956     2407.409     2799.227        1.125        0.466      107.742       44.562        0.171      340.662       14.837      865.647
01/19/2015  15:27:00      110.570       65.236       28.519       46.337       40.738       41.059     2147.122     1659.602     1685.865        1.139        0.275      128.380       30.424        0.056      340.596       14.724      865.644
01/19/2015  15:28:00       52.495       38.553        3.879       38.512       27.929       24.555     1483.157      780.007      602.925        0.356        0.143       65.131       18.113        0.077      340.625       14.774      865.633
01/19/2015  15:29:00      117.343       62.633        6.584       44.009       30.741       29.669     1936.806      944.981      880.248        1.075        0.188      133.013       23.129        0.030      340.543       14.636      865.634
01/19/2015  15:30:00      124.717       60.460        0.832       46.631       37.713       33.971     2174.457     1422.238     1154.049        1.198        0.238      138.599       24.083        0.030      340.521       14.600      865.633
01/19/2015  15:31:00       79.380       61.766        7.174       31.205       23.310       22.683      973.732      543.374      514.498        0.610        0.102      100.579       13.260        0.017      340.684       14.874      865.630
01/19/2015  15:32:00       54.206       44.990        8.447       34.842       23.588       29.061     1213.965      556.371      844.560        0.382        0.131       70.444       15.643        0.049      340.726       14.947      865.628
01/19/2015  15:33:00       19.453       94.366      -10.393       25.067       39.611       23.001      628.365     1569.038      529.050        0.606        0.136       96.350       17.233        0.032      340.693       14.889      865.620
01/19/2015  15:34:00       21.448       86.110      -21.508       21.659       46.020       17.186      469.102     2117.850      295.351        0.561        0.144       88.741       14.800        0.028      340.593       14.718      865.623
01/19/2015  15:35:00        9.417       74.570      -12.000       22.836       34.900       16.432      521.479     1218.015      270.003        0.390        0.100       75.163       13.927        0.034      340.602       14.736      865.617
01/19/2015  15:36:00       15.976       63.802       -3.628       30.651       34.741       22.573      939.497     1206.937      509.547        0.350        0.133       65.772       22.701        0.119      340.668       14.847      865.621
01/19/2015  15:37:00       23.254       26.306        5.297       23.766       14.862       17.248      564.828      220.883      297.491        0.117        0.054       35.111        9.542        0.074      340.651       14.818      865.619
01/19/2015  15:38:00      -19.879       67.356       -8.374       31.821       51.560       21.447     1012.584     2658.465      459.981        0.457        0.207       70.228       27.127        0.149      340.661       14.836      865.628
01/19/2015  15:39:00      -59.143       63.497       -4.468       42.803       83.906       33.574     1832.136     7040.274     1127.211        0.877        0.500       86.774       19.545        0.051      340.828       15.119      865.613
01/19/2015  15:40:00     -135.286      -19.930      -21.796       66.235       59.759       32.414     4387.138     3571.174     1050.665        1.409        0.450      136.746       34.284        0.063      340.811       15.089      865.603
01/19/2015  15:41:00      -64.626       41.823      -15.471       40.030       31.989       23.861     1602.407     1023.288      569.366        0.468        0.160       76.979       24.776        0.104      340.780       15.037      865.608
01/19/2015  15:42:00      -94.633      143.214      -18.227       58.197       66.886       35.274     3386.907     4473.796     1244.275        1.945        0.455      171.656       34.483        0.040      340.732       14.954      865.614
01/19/2015  15:43:00     -129.250       78.343      -27.585       56.110       49.864       33.543     3148.302     2486.378     1125.145        1.518        0.338      151.139       31.052        0.042      340.747       14.978      865.619
01/19/2015  15:44:00      -47.746      134.600      -18.642       59.765       66.940       32.233     3571.843     4480.951     1038.969        1.492        0.455      142.818       35.632        0.062      340.820       15.104      865.627
01/19/2015  15:45:00      -45.208      160.532      -13.596       51.156       51.977       33.940     2616.921     2701.639     1151.920        1.723        0.324      166.776       31.694        0.036      340.686       14.877      865.634
01/19/2015  15:46:00      -84.959        5.014       -3.399       59.734       67.880       42.711     3568.093     4607.627     1824.201        0.863        0.500       85.107       39.298        0.213      340.874       15.194      865.636
01/19/2015  15:47:00     -125.623      -35.411       -9.397       46.122       52.542       31.250     2127.244     2760.640      976.551        1.149        0.293      130.518       27.285        0.044      340.703       14.906      865.636
01/19/2015  15:48:00     -132.028       -0.964       -2.423       63.822       62.145       35.970     4073.209     3861.989     1293.875        1.333        0.461      132.032       34.991        0.070      340.711       14.920      865.636
01/19/2015  15:49:00     -118.757      -38.328       -7.680       57.661       53.188       27.878     3324.734     2828.961      777.175        1.128        0.347      124.789       21.312        0.029      340.778       15.033      865.635
01/19/2015  15:50:00     -116.908       14.242      -19.978       48.610       48.540       19.708     2362.929     2356.113      388.411        0.969        0.255      117.772       17.763        0.023      340.694       14.891      865.650
01/19/2015  15:51:00       19.546      117.332      -14.535       29.611       73.112       23.721      876.800     5345.376      562.670        1.057        0.339      118.949       31.957        0.072      340.646       14.809      865.664
01/19/2015  15:52:00      -72.217      171.923      -17.821       52.800       80.124       41.100     2787.811     6419.857     1689.237        2.299        0.545      186.475       40.813        0.048      340.630       14.782      865.670
01/19/2015  15:53:00        7.623      206.185      -23.163       66.604      101.976       51.845     4436.105    10399.007     2687.862        3.031        0.876      206.326       57.683        0.078      340.483       14.533      865.670
01/19/2015  15:54:00      133.742       81.801       14.977      103.724       78.433       52.932    10758.715     6151.758     2801.776        2.225        0.986      156.775       38.902        0.062      340.476       14.520      865.660
01/19/2015  15:55:00       49.833      117.252        4.453       83.069       86.332       72.049     6900.415     7453.182     5191.028        1.789        0.977      127.402       59.857        0.221      340.378       14.356      865.671
01/19/2015  15:56:00       19.553      222.226      -22.854       71.838      135.357       59.161     5160.663    18321.582     3500.076        3.863        1.349      223.084       68.028        0.093      340.375       14.351      865.677
01/19/2015  15:57:00       55.392      146.193       -4.354       87.105      105.593       66.098     7587.305    11149.850     4368.882        2.378        1.155      156.335       65.359        0.175      340.291       14.208      865.679
01/19/2015  15:58:00      102.889      174.599        7.043      112.623      116.909       93.596    12683.838    13667.737     8760.303        3.811        1.756      202.660       83.223        0.169      340.215       14.078      865.663
01/19/2015  15:59:00       89.532      184.163      -14.290       97.194      115.476       77.968     9446.769    13334.665     6079.010        3.549        1.443      204.773       71.983        0.124      340.261       14.158      865.658
01/19/2015  16:00:00      135.768      158.084        5.819      103.291      103.345       88.329    10669.125    10680.168     7802.012        3.630        1.458      208.383       75.319        0.131      340.285       14.196      865.656
01/19/2015  16:01:00      104.440      185.876       -2.350      126.561      116.865       74.089    16017.729    13657.484     5489.118        4.031        1.758      213.207       74.307        0.121      340.297       14.216      865.655
01/19/2015  16:02:00      158.171       81.798       19.426       94.738       67.035       49.431     8975.258     4493.707     2443.453        2.400        0.796      178.070       37.901        0.045      340.303       14.229      865.649
01/19/2015  16:03:00      135.486      128.983       -2.312      105.313       83.015       70.023    11090.741     6891.441     4903.155        2.894        1.144      187.064       38.840        0.043      340.256       14.149      865.643
01/19/2015  16:04:00      237.852      180.624       34.695      125.728       83.941       75.054    15807.496     7046.071     5633.079        5.944        1.424      298.661       38.551        0.017      340.187       14.032      865.651
01/19/2015  16:05:00      181.771      163.755       14.003      136.352      101.273      101.076    18591.834    10256.168    10216.422        4.955        1.953      244.656       69.760        0.081      340.188       14.032      865.651
01/19/2015  16:06:00      163.042      160.246       13.092      132.209      109.512       91.234    17479.182    11992.817     8323.618        4.511        1.890      228.607       77.796        0.116      340.128       13.931      865.660
01/19/2015  16:07:00      101.926      124.839       -0.176      119.089       83.822       59.838    14182.221     7026.089     3580.551        2.538        1.239      161.163       45.400        0.079      340.165       13.995      865.672
01/19/2015  16:08:00       83.937      140.624       -6.341      111.115       96.416       75.002    12346.604     9296.064     5625.370        2.706        1.363      163.769       65.499        0.160      340.145       13.963      865.694
01/19/2015  16:09:00      120.521      105.224       16.119       94.550       74.729       54.881     8939.648     5584.435     3011.880        2.169        0.877      159.992       37.394        0.055      340.141       13.955      865.699
01/19/2015  16:10:00      190.990      110.772        5.775       80.332       62.074       62.699     6453.157     3853.186     3931.200        3.151        0.712      220.789       44.220        0.040      340.107       13.896      865.698
01/19/2015  16:11:00       73.477       58.078       16.149       98.349       61.607       37.638     9672.430     3795.407     1416.611        1.196        0.744       93.659       34.688        0.137      340.133       13.942      865.693
01/19/2015  16:12:00      110.953       77.809       20.703       60.091       44.996       40.640     3610.905     2024.617     1651.610        1.304        0.364      135.517       24.196        0.032      340.129       13.936      865.702
01/19/2015  16:13:00       86.150      212.238      -15.980       88.465      111.609       55.974     7826.040    12456.638     3133.049        3.807        1.171      229.056       62.554        0.075      340.113       13.907      865.718
01/19/2015  16:14:00      120.182       60.955       24.414       98.691       68.495       49.911     9739.905     4691.616     2491.094        1.784        0.846      134.756       42.220        0.098      340.131       13.938      865.729
01/19/2015  16:15:00      183.750      142.286       16.119      104.634       74.802       58.245    10948.271     5595.277     3392.534        3.710        0.997      232.399       40.966        0.031      340.106       13.896      865.728
01/19/2015  16:16:00      162.257      137.520        5.302       64.714       75.081       52.890     4187.961     5637.156     2797.384        2.894        0.631      212.695       42.772        0.040      340.119       13.917      865.729
01/19/2015  16:17:00       65.228      123.964        6.272       67.911       88.894       66.218     4611.951     7902.197     4384.827        1.828        0.845      140.078       59.034        0.178      340.109       13.901      865.724
01/19/2015  16:18:00      130.200      137.418       -0.404       68.491       82.667       69.655     4691.081     6833.888     4851.845        2.610        0.819      189.304       57.851        0.093      340.088       13.865      865.734
01/19/2015  16:19:00       93.211      104.000       12.259       83.349       86.949       55.053     6947.079     7560.072     3030.835        1.859        0.877      139.658       48.904        0.123      340.102       13.890      865.733
01/19/2015  16:20:00       61.296      136.306       10.832       78.009      100.864       71.255     6085.364    10173.601     5077.325        2.189        1.067      149.454       65.720        0.193      340.081       13.853      865.737
01/19/2015  16:21:00       97.861      236.002      -18.624      100.787      132.096       69.575    10158.103    17449.441     4840.673        4.903        1.622      255.488       73.889        0.084      340.057       13.811      865.732
01/19/2015  16:22:00      163.245      131.566       14.719      130.088       64.851       55.060    16922.932     4205.642     3031.658        3.416        1.208      209.663       40.244        0.037      340.065       13.828      865.747
01/19/2015  16:23:00       97.316      105.226        3.486       95.674       68.937       58.991     9153.421     4752.332     3479.908        1.897        0.869      143.328       37.305        0.068      340.055       13.810      865.763
01/19/2015  16:24:00      179.224      128.591       27.847       72.208       55.306       57.242     5214.065     3058.729     3276.635        3.049        0.577      220.583       37.316        0.029      340.038       13.780      865.752
01/19/2015  16:25:00       49.865      164.359        2.297       70.171      149.553       59.734     4924.038    22366.165     3568.197        3.018        1.543      171.757       78.628        0.210      340.004       13.725      865.761
01/19/2015  16:26:00       41.097      170.468      -10.516       76.672      101.470       60.310     5878.619    10296.249     3637.339        2.533        0.991      175.352       62.647        0.128      339.979       13.682      865.769
01/19/2015  16:27:00        7.901      221.812      -19.342       63.855       77.371       52.837     4077.451     5986.291     2791.729        3.124        0.643      221.952       44.205        0.040      339.956       13.642      865.769
01/19/2015  16:28:00       48.075      130.776       -7.384       63.731       93.383       48.817     4061.689     8720.326     2383.112        1.731        0.758      139.332       51.969        0.139      339.960       13.650      865.760
01/19/2015  16:29:00       96.116       99.763       -5.464       73.401       76.683       48.667     5387.709     5880.277     2368.496        1.643        0.682      138.531       44.453        0.103      339.956       13.646      865.750
01/19/2015  16:30:00       42.454      116.662       -4.833       61.063       62.783       47.754     3728.751     3941.725     2280.491        1.269        0.498      124.146       36.239        0.085      339.944       13.625      865.751
01/19/2015  16:31:00      149.657      122.669        9.462      103.677       61.350       60.213    10748.991     3763.834     3625.546        2.783        0.907      193.507       42.362        0.048      339.939       13.613      865.746
01/19/2015  16:32:00       99.573      116.740        6.794       81.294       76.068       67.138     6608.723     5786.315     4507.448        2.024        0.845      153.437       51.852        0.114      339.917       13.578      865.734
01/19/2015  16:33:00       21.138      209.591      -28.216       55.773       66.435       34.361     3110.612     4413.555     1180.645        2.694        0.435      210.655       33.768        0.026      339.911       13.565      865.733
01/19/2015  16:34:00       49.120      114.869       -1.506       64.305       85.754       47.890     4135.129     7353.823     2293.439        1.469        0.689      124.930       52.635        0.178      339.875       13.507      865.736
01/19/2015  16:35:00       56.481      165.148      -19.489       53.332       95.118       49.675     2844.269     9047.486     2467.556        2.260        0.718      174.539       55.662        0.102      339.869       13.495      865.733
01/19/2015  16:36:00       47.161      246.519      -27.439       68.975      137.872       70.877     4757.521    19008.753     5023.530        4.626        1.439      250.989       75.417        0.090      339.801       13.381      865.735
01/19/2015  16:37:00       57.672      132.216        3.947       86.217       91.443       77.238     7433.432     8361.858     5965.676        2.129        1.088      144.247       66.258        0.211      339.786       13.357      865.734
01/19/2015  16:38:00        8.852      206.520      -36.163       48.874       73.237       34.254     2388.624     5363.614     1173.332        2.648        0.446      206.710       37.411        0.033      339.780       13.346      865.727
01/19/2015  16:39:00       22.428      263.023      -38.402       52.205       76.772       31.751     2725.342     5893.968     1008.147        4.039        0.481      263.978       28.952        0.012      339.739       13.277      865.717
01/19/2015  16:40:00       64.753      152.429       -8.575       65.914      102.238       57.028     4344.631    10452.702     3252.226        2.277        0.902      165.613       62.479        0.142      339.696       13.205      865.720
01/19/2015  16:41:00       39.868      143.885       -3.892       54.613       92.343       51.902     2982.581     8527.145     2693.799        1.825        0.710      149.306       57.533        0.148      339.669       13.159      865.716
01/19/2015  16:42:00       57.538      159.246      -17.241       74.236       81.385       42.624     5511.027     6623.570     1816.771        2.146        0.698      169.322       40.571        0.057      339.634       13.098      865.711
01/19/2015  16:43:00       27.056      131.999      -17.093       53.210       58.268       42.396     2831.351     3395.199     1797.395        1.323        0.401      134.744       33.552        0.062      339.608       13.058      865.707
01/19/2015  16:44:00       33.345       89.863       -6.254       56.927       70.851       37.653     3240.726     5019.813     1417.727        0.945        0.484       95.850       37.310        0.152      339.588       13.025      865.703
01/19/2015  16:45:00       26.082      152.982      -26.472       47.700       94.218       33.001     2275.273     8877.062     1089.090        1.851        0.612      155.189       43.602        0.079      339.571       12.994      865.694
01/19/2015  16:46:00       42.337      155.107      -12.952       69.310       80.264       62.479     4803.891     6442.375     3903.566        2.058        0.757      160.781       52.495        0.107      339.546       12.951      865.695
01/19/2015  16:47:00       35.703      187.599      -17.638       46.372       67.997       45.168     2150.344     4623.568     2040.193        2.280        0.441      190.966       47.341        0.061      339.533       12.930      865.695
01/19/2015  16:48:00       -1.497      156.604      -24.729       36.997       61.527       19.823     1368.770     3785.621      392.937        1.534        0.277      156.612       21.871        0.020      339.538       12.939      865.702
01/19/2015  16:49:00       21.758      192.126      -21.134       37.435       82.896       33.785     1401.412     6871.805     1141.448        2.362        0.471      193.354       45.668        0.056      339.514       12.897      865.696
01/19/2015  16:50:00        7.016      117.965        4.440       55.059       76.272       41.793     3031.511     5817.439     1746.637        1.229        0.530      118.174       39.851        0.114      339.466       12.817      865.702
01/19/2015  16:51:00       18.658      186.237      -22.549       41.294       48.540       31.134     1705.230     2356.094      969.302        2.028        0.252      187.170       26.048        0.019      339.460       12.806      865.701
01/19/2015  16:52:00       16.607      175.833      -15.738       53.356       53.442       31.212     2846.862     2856.095      974.184        1.906        0.334      176.616       27.337        0.024      339.451       12.792      865.708
01/19/2015  16:53:00       -6.199      246.358      -31.262       43.400       65.183       37.923     1883.600     4248.770     1438.171        3.464        0.379      246.436       36.127        0.021      339.515       12.896      865.711
01/19/2015  16:54:00      -65.847      163.631      -25.058       64.132       44.568       23.806     4112.944     1986.273      566.739        1.920        0.333      176.383       13.634        0.006      339.491       12.859      865.709
01/19/2015  16:55:00      -65.859      157.480      -24.215       43.735       65.980       30.722     1912.741     4353.359      943.817        1.847        0.360      170.696       33.024        0.037      339.461       12.808      865.716
01/19/2015  16:56:00      -71.202      148.936      -24.345       58.341       65.712       28.504     3403.616     4318.020      812.496        1.819        0.427      165.080       36.131        0.048      339.485       12.849      865.716
01/19/2015  16:57:00     -125.981      202.128      -33.413       54.512       56.206       37.194     2971.509     3159.170     1383.420        3.268        0.376      238.174       32.083        0.018      339.439       12.768      865.720
01/19/2015  16:58:00      -68.001      131.153      -14.441       41.140       54.275       33.834     1692.508     2945.752     1144.768        1.391        0.289      147.734       28.405        0.037      339.456       12.801      865.720
01/19/2015  16:59:00     -117.098      119.483      -28.497       45.026       53.161       22.868     2027.350     2826.053      522.941        1.709        0.269      167.296       24.093        0.021      339.533       12.930      865.726
01/19/2015  17:00:00     -152.004      108.235      -27.423       61.075       71.313       33.814     3730.207     5085.540     1143.418        2.276        0.498      186.602       31.697        0.029      339.245       12.443      865.736
01/19/2015  17:01:00      -83.892      158.112      -23.023       47.837       67.209       39.547     2288.424     4517.071     1563.981        2.047        0.418      178.989       33.726        0.036      339.090       12.184      865.751
01/19/2015  17:02:00      -84.103      104.784      -16.804       55.556      103.354       39.177     3086.523    10681.967     1534.804        1.682        0.765      134.361       44.759        0.111      339.085       12.175      865.748
01/19/2015  17:03:00      -93.866       80.442       -6.965       56.844       87.918       37.349     3231.295     7729.652     1394.946        1.384        0.618      123.619       33.725        0.074      339.066       12.144      865.746
01/19/2015  17:04:00      -80.886      108.610      -19.363       55.834       80.358       32.624     3117.466     6457.335     1064.325        1.467        0.532      135.420       32.527        0.058      338.987       12.011      865.747
01/19/2015  17:05:00      -53.755       89.283      -14.525       35.857       36.776       25.424     1285.750     1352.505      646.401        0.718        0.164      104.216       20.278        0.038      338.954       11.958      865.749
01/19/2015  17:06:00      -89.005       97.224      -15.069       52.858       56.874       39.735     2793.962     3234.609     1578.909        1.260        0.380      131.812       29.494        0.050      338.959       11.966      865.769
01/19/2015  17:07:00      -94.061       69.352       -9.299       46.190       47.561       31.077     2133.524     2262.069      965.787        0.955        0.268      116.864       23.294        0.040      338.960       11.966      865.783
01/19/2015  17:08:00     -126.493       89.279      -16.189       75.189       63.585       37.334     5653.386     4043.012     1393.853        1.766        0.555      154.826       39.352        0.065      338.963       11.969      865.801
01/19/2015  17:09:00     -128.946      133.811      -35.041       43.827       87.650       32.766     1920.820     7682.600     1073.600        2.322        0.534      185.829       40.255        0.047      338.914       11.888      865.825
01/19/2015  17:10:00     -131.054      125.729      -33.962       44.482       59.628       27.211     1978.638     3555.545      740.435        2.020        0.314      181.612       25.316        0.019      338.870       11.813      865.840
01/19/2015  17:11:00     -116.758      103.366      -25.823       57.520       53.159       28.287     3308.524     2825.853      800.132        1.596        0.347      155.939       31.971        0.042      338.869       11.813      865.842
01/19/2015  17:12:00     -186.723      103.006      -41.653       53.869       55.029       35.791     2901.907     3028.173     1280.998        2.721        0.361      213.250       27.595        0.017      338.761       11.629      865.858
01/19/2015  17:13:00     -149.078       42.028      -14.317       56.662       73.880       42.509     3210.565     5458.232     1806.987        1.733        0.524      154.889       36.308        0.055      338.778       11.658      865.860
01/19/2015  17:14:00      -98.295      126.261      -24.340       60.280       89.978       36.780     3633.630     8096.058     1352.767        1.964        0.654      160.012       44.971        0.079      338.655       11.452      865.876
01/19/2015  17:15:00     -100.376       73.262      -16.134       52.706       77.821       34.814     2777.899     6056.041     1212.014        1.287        0.502      124.269       33.178        0.071      338.651       11.447      865.871
01/19/2015  17:16:00     -111.533      109.290      -20.690       66.431       63.640       35.462     4413.018     4050.112     1257.521        1.726        0.486      156.153       36.930        0.056      338.607       11.372      865.873
01/19/2015  17:17:00     -103.728      104.550      -22.183       55.151       39.374       29.044     3041.652     1550.338      843.557        1.381        0.272      147.276       28.220        0.037      338.593       11.349      865.872
01/19/2015  17:18:00     -113.324      152.994      -32.721       61.598       43.003       34.730     3794.308     1849.265     1206.168        2.208        0.342      190.393       29.817        0.025      338.568       11.306      865.875
01/19/2015  17:19:00      -50.598      126.587      -14.555       48.545       54.054       35.805     2356.587     2921.861     1281.978        1.268        0.328      136.325       27.566        0.041      338.571       11.312      865.871
01/19/2015  17:20:00      -83.716       72.111       -5.386       42.672       60.362       30.205     1820.882     3643.516      912.324        0.931        0.319      110.491       23.373        0.045      338.549       11.276      865.872
01/19/2015  17:21:00      -98.508      107.160      -24.255       60.900       53.139       31.343     3708.797     2823.802      982.376        1.464        0.376      145.558       34.889        0.057      338.518       11.223      865.879
01/19/2015  17:22:00      -54.813      161.299      -24.225       45.574       67.131       26.223     2077.028     4506.614      687.653        1.844        0.364      170.358       22.099        0.017      338.532       11.245      865.886
01/19/2015  17:23:00      -56.046      173.715      -22.082       30.517       36.908       25.054      931.280     1362.171      627.720        1.836        0.146      182.532       13.155        0.005      338.474       11.150      865.894
01/19/2015  17:24:00      -73.833      127.093      -25.988       31.779       59.185       24.239     1009.892     3502.881      587.517        1.369        0.255      146.983       23.941        0.027      338.537       11.255      865.906
01/19/2015  17:25:00      -35.683      145.167      -13.372       51.234       56.309       35.744     2624.890     3170.751     1277.647        1.480        0.354      149.488       23.323        0.024      338.505       11.200      865.919
01/19/2015  17:26:00      -53.619      153.200      -22.421       63.534       58.026       31.675     4036.624     3367.068     1003.326        1.763        0.420      162.312       28.615        0.031      338.535       11.251      865.931
01/19/2015  17:27:00      -45.182      120.391       -9.123       47.355       29.244       26.778     2242.511      855.221      717.074        1.022        0.191      128.590       16.568        0.017      338.460       11.127      865.942
01/19/2015  17:28:00      -30.099      155.207      -17.178       36.176       53.345       25.051     1308.723     2845.655      627.575        1.504        0.239      158.099       20.365        0.017      338.461       11.128      865.951
01/19/2015  17:29:00      -55.309      180.905      -17.709       48.146       73.994       31.882     2318.011     5475.054     1016.486        2.245        0.440      189.171       34.323        0.033      338.414       11.048      865.954
01/19/2015  17:30:00      -62.198      195.401      -28.566       59.649       69.165       30.094     3558.052     4783.759      905.632        2.606        0.462      205.061       25.617        0.016      338.404       11.030      865.960
01/19/2015  17:31:00      -43.301      210.864      -29.326       32.968       59.397       25.138     1086.901     3528.016      631.934        2.622        0.262      215.264       18.629        0.007      338.367       10.968      865.970
01/19/2015  17:32:00      -57.565      191.277      -24.121       33.798       80.489       27.771     1142.332     6478.405      771.225        2.444        0.420      199.751       27.850        0.019      338.355       10.949      865.970
01/19/2015  17:33:00      -86.931      207.966      -34.001       61.186       65.375       30.026     3743.764     4273.946      901.565        3.044        0.446      225.404       29.775        0.017      338.322       10.892      865.970
01/19/2015  17:34:00      -55.809      167.208      -15.997       47.736       54.036       29.313     2278.758     2919.837      859.273        1.869        0.303      176.276       24.163        0.019      338.322       10.894      865.983
01/19/2015  17:35:00      -43.065      184.207      -25.581       67.962       75.935       38.548     4618.894     5766.090     1485.925        2.415        0.594      189.174       37.700        0.040      338.292       10.842      865.991
01/19/2015  17:36:00      -64.364      231.301      -25.014       75.815       83.151       42.056     5747.978     6914.078     1768.700        3.635        0.722      240.090       43.636        0.033      338.230       10.736      865.995
01/19/2015  17:37:00      -15.502      300.382      -47.311       50.711       59.594       27.109     2571.649     3551.426      734.909        4.978        0.343      300.781       22.534        0.006      338.184       10.659      865.996
01/19/2015  17:38:00      -75.143      289.862      -34.464       64.088       80.208       29.815     4107.215     6433.374      888.962        5.114        0.571      299.443       31.269        0.011      338.162       10.622      865.988
01/19/2015  17:39:00      -50.266      199.137      -27.842       40.700       68.829       30.581     1656.458     4737.474      935.226        2.514        0.366      205.383       28.370        0.019      338.121       10.556      865.996
01/19/2015  17:40:00     -108.850      252.992      -35.951       73.312       73.597       46.126     5374.666     5416.477     2127.574        4.503        0.646      275.415       30.466        0.012      338.134       10.576      865.993
01/19/2015  17:41:00     -145.223      195.862      -24.703       84.350       72.020       40.379     7114.985     5186.852     1630.424        3.699        0.697      243.827       42.352        0.030      338.109       10.534      865.998
01/19/2015  17:42:00     -128.700      241.676      -31.812       62.178       84.171       40.737     3866.060     7084.834     1659.496        4.429        0.631      273.808       30.653        0.013      338.091       10.503      866.004
01/19/2015  17:43:00     -144.730      127.023      -20.309       83.366       91.037       40.968     6949.863     8287.700     1678.389        2.720        0.846      192.566       30.936        0.026      338.105       10.530      865.999
01/19/2015  17:44:00     -178.518      305.438      -50.920       93.482      119.797       65.581     8738.860    14351.427     4300.911        7.757        1.370      353.781       69.218        0.038      338.100       10.519      866.010
01/19/2015  17:45:00     -187.271      238.112      -42.860       95.488      142.145       56.441     9118.052    20205.071     3185.601        6.305        1.625      302.932       61.907        0.042      338.078       10.482      866.010
01/19/2015  17:46:00     -217.616      253.686      -48.042      107.634      119.078       57.145    11585.169    14179.670     3265.504        7.152        1.452      334.235       59.708        0.032      338.072       10.473      865.995
01/19/2015  17:47:00     -171.672      208.496      -33.705       90.143       70.833       48.741     8125.734     5017.374     2375.713        4.480        0.776      270.077       49.544        0.034      338.077       10.480      865.991
01/19/2015  17:48:00     -175.996      239.461      -38.636       73.396       87.332       47.480     5386.947     7626.866     2254.336        5.254        0.763      297.181       40.673        0.019      338.078       10.482      865.996
01/19/2015  17:49:00     -157.667      203.708      -35.169       70.284       78.707       54.040     4939.803     6194.812     2920.333        4.082        0.703      257.596       52.886        0.042      338.099       10.517      865.992
01/19/2015  17:50:00     -121.440      155.833      -30.228       49.376      144.690       46.074     2437.946    20935.211     2122.778        3.272        1.275      197.565       33.735        0.029      338.122       10.556      865.996
01/19/2015  17:51:00     -114.388      122.040      -14.931       61.134       73.783       41.356     3737.419     5443.864     1710.352        1.954        0.545      167.267       40.343        0.058      338.088       10.500      866.006
01/19/2015  17:52:00     -117.838      130.412      -25.832       47.016       75.604       30.661     2210.511     5715.909      940.106        2.021        0.443      175.764       23.297        0.018      338.066       10.464      866.018
01/19/2015  17:53:00     -199.560      142.062      -48.876       51.843       70.706       38.339     2687.657     4999.393     1469.877        3.577        0.458      244.961       32.240        0.017      338.048       10.434      866.019
01/19/2015  17:54:00     -159.335      187.616      -24.329       86.310       98.234       51.236     7449.365     9649.886     2625.121        4.045        0.986      246.145       45.084        0.034      337.996       10.345      866.027
01/19/2015  17:55:00     -131.790      194.999      -37.945       50.485       76.765       31.233     2548.739     5892.906      975.470        3.312        0.471      235.358       25.689        0.012      338.013       10.374      866.024
01/19/2015  17:56:00     -113.557      103.442      -31.827       48.270       64.303       26.904     2329.964     4134.913      723.836        1.590        0.359      153.608       27.931        0.033      337.991       10.340      866.033
01/19/2015  17:57:00     -154.166      168.998      -35.947       59.746       59.560       39.668     3569.644     3547.373     1573.572        3.115        0.435      228.751       31.997        0.020      337.927       10.229      866.042
01/19/2015  17:58:00     -108.411      138.224      -22.598       58.359      109.780       36.227     3405.813    12051.676     1312.422        2.407        0.838      175.667       27.996        0.025      337.912       10.206      866.049
01/19/2015  17:59:00     -135.118       84.926      -13.440      116.716       58.586       47.684    13622.674     3432.329     2273.721        2.249        0.966      159.591       60.293        0.143      337.908       10.198      866.050
01/19/2015  18:00:00      -72.687       49.622      -11.123       39.958       46.453       28.351     1596.647     2157.924      803.751        0.621        0.228       88.010       25.826        0.086      337.917       10.214      866.068
01/19/2015  18:01:00      -65.307      112.692      -18.850       51.034       52.059       35.200     2604.476     2710.149     1239.063        1.194        0.328      130.248       29.236        0.050      337.900       10.186      866.083
01/19/2015  18:02:00      -98.881       75.935      -12.835       51.578       72.699       28.201     2660.242     5285.130      795.296        1.222        0.437      124.674       30.768        0.061      337.891       10.169      866.094
01/19/2015  18:03:00     -137.518      125.138      -28.365       91.458       92.697       45.861     8364.591     8592.748     2103.257        2.721        0.953      185.932       45.335        0.059      337.915       10.209      866.096
01/19/2015  18:04:00     -134.579      167.725      -15.498       99.538       71.560       47.333     9907.741     5120.854     2240.381        3.187        0.863      215.042       35.993        0.028      337.901       10.186      866.102
01/19/2015  18:05:00     -149.469      138.949      -39.343       53.958       65.272       29.663     2911.498     4260.369      879.868        2.562        0.403      204.078       28.143        0.019      337.943       10.255      866.109
01/19/2015  18:06:00      -93.828      180.065      -17.786       51.396       85.108       34.425     2641.582     7243.302     1185.080        2.630        0.553      203.045       23.964        0.014      337.934       10.240      866.112
01/19/2015  18:07:00      -98.863       78.474      -13.202       32.925       71.730       32.349     1084.039     5145.222     1046.427        1.169        0.364      126.222       30.286        0.058      337.914       10.210      866.117
01/19/2015  18:08:00     -109.508       86.372      -17.332       46.445       46.417       27.159     2157.180     2154.526      737.594        1.240        0.252      139.471       25.013        0.032      337.883       10.160      866.125
01/19/2015  18:09:00     -102.966       67.920      -11.208       50.346       74.932       35.618     2534.754     5614.758     1268.626        1.238        0.471      123.350       30.150        0.060      337.885       10.161      866.131
01/19/2015  18:10:00     -173.896       57.846      -27.221       72.227       74.729       38.615     5216.728     5584.372     1491.154        2.331        0.615      183.265       34.470        0.035      337.904       10.190      866.149
01/19/2015  18:11:00      -77.107      162.260      -16.098       47.035       57.864       33.581     2212.253     3348.289     1127.668        1.961        0.334      179.649       28.896        0.026      337.870       10.134      866.152
01/19/2015  18:12:00     -107.042      108.633      -18.976       32.072       51.507       27.830     1028.586     2652.989      774.505        1.404        0.223      152.509       24.785        0.026      337.886       10.161      866.164
01/19/2015  18:13:00     -151.302      101.818      -25.986       66.506       63.044       34.291     4423.096     3974.552     1175.889        2.175        0.479      182.371       27.838        0.023      337.860       10.117      866.179
01/19/2015  18:14:00      -97.768      124.925      -15.340       62.904       96.340       38.131     3956.860     9281.386     1453.951        2.004        0.735      158.635       37.467        0.056      337.833       10.072      866.194
01/19/2015  18:15:00     -146.382      193.133      -40.364       63.027       86.935       44.678     3972.435     7557.639     1996.108        3.694        0.676      242.339       49.054        0.041      337.823       10.054      866.206
01/19/2015  18:16:00     -111.736      201.746      -29.479       70.632       58.636       40.257     4988.893     3438.188     1620.636        3.205        0.502      230.622       39.768        0.030      337.788        9.995      866.220
01/19/2015  18:17:00     -123.417      175.807      -26.558      102.097       56.960       45.837    10423.869     3244.441     2100.996        3.130        0.788      214.802       52.696        0.060      337.771        9.969      866.238
01/19/2015  18:18:00      -45.271      147.683      -21.915       40.496       57.496       31.558     1639.952     3305.758      995.884        1.514        0.297      154.466       29.669        0.037      337.753        9.939      866.260
01/19/2015  18:19:00      -97.870      188.881      -27.859       71.208       47.629       31.489     5070.512     2268.543      991.538        2.718        0.417      212.731       27.047        0.016      337.776        9.976      866.279
01/19/2015  18:20:00     -101.280      119.744      -13.207       59.938       59.150       26.926     3592.623     3498.770      725.017        1.629        0.391      156.832       22.992        0.021      337.687        9.830      866.285
01/19/2015  18:21:00      -47.303      192.851      -21.296       47.288       60.189       29.307     2236.186     3622.776      858.872        2.330        0.336      198.567       25.538        0.017      337.692        9.837      866.302
01/19/2015  18:22:00     -142.162      207.912      -39.909       62.276       61.095       39.423     3878.322     3732.577     1554.142        3.710        0.458      251.868       33.617        0.018      337.688        9.828      866.313
01/19/2015  18:23:00      -22.846      208.078      -21.095       35.218       68.064       31.155     1240.328     4632.730      970.664        2.555        0.342      209.329       31.753        0.023      337.661        9.784      866.330
01/19/2015  18:24:00      -86.233      196.676      -29.083       58.411       68.105       38.780     3411.855     4638.229     1503.912        2.826        0.478      214.750       27.348        0.016      337.634        9.738      866.349
01/19/2015  18:25:00      -90.527      162.147      -15.245       59.936       65.736       37.255     3592.290     4321.195     1387.916        2.201        0.465      185.707       28.421        0.023      337.648        9.763      866.375
01/19/2015  18:26:00      -73.086      200.638      -26.161       57.538       88.405       38.311     3310.620     7815.466     1467.705        2.944        0.630      213.535       32.067        0.023      337.609        9.697      866.393
01/19/2015  18:27:00      -46.322      173.364      -12.289       59.219      107.133       45.616     3506.926    11477.406     2080.780        2.471        0.853      179.445       48.685        0.074      337.567        9.626      866.412
01/19/2015  18:28:00      -16.709      148.110      -15.088       67.167       97.482       40.846     4511.358     9502.717     1668.371        1.906        0.784      149.049       44.516        0.089      337.598        9.679      866.424
01/19/2015  18:29:00      -65.257      104.221       -1.580       51.426       68.647       36.658     2644.647     4712.421     1343.783        1.191        0.435      122.965       40.927        0.111      337.549        9.597      866.435
01/19/2015  18:30:00      -44.295      199.496      -22.144       47.903       86.586       52.493     2294.651     7497.192     2755.555        2.740        0.627      204.354       42.700        0.044      337.567        9.626      866.461
01/19/2015  18:31:00     -118.659      243.889      -36.848       97.813       81.258       50.097     9567.329     6602.932     2509.710        4.680        0.934      271.222       49.199        0.033      337.615        9.704      866.479
01/19/2015  18:32:00      -50.091      258.198      -21.965       61.182      107.282       50.913     3743.281    11509.468     2592.169        4.375        0.892      263.012       56.515        0.046      337.586        9.656      866.488
01/19/2015  18:33:00      -89.212      100.490       -9.610      101.827      107.164       50.230    10368.705    11484.043     2523.041        2.126        1.219      134.377       49.884        0.138      337.621        9.718      866.490
01/19/2015  18:34:00      -68.115      158.443      -29.058       56.101       67.102       24.774     3147.314     4502.665      613.764        1.942        0.413      172.464       15.327        0.008      337.615        9.708      866.484
01/19/2015  18:35:00     -117.546      266.541      -40.378       75.170       88.896       54.935     5650.491     7902.534     3017.841        5.153        0.829      291.309       48.263        0.027      337.669        9.796      866.499
01/19/2015  18:36:00      -92.211      266.749      -29.993       78.711       95.344       47.333     6195.483     9090.503     2240.422        4.904        0.876      282.237       47.884        0.029      337.682        9.819      866.484
01/19/2015  18:37:00     -121.266      240.892      -34.296       74.179       74.205       42.087     5502.459     5506.353     1771.325        4.334        0.639      269.693       36.550        0.018      337.678        9.810      866.483
01/19/2015  18:38:00      -65.951      195.824      -22.242       82.520       78.136       47.293     6809.477     6105.258     2236.662        2.917        0.758      206.631       41.365        0.040      337.679        9.815      866.471
01/19/2015  18:39:00      -70.457      202.059      -14.509       73.954       82.050       44.053     5469.261     6732.257     1940.657        3.007        0.707      213.991       34.703        0.026      337.618        9.712      866.477
01/19/2015  18:40:00      -91.274      279.953      -30.160       59.885       82.190       40.331     3586.219     6755.242     1626.613        4.979        0.598      294.457       43.163        0.021      337.638        9.744      866.469
01/19/2015  18:41:00     -130.908      154.666      -37.473       63.002       68.014       44.151     3969.257     4625.971     1949.287        2.650        0.527      202.629       41.180        0.041      337.651        9.766      866.483
01/19/2015  18:42:00      -58.290      143.618      -14.193       63.624       63.283       44.207     4048.009     4004.676     1954.264        1.711        0.500      154.996       37.850        0.060      337.655        9.776      866.469
01/19/2015  18:43:00      -75.270      198.141      -19.532       73.313       96.502       47.518     5374.760     9312.691     2257.962        3.112        0.847      211.957       43.631        0.042      337.622        9.716      866.476
01/19/2015  18:44:00      -68.767      150.516      -17.909       57.553       66.516       39.120     3312.360     4424.371     1530.353        1.848        0.463      165.481       35.956        0.047      337.592        9.669      866.484
01/19/2015  18:45:00      -79.629      181.324      -26.975       66.976       82.732       36.191     4485.719     6844.612     1309.762        2.629        0.632      198.039       26.494        0.018      337.624        9.721      866.486
01/19/2015  18:46:00      -69.070      223.056      -25.528       78.773       97.342       48.568     6205.236     9475.478     2358.811        3.660        0.902      233.505       46.149        0.039      337.596        9.675      866.490
01/19/2015  18:47:00      -66.412      192.619      -26.989       70.286       70.730       41.744     4940.113     5002.680     1742.600        2.696        0.584      203.746       39.110        0.037      337.614        9.705      866.478
01/19/2015  18:48:00      -44.075      130.844      -15.429       35.750       75.698       31.925     1278.057     5730.123     1019.202        1.366        0.401      138.068       36.859        0.071      337.563        9.620      866.476
01/19/2015  18:49:00      -43.555      132.877      -14.050       35.988       43.913       23.711     1295.154     1928.382      562.231        1.177        0.189      139.833       16.828        0.014      337.570        9.633      866.455
01/19/2015  18:50:00      -32.237      134.818      -13.935       45.053       68.709       28.760     2029.783     4720.909      827.137        1.349        0.379      138.619       36.092        0.068      337.497        9.510      866.435
01/19/2015  18:51:00      -91.539      205.430      -27.380       49.390       82.793       30.725     2439.368     6854.644      944.021        3.078        0.512      224.902       31.035        0.019      337.528        9.559      866.412
01/19/2015  18:52:00      -76.856      164.120      -24.919       56.980       44.692       27.857     3246.735     1997.358      776.024        1.974        0.301      181.225       21.427        0.014      337.519        9.547      866.409
01/19/2015  18:53:00      -30.524      138.199      -11.560       46.672       63.961       26.002     2178.290     4090.971      676.113        1.355        0.347      141.530       29.407        0.043      337.500        9.517      866.399
01/19/2015  18:54:00      -94.056      117.324      -23.882       65.766       87.297       34.007     4325.176     7620.847     1156.496        1.814        0.655      150.371       30.602        0.041      337.537        9.577      866.407
01/19/2015  18:55:00     -115.957      141.060      -34.785       67.176       71.866       38.323     4512.588     5164.655     1468.677        2.285        0.557      182.603       45.334        0.062      337.524        9.556      866.408
01/19/2015  18:56:00      -95.532      129.690      -28.366       61.004       53.407       25.600     3721.516     2852.330      655.343        1.699        0.361      161.077       28.972        0.032      337.529        9.563      866.431
01/19/2015  18:57:00      -51.203      136.681      -13.178       41.499      101.675       36.196     1722.143    10337.830     1310.154        1.742        0.669      145.957       41.643        0.081      337.515        9.539      866.422
01/19/2015  18:58:00     -140.380      134.824      -25.149       57.218       58.885       40.531     3273.854     3467.430     1642.796        2.345        0.419      194.638       36.697        0.036      337.526        9.556      866.429
01/19/2015  18:59:00      -89.272       93.096      -11.704       83.998       83.158       39.667     7055.644     6915.265     1573.480        1.616        0.777      128.982       48.034        0.139      337.486        9.491      866.429
01/19/2015  19:00:00     -137.291      180.568      -41.918       80.487       70.241       39.318     6478.228     4933.767     1545.874        3.308        0.648      226.834       40.943        0.033      337.500        9.511      866.424
01/19/2015  19:01:00     -116.637      150.490      -20.443       56.282       73.229       42.021     3167.641     5362.508     1765.733        2.348        0.515      190.398       34.632        0.033      337.429        9.394      866.413
01/19/2015  19:02:00      -90.103      103.340      -24.355       54.809       60.461       30.870     3003.997     3655.579      952.976        1.350        0.381      137.105       31.509        0.053      337.461        9.448      866.418
01/19/2015  19:03:00      -74.111      124.313      -15.974       55.277       74.014       38.532     3055.540     5478.041     1484.729        1.561        0.501      144.728       32.833        0.051      337.425        9.390      866.403
01/19/2015  19:04:00      -69.861      207.999      -15.487       57.869      159.362       50.313     3348.776    25396.383     2531.448        3.983        1.564      219.418       56.828        0.067      337.432        9.400      866.399
01/19/2015  19:05:00      -74.195      151.571       -9.768       51.606       67.357       44.976     2663.220     4537.024     2022.851        1.890        0.461      168.756       40.192        0.057      337.340        9.247      866.399
01/19/2015  19:06:00     -117.034      296.830      -40.372       66.187       83.226       39.669     4380.731     6926.596     1573.650        5.816        0.644      319.069       38.101        0.014      337.310        9.193      866.407
01/19/2015  19:07:00     -155.694      286.875      -50.796       78.440      119.585       51.430     6152.910    14300.565     2645.051        6.610        1.155      326.401       61.485        0.035      337.283        9.151      866.397
01/19/2015  19:08:00      -92.854      170.002      -22.952       70.247       97.500       39.941     4934.605     9506.182     1595.286        2.704        0.802      193.707       48.966        0.064      337.270        9.130      866.400
01/19/2015  19:09:00      -61.986      195.521      -15.895       63.385       89.459       56.472     4017.713     8002.940     3189.036        2.876        0.760      205.112       55.311        0.073      337.253        9.098      866.390
01/19/2015  19:10:00      -78.516      130.370      -11.699       58.703       69.521       36.447     3446.031     4833.213     1328.389        1.645        0.480      152.187       27.068        0.032      337.265        9.120      866.374
01/19/2015  19:11:00      -99.393      101.379      -19.492       49.702       71.106       30.317     2470.245     5055.999      919.147        1.449        0.422      141.975       30.049        0.045      337.226        9.057      866.367
01/19/2015  19:12:00      -84.463      169.922      -15.801       87.791       87.001       50.119     7707.188     7569.114     2511.942        2.702        0.889      189.756       52.189        0.076      337.221        9.047      866.367
01/19/2015  19:13:00     -120.591      236.468      -38.294       59.976       81.657       40.663     3597.115     6667.872     1653.461        4.192        0.596      265.441       40.121        0.023      337.215        9.034      866.351
01/19/2015  19:14:00     -113.028      154.760      -30.812       80.198       99.615       40.617     6431.790     9923.219     1649.742        2.784        0.900      191.641       44.641        0.054      337.253        9.099      866.348
01/19/2015  19:15:00     -156.418      228.828      -41.100       71.931       73.865       43.075     5174.067     5456.077     1855.464        4.550        0.624      277.180       38.448        0.019      337.306        9.187      866.346
01/19/2015  19:16:00      -92.686      157.157       -8.801       67.648       85.887       43.460     4576.309     7376.536     1888.751        2.360        0.692      182.452       44.457        0.059      337.210        9.028      866.344
01/19/2015  19:17:00     -120.960       95.836      -18.054       84.101       62.977       43.849     7073.048     3966.107     1922.723        1.855        0.648      154.324       38.274        0.062      337.220        9.047      866.349
01/19/2015  19:18:00      -69.777      130.243      -23.371       53.898       68.607       41.265     2904.974     4706.897     1702.837        1.584        0.466      147.756       44.869        0.092      337.274        9.137      866.350
01/19/2015  19:19:00     -103.466      184.681      -22.201       76.418       79.328       46.170     5839.718     6292.972     2131.695        2.978        0.713      211.689       38.865        0.034      337.320        9.212      866.356
01/19/2015  19:20:00     -125.129      158.895      -34.058       56.131       54.511       35.588     3150.726     2971.413     1266.489        2.473        0.369      202.250       31.733        0.025      337.289        9.161      866.363
01/19/2015  19:21:00     -122.455      208.967      -35.503       54.760       67.552       33.746     2998.633     4563.216     1138.825        3.431        0.435      242.203       27.580        0.013      337.380        9.312      866.361
01/19/2015  19:22:00     -167.323      215.786      -50.138       78.701       67.970       42.234     6193.878     4619.961     1783.700        4.483        0.630      273.058       33.354        0.015      337.434        9.401      866.369
01/19/2015  19:23:00     -113.285      230.719      -33.650       78.697       96.939       47.644     6193.216     9397.074     2269.974        4.253        0.893      257.030       48.695        0.036      337.370        9.295      866.387
01/19/2015  19:24:00      -93.449      306.082      -32.454       64.799       80.265       48.636     4198.899     6442.410     2365.441        5.824        0.650      320.029       44.477        0.019      337.404        9.352      866.391
01/19/2015  19:25:00     -112.466      162.579      -11.428       81.296      119.311       52.270     6609.080    14235.133     2732.103        3.139        1.179      197.688       53.975        0.075      337.387        9.323      866.411
01/19/2015  19:26:00      -82.964       91.550        4.524       70.223       83.397       46.727     4931.270     6955.062     2183.410        1.467        0.703      123.549       51.041        0.171      337.355        9.272      866.407
01/19/2015  19:27:00      -60.318      195.923      -10.356       63.644      111.216       44.714     4050.538    12369.038     1999.298        3.027        0.921      204.998       50.348        0.060      337.335        9.236      866.411
01/19/2015  19:28:00      -91.428      143.977      -18.424       56.001       77.423       44.133     3136.104     5994.305     1947.744        2.025        0.554      170.553       43.104        0.064      337.352        9.266      866.411
01/19/2015  19:29:00     -116.919      150.898      -22.103       66.145       73.074       43.340     4375.115     5339.827     1878.374        2.426        0.580      190.893       38.364        0.040      337.332        9.232      866.419
01/19/2015  19:30:00      -47.618      131.484      -15.684       52.354       57.911       32.432     2740.912     3353.713     1051.825        1.347        0.357      139.841       28.906        0.043      337.329        9.229      866.433
01/19/2015  19:31:00      -69.663       89.776       -9.931       56.763       45.116       33.101     3222.046     2035.438     1095.704        0.968        0.318      113.634       29.799        0.069      337.338        9.246      866.438
01/19/2015  19:32:00      -68.741      131.437      -26.429       42.175       87.036       37.921     1778.720     7575.237     1438.013        1.674        0.540      148.327       38.850        0.069      337.349        9.261      866.434
01/19/2015  19:33:00      -72.545      161.541      -12.037       53.922      102.419       34.969     2907.622    10489.632     1222.841        2.306        0.731      177.083       32.123        0.033      337.310        9.195      866.433
01/19/2015  19:34:00     -111.307      200.195      -26.029       54.524       71.051       39.381     2972.895     5048.181     1550.837        3.136        0.479      229.057       32.234        0.020      337.347        9.257      866.442
01/19/2015  19:35:00      -91.267      228.695      -29.075       86.968       87.495       44.211     7563.367     7655.420     1954.626        3.932        0.859      246.234       39.606        0.026      337.342        9.247      866.436
01/19/2015  19:36:00      -98.786      242.830      -33.436       61.230      114.029       43.144     3749.067    13002.674     1861.392        4.422        0.931      262.154       39.816        0.023      337.335        9.238      866.445
01/19/2015  19:37:00     -110.729      233.785      -39.519       79.902       83.585       36.488     6384.318     6986.472     1331.371        4.159        0.735      258.682       12.340        0.002      337.343        9.249      866.445
01/19/2015  19:38:00      -77.726      158.619      -20.920       65.114      114.955       41.630     4239.821    13214.642     1733.090        2.541        0.959      176.639       46.309        0.069      337.279        9.145      866.450
01/19/2015  19:39:00     -112.376      168.465      -22.686       62.820      100.018       45.962     3946.368    10003.682     2112.537        2.879        0.803      202.507       37.473        0.034      337.317        9.206      866.447
01/19/2015  19:40:00      -94.203      162.263      -18.731       82.822      113.317       49.023     6859.484    12840.738     2403.293        2.883        1.105      187.626       59.241        0.100      337.298        9.178      866.464
01/19/2015  19:41:00     -129.162      312.709      -40.570       55.990       89.837       46.024     3134.832     8070.617     2118.249        6.472        0.666      338.334       38.398        0.013      337.292        9.165      866.471
01/19/2015  19:42:00     -141.627       97.663      -13.714       76.268       93.063       52.404     5816.884     8660.752     2746.145        2.350        0.861      172.036       33.527        0.038      337.292        9.168      866.472
01/19/2015  19:43:00      -79.491      216.444      -23.305       66.433       98.572       44.921     4413.312     9716.386     2017.924        3.493        0.807      230.579       40.199        0.030      337.259        9.111      866.476
01/19/2015  19:44:00     -117.792      267.263      -46.943       53.933       77.308       52.948     2908.745     5976.595     2803.449        4.960        0.584      292.069       39.954        0.019      337.248        9.089      866.481
01/19/2015  19:45:00      -81.277      200.818      -25.343       60.831       60.749       34.546     3700.469     3690.396     1193.402        2.808        0.429      216.642       30.390        0.020      337.232        9.064      866.497
01/19/2015  19:46:00     -125.314      227.351      -37.873       81.184      102.348       47.427     6590.772    10475.067     2249.277        4.407        0.966      259.599       38.469        0.022      337.280        9.144      866.507
01/19/2015  19:47:00     -179.643      269.244      -36.938       93.048      112.793       58.225     8657.988    12722.335     3390.162        6.545        1.239      323.673       48.052        0.022      337.314        9.201      866.498
01/19/2015  19:48:00     -102.393      187.606      -31.173       47.704       51.946       36.844     2275.719     2698.371     1357.492        2.649        0.317      213.730       21.430        0.010      337.310        9.196      866.517
01/19/2015  19:49:00     -120.801      168.632      -37.090       71.916       95.129       42.785     5171.899     9049.435     1830.542        3.023        0.803      207.436       38.683        0.035      337.280        9.145      866.519
01/19/2015  19:50:00      -85.488      254.297      -30.169       52.834       80.577       41.427     2791.428     6492.668     1716.193        4.194        0.550      268.282       36.714        0.019      337.258        9.107      866.511
01/19/2015  19:51:00      -71.322      158.921      -17.271       88.975       99.238       41.199     7916.581     9848.276     1697.376        2.505        0.973      174.192       58.634        0.113      337.200        9.011      866.507
01/19/2015  19:52:00     -129.247      154.406      -20.833       89.117       91.618       44.721     7941.754     8393.902     1999.992        2.965        0.917      201.360       48.216        0.057      337.243        9.085      866.521
01/19/2015  19:53:00     -152.693      203.406      -37.848       75.401       99.668       48.106     5685.317     9933.677     2314.182        4.202        0.897      254.341       38.421        0.023      337.262        9.115      866.516
01/19/2015  19:54:00     -112.476      220.081      -32.079       55.832       64.397       38.421     3117.159     4146.952     1476.205        3.543        0.437      247.157       31.339        0.016      337.251        9.096      866.512
01/19/2015  19:55:00      -82.750      224.584      -34.144       66.887       88.306       42.897     4473.847     7798.006     1840.184        3.628        0.706      239.344       51.735        0.047      337.302        9.182      866.512
01/19/2015  19:56:00     -126.369      209.138      -33.852       71.619       86.285       47.455     5129.343     7445.044     2252.020        3.784        0.741      244.352       43.645        0.032      337.285        9.151      866.521
01/19/2015  19:57:00      -89.794      205.434      -29.898       50.945       67.986       37.486     2595.417     4622.143     1405.225        2.989        0.431      224.201       34.462        0.024      337.274        9.134      866.532
01/19/2015  19:58:00     -107.676      190.506      -35.204       69.161       74.407       31.326     4783.286     5536.453      981.317        3.021        0.565      218.830       21.354        0.010      337.313        9.200      866.534
01/19/2015  19:59:00      -82.283      208.367      -20.794       41.403       77.138       35.396     1714.196     5950.214     1252.903        2.977        0.446      224.025       34.856        0.024      337.271        9.129      866.526
01/19/2015  20:00:00      -89.174      260.352      -37.847       57.599       58.301       34.699     3317.611     3398.967     1204.022        4.254        0.396      275.201       23.305        0.007      337.325        9.217      866.533
01/19/2015  20:01:00      -95.842      207.123      -28.467       69.695       61.331       32.163     4857.425     3761.552     1034.468        3.127        0.483      228.223       28.669        0.016      337.236        9.072      866.524
01/19/2015  20:02:00      -90.550      197.714      -24.111       51.734       57.563       30.514     2676.445     3313.516      931.078        2.740        0.346      217.463       27.146        0.016      337.235        9.070      866.530
01/19/2015  20:03:00     -101.941      209.026      -28.936       62.065       74.316       37.399     3852.106     5522.895     1398.720        3.285        0.539      232.560       34.779        0.022      337.251        9.095      866.530
01/19/2015  20:04:00      -36.749      207.057      -25.711       42.282       46.404       28.253     1787.738     2153.366      798.204        2.481        0.237      210.293       25.704        0.015      337.212        9.032      866.534
01/19/2015  20:05:00      -65.432      182.646      -21.992       66.908       90.124       33.556     4476.715     8122.284     1125.976        2.592        0.686      194.013       43.678        0.051      337.166        8.954      866.540
01/19/2015  20:06:00     -145.199      158.646      -22.417       89.041       95.497       43.524     7928.386     9119.716     1894.344        3.285        0.947      215.061       45.137        0.044      337.215        9.036      866.557
01/19/2015  20:07:00     -142.126      193.199      -33.270       57.268       76.419       41.592     3279.663     5839.840     1729.898        3.474        0.542      239.845       36.758        0.023      337.209        9.026      866.557
01/19/2015  20:08:00      -92.981      176.314      -27.897       68.500       57.476       31.915     4692.238     3303.449     1018.537        2.476        0.451      199.329       24.754        0.015      337.170        8.962      866.554
01/19/2015  20:09:00     -121.804      116.950      -23.689       76.456       57.068       33.800     5845.516     3256.702     1142.426        1.966        0.512      168.860       28.462        0.028      337.202        9.015      866.555
01/19/2015  20:10:00     -115.168      164.468      -29.797       57.609       67.942       34.699     3318.844     4616.080     1204.040        2.517        0.457      200.782       38.903        0.038      337.214        9.035      866.566
01/19/2015  20:11:00     -104.185      157.853      -28.578       37.096       53.351       26.849     1376.113     2846.335      720.884        2.077        0.247      189.135       21.295        0.013      337.192        8.999      866.585
01/19/2015  20:12:00     -125.465      168.451      -32.383       58.623       63.143       38.775     3436.638     3987.011     1503.533        2.704        0.446      210.041       33.473        0.025      337.217        9.040      866.594
01/19/2015  20:13:00     -135.331      152.135      -33.530       51.799       65.819       30.887     2683.141     4332.117      954.009        2.528        0.398      203.616       30.244        0.022      337.172        8.964      866.605
01/19/2015  20:14:00     -141.484      220.901      -38.311       77.330       82.548       52.925     5979.927     6814.147     2801.065        4.294        0.780      262.326       53.475        0.042      337.271        9.130      866.610
01/19/2015  20:15:00     -113.611      243.904      -39.976       63.882       61.277       41.762     4080.944     3754.857     1744.043        4.179        0.479      269.066       36.221        0.018      337.262        9.112      866.602
01/19/2015  20:16:00     -110.555      150.489      -25.076       50.970       72.152       41.740     2597.966     5205.867     1742.211        2.252        0.477      186.734       32.806        0.031      337.209        9.028      866.595
01/19/2015  20:17:00      -99.082      245.281      -34.663       70.057       94.727       39.075     4908.000     8973.122     1526.890        4.329        0.770      264.538       34.834        0.017      337.199        9.007      866.596
01/19/2015  20:18:00     -143.827      206.060      -41.773       72.533      106.017       43.347     5260.978    11239.609     1878.996        4.163        0.919      251.291       54.265        0.047      337.319        9.210      866.605
01/19/2015  20:19:00     -133.139      119.766      -23.098       52.035       73.127       39.790     2707.654     5347.532     1583.275        2.112        0.482      179.080       42.754        0.057      337.244        9.085      866.597
01/19/2015  20:20:00      -90.296      118.744      -20.035       53.057       82.021       36.337     2815.070     6727.490     1320.390        1.676        0.543      149.176       35.119        0.055      337.172        8.966      866.596
01/19/2015  20:21:00      -87.823      143.339      -22.125       53.768       45.117       30.133     2890.965     2035.533      907.997        1.729        0.292      168.104       22.616        0.018      337.197        9.008      866.585
01/19/2015  20:22:00     -130.881       83.041      -25.994       54.830       44.574       34.220     3006.336     1986.809     1170.999        1.543        0.308      155.002       27.715        0.032      337.159        8.944      866.574
01/19/2015  20:23:00     -110.579       65.946      -18.579       40.485       46.999       25.315     1639.016     2208.878      640.845        1.070        0.224      128.750       22.713        0.031      337.107        8.856      866.564
01/19/2015  20:24:00     -112.120      149.272      -30.699       64.080       59.898       31.601     4106.274     3587.784      998.620        2.224        0.435      186.689       30.518        0.027      337.206        9.023      866.571
01/19/2015  20:25:00     -113.036       80.499      -24.341       60.586      105.235       39.395     3670.707    11074.382     1552.003        1.807        0.815      138.770       41.385        0.089      337.165        8.954      866.574
01/19/2015  20:26:00      -56.480      154.245      -16.330       54.760       74.444       32.193     2998.635     5541.910     1036.380        1.841        0.479      164.261       33.353        0.041      337.177        8.973      866.583
01/19/2015  20:27:00      -70.783      128.476      -21.895       37.955      101.507       28.470     1440.581    10303.713      810.514        1.727        0.628      146.684       31.375        0.046      337.168        8.959      866.580
01/19/2015  20:28:00      -76.346       71.069      -13.077       66.931       53.090       39.752     4479.811     2818.561     1580.205        0.996        0.444      104.305       39.872        0.146      337.164        8.953      866.584
01/19/2015  20:29:00     -128.151      129.108      -43.467       45.334       57.631       30.571     2055.181     3321.353      934.614        2.064        0.316      181.910       22.736        0.016      337.233        9.067      866.594
01/19/2015  20:30:00     -112.366       95.020      -19.579       38.144       63.961       24.679     1454.983     4090.985      609.074        1.410        0.308      147.156       16.062        0.012      337.116        8.872      866.608
01/19/2015  20:31:00     -131.195      136.238      -41.582       44.107       57.217       32.129     1945.416     3273.793     1032.263        2.188        0.313      189.138       33.398        0.031      337.064        8.782      866.624
01/19/2015  20:32:00     -108.573      152.310      -23.805       50.614       67.743       29.379     2561.733     4589.102      863.153        2.178        0.401      187.046       29.751        0.025      337.059        8.775      866.650
01/19/2015  20:33:00     -114.301      115.815      -22.530       38.293       53.860       28.792     1466.347     2900.949      828.983        1.609        0.260      162.721       23.287        0.020      337.079        8.809      866.662
01/19/2015  20:34:00      -90.312      114.249      -12.854       48.487       59.470       32.514     2350.944     3536.622     1057.141        1.416        0.347      145.633       32.279        0.049      337.014        8.701      866.674
01/19/2015  20:35:00     -106.244       99.826      -21.858       39.843       59.492       26.151     1587.492     3539.281      683.876        1.377        0.291      145.784       20.733        0.020      337.032        8.731      866.680
01/19/2015  20:36:00      -64.493       80.280      -21.905       34.128       49.540       26.100     1164.699     2454.177      681.203        0.769        0.215      102.977       23.963        0.054      336.976        8.638      866.687
01/19/2015  20:37:00      -35.348       48.715      -10.961       40.151       39.901       26.647     1612.075     1592.105      710.054        0.383        0.196       60.188       23.606        0.154      336.948        8.589      866.683
01/19/2015  20:38:00      -74.032       85.042      -10.590       40.612       51.696       23.132     1649.372     2672.489      535.078        0.884        0.243      112.752       19.783        0.031      336.880        8.477      866.689
01/19/2015  20:39:00     -100.814       32.208       -5.593       60.645       34.292       29.829     3677.793     1175.935      889.762        0.849        0.287      105.834       31.049        0.086      336.869        8.460      866.687
01/19/2015  20:40:00      -92.581       69.211      -16.754       57.219       54.027       32.628     3274.053     2918.935     1064.581        1.045        0.363      115.591       25.087        0.047      336.877        8.473      866.682
01/19/2015  20:41:00      -45.519       74.255      -11.194       41.455       60.725       24.555     1718.476     3687.565      602.949        0.686        0.300       87.096       15.611        0.032      336.860        8.446      866.691
01/19/2015  20:42:00      -46.292       16.777      -14.485       32.361       33.067       27.180     1047.214     1093.422      738.727        0.276        0.144       49.238       17.540        0.127      336.907        8.524      866.690
01/19/2015  20:43:00      -50.480      -15.953       -8.848       38.993       35.121       22.749     1520.487     1233.471      517.521        0.308        0.164       52.941       19.158        0.131      336.919        8.543      866.682
01/19/2015  20:44:00      -40.368       62.879      -15.860       27.917       61.428       28.864      779.373     3773.419      833.134        0.561        0.269       74.721       18.768        0.063      336.854        8.437      866.683
01/19/2015  20:45:00      -64.344       16.215      -10.328       45.904       45.939       21.992     2107.142     2110.399      483.628        0.460        0.235       66.355       15.318        0.053      336.867        8.457      866.676
01/19/2015  20:46:00      -76.623       54.468      -11.151       50.082       52.722       29.160     2508.184     2779.637      850.318        0.755        0.307       94.010       35.416        0.142      336.763        8.283      866.673
01/19/2015  20:47:00     -104.126       34.569      -14.521       26.294       42.674       19.168      691.389     1821.069      367.399        0.756        0.144      109.714       10.538        0.009      336.748        8.259      866.658
01/19/2015  20:48:00      -96.796      -30.307      -14.260       37.229       45.713       22.732     1386.004     2089.712      516.739        0.724        0.200      101.430       21.949        0.047      336.750        8.262      866.651
01/19/2015  20:49:00      -74.357       -4.175       -4.978       29.933       32.623       20.648      895.985     1064.280      426.340        0.398        0.119       74.474       15.679        0.044      336.702        8.181      866.653
01/19/2015  20:50:00      -80.952      -14.852      -11.748       31.674       27.014       14.118     1003.232      729.752      199.317        0.442        0.097       82.303        9.436        0.013      336.705        8.188      866.654
01/19/2015  20:51:00     -104.218      -48.379       -7.984       17.949       30.185       14.107      322.151      911.108      199.016        0.735        0.072      114.900        8.437        0.005      336.709        8.195      866.650
01/19/2015  20:52:00      -36.722      -58.147        2.932       30.718       40.259       18.986      943.602     1620.786      360.483        0.383        0.146       68.772       18.084        0.069      336.756        8.272      866.655
01/19/2015  20:53:00      -20.508       52.051        1.152       45.447       52.639       32.395     2065.473     2770.866     1049.410        0.451        0.294       55.945       36.705        0.430      336.686        8.155      866.655
01/19/2015  20:54:00      -73.916      -19.418       -0.392       41.305       43.016       16.438     1706.129     1850.399      270.222        0.483        0.191       76.424       10.885        0.020      336.628        8.058      866.665
01/19/2015  20:55:00      -71.182      -29.610       -4.184       33.089       30.349       22.816     1094.879      921.058      520.554        0.425        0.127       77.095        8.533        0.012      336.593        8.000      866.664
01/19/2015  20:56:00      -88.106      -56.894       -7.623       26.159       21.343       16.287      684.290      455.523      265.254        0.623        0.070      104.879        6.659        0.004      336.660        8.112      866.670
01/19/2015  20:57:00      -43.757      -31.031        5.457       44.474       22.195       20.417     1977.976      492.636      416.852        0.290        0.144       53.643       20.411        0.145      336.560        7.943      866.676
01/19/2015  20:58:00      -52.217      -47.772       12.342       49.950       32.084       23.436     2494.973     1029.377      549.254        0.462        0.204       70.772       27.012        0.146      336.523        7.882      866.675
01/19/2015  20:59:00      -24.691      -16.285       15.548       36.485       27.399       19.002     1331.179      750.711      361.087        0.178        0.122       29.578        9.763        0.109      336.454        7.767      866.676
01/19/2015  21:00:00      -77.454      -41.812       -5.423       61.042       30.785       20.649     3726.092      947.686      426.397        0.644        0.255       88.019       22.852        0.067      336.494        7.833      866.675
01/19/2015  21:01:00      -43.942      -33.842        7.850       62.066       33.727       30.495     3852.145     1137.516      929.952        0.453        0.296       55.463       36.655        0.437      336.400        7.676      866.675
01/19/2015  21:02:00      -87.095      -29.472       -2.581       36.235       39.099       26.028     1312.961     1528.751      677.468        0.599        0.176       91.946       17.046        0.034      336.460        7.776      866.676
01/19/2015  21:03:00      -93.277      -48.313       -0.922       62.900       38.218       21.553     3956.420     1460.597      464.545        0.846        0.294      105.046       22.599        0.046      336.467        7.789      866.680
01/19/2015  21:04:00     -119.088      -54.204       -2.241       30.068       27.383       21.554      904.058      749.805      464.569        0.962        0.106      130.844       17.824        0.019      336.313        7.531      866.683
01/19/2015  21:05:00      -79.259      -33.891       -0.194       33.599       24.341       14.352     1128.903      592.483      205.974        0.468        0.096       86.201       12.922        0.022      336.349        7.591      866.689
01/19/2015  21:06:00      -81.589      -25.319      -11.536       39.999       21.703       21.895     1599.896      471.016      479.385        0.499        0.128       85.428       17.423        0.042      336.419        7.707      866.691
01/19/2015  21:07:00      -91.859      -55.337       -6.930       36.124       28.036       21.674     1304.919      785.991      469.779        0.705        0.128      107.240       15.695        0.021      336.407        7.687      866.690
01/19/2015  21:08:00      -80.489      -31.635      -10.549       35.400       23.186       10.740     1253.159      537.581      115.342        0.475        0.095       86.482       11.762        0.018      336.364        7.617      866.694
01/19/2015  21:09:00      -80.137      -29.676      -10.924       26.890       25.362       14.728      723.050      643.209      216.906        0.450        0.079       85.455        8.431        0.010      336.345        7.584      866.684
01/19/2015  21:10:00      -45.178      -37.454       -4.470       27.889       17.393       16.513      777.797      302.523      272.665        0.241        0.068       58.685       13.128        0.050      336.335        7.567      866.670
01/19/2015  21:11:00      -58.955      -25.079       -6.874       14.865       15.104       11.412      220.964      228.143      130.236        0.237        0.029       64.068        6.041        0.009      336.354        7.599      866.660
01/19/2015  21:12:00      -72.884      -39.092       -4.782       17.197       13.392       11.595      295.724      179.356      134.442        0.374        0.030       82.706        4.896        0.004      336.350        7.594      866.651
01/19/2015  21:13:00      -42.470      -40.796        2.064       40.661       22.851       11.977     1653.283      522.187      143.445        0.290        0.116       58.890       13.314        0.051      336.438        7.739      866.648
01/19/2015  21:14:00      -10.687      -11.389        4.514       12.050       13.470        9.424      145.203      181.450       88.803        0.034        0.021       15.618        6.569        0.177      336.414        7.701      866.645
01/19/2015  21:15:00      -19.294      -22.878       -0.614       20.889       15.615       10.718      436.356      243.835      114.879        0.085        0.040       29.928        3.787        0.016      336.509        7.860      866.644
01/19/2015  21:16:00      -33.392      -13.347       -4.369       13.562       14.923        9.507      183.928      222.697       90.379        0.090        0.025       35.961        4.967        0.019      336.496        7.837      866.645
01/19/2015  21:17:00       -5.198       -1.740        5.733       12.101        8.927        8.167      146.431       79.693       66.703        0.018        0.015        5.482        8.309        2.298      336.336        7.569      866.650
01/19/2015  21:18:00        2.719      -15.042        2.331        9.964       17.257       13.468       99.274      297.793      181.385        0.041        0.029       15.285       11.324        0.549      336.402        7.679      866.653
01/19/2015  21:19:00      -11.295      -25.501        0.807       12.594       15.761        9.683      158.620      248.407       93.765        0.064        0.025       27.891        6.429        0.053      336.453        7.764      866.664
01/19/2015  21:20:00      -11.847       19.021       28.687        7.336       11.677        9.407       53.818      136.353       88.484        0.080        0.014       22.409        8.148        0.132      336.253        7.432      866.670
01/19/2015  21:21:00      -12.424       -8.475        6.029       12.501       11.534        8.596      156.267      133.037       73.888        0.031        0.018       15.040        4.342        0.083      336.206        7.350      866.674
01/19/2015  21:22:00        3.137      -31.536        2.778       19.510       31.521       24.896      380.629      993.598      619.811        0.150        0.100       31.692       21.736        0.470      336.254        7.432      866.673
01/19/2015  21:23:00       22.561      -50.109        5.570       30.084       39.340       25.111      905.026     1547.640      630.561        0.307        0.154       54.954       28.598        0.271      336.150        7.259      866.672
01/19/2015  21:24:00       44.512      -63.502      -14.732       17.501       24.184       14.480      306.280      584.873      209.684        0.367        0.055       77.549        7.099        0.008      336.275        7.466      866.666
01/19/2015  21:25:00       -1.231      -23.146       -7.178       27.883       13.264       12.575      777.447      175.946      158.135        0.085        0.056       23.179        7.357        0.101      336.305        7.517      866.669
01/19/2015  21:26:00      -61.167     -104.941       -3.208       38.467       65.494       22.101     1479.678     4289.417      488.462        1.051        0.313      121.466       28.112        0.054      336.020        7.041      866.669
01/19/2015  21:27:00      -24.379      -75.272        9.811       53.402       60.183       33.746     2851.819     3621.953     1138.794        0.698        0.381       79.121       26.663        0.114      335.899        6.838      866.672
01/19/2015  21:28:00      -45.962      -59.006        4.499       42.824       43.056       25.495     1833.913     1853.812      650.009        0.498        0.217       74.795       13.362        0.032      335.922        6.878      866.696
01/19/2015  21:29:00       -9.516      -59.788        0.778       35.866       41.368       25.909     1286.403     1711.328      671.257        0.367        0.183       60.540       22.273        0.135      335.984        6.980      866.711
01/19/2015  21:30:00      -39.412     -106.197       -2.797       37.897       60.483       23.852     1436.159     3658.160      568.939        0.925        0.283      113.275       14.762        0.017      335.919        6.872      866.726
01/19/2015  21:31:00      -59.999      -64.570       -6.550       49.249       41.778       27.715     2425.458     1745.367      768.101        0.637        0.247       88.143       27.280        0.096      335.837        6.737      866.732
01/19/2015  21:32:00      -51.127      -86.880       10.756       45.997       53.857       26.703     2115.729     2900.569      713.070        0.800        0.286      100.807       26.940        0.071      335.757        6.603      866.735
01/19/2015  21:33:00      -48.217      -35.002        9.238       64.060       31.608       28.061     4103.635      999.083      787.404        0.476        0.295       59.582       37.041        0.386      335.690        6.491      866.738
01/19/2015  21:34:00      -99.289      -74.614        0.282       59.240       39.923       31.801     3509.355     1593.834     1011.285        1.077        0.306      124.200       30.218        0.059      335.650        6.425      866.738
01/19/2015  21:35:00      -71.713      -60.276        8.844       34.276       29.996       20.619     1174.851      899.775      425.135        0.568        0.125       93.680       15.614        0.028      335.692        6.497      866.728
01/19/2015  21:36:00      -49.295      -28.710       10.434       47.943       29.992       19.858     2298.572      899.547      394.329        0.348        0.180       57.046       20.170        0.125      335.736        6.568      866.717
01/19/2015  21:37:00      -26.517      -43.313        5.213       22.675       16.518       16.406      514.160      272.845      269.166        0.183        0.053       50.786       14.283        0.079      335.795        6.667      866.729
01/19/2015  21:38:00      -44.862      -36.164        4.054       30.237       17.153       10.646      914.276      294.209      113.331        0.233        0.066       57.623        8.991        0.024      335.763        6.615      866.720
01/19/2015  21:39:00      -41.800      -40.323        5.457       16.704       16.719       11.859      279.040      279.528      140.630        0.205        0.035       58.079        5.841        0.010      335.759        6.607      866.712
01/19/2015  21:40:00      -60.898      -31.205       -0.843       22.723       16.481       15.408      516.339      271.626      237.417        0.285        0.051       68.428       13.133        0.037      335.707        6.521      866.704
01/19/2015  21:41:00      -41.639      -29.463        0.069       19.751       14.962        7.214      390.106      223.850       52.047        0.163        0.033       51.009        9.770        0.037      335.694        6.497      866.702
01/19/2015  21:42:00      -27.640      -25.014        3.800       20.638       18.030       10.961      425.909      325.077      120.136        0.114        0.044       37.278       11.296        0.092      335.672        6.463      866.698
01/19/2015  21:43:00      -48.316      -35.677       -8.889       15.371       17.095       10.981      236.259      292.238      120.590        0.217        0.032       60.061        5.006        0.007      335.731        6.561      866.697
01/19/2015  21:44:00      -58.159      -35.612        1.253       36.846       20.496       13.502     1357.654      420.105      182.308        0.331        0.098       68.196       17.815        0.068      335.667        6.455      866.694
01/19/2015  21:45:00      -63.108      -43.493       -0.651       19.235       14.139       10.735      369.997      199.911      115.241        0.328        0.034       76.643        7.815        0.010      335.734        6.566      866.703
01/19/2015  21:46:00      -52.301      -34.251       -1.521       20.752       11.818       11.418      430.643      139.665      130.380        0.231        0.035       62.518       10.638        0.029      335.664        6.449      866.708
01/19/2015  21:47:00      -41.260      -35.310        3.179       42.016       20.380       19.999     1765.308      415.336      399.946        0.277        0.129       54.306       25.346        0.218      335.677        6.470      866.706
01/19/2015  21:48:00      -14.160      -20.771       12.976       35.434       16.803       14.401     1255.569      282.327      207.377        0.127        0.087       25.138       18.657        0.551      335.584        6.316      866.712
01/19/2015  21:49:00      -55.125      -16.786        3.756       29.059       26.601       14.789      844.417      707.612      218.714        0.255        0.089       57.624       16.852        0.086      335.433        6.064      866.716
01/19/2015  21:50:00      -79.656       -9.736       -3.330       16.150       16.764       11.512      260.833      281.044      132.521        0.356        0.034       80.249        6.087        0.006      335.442        6.076      866.736
01/19/2015  21:51:00      -73.664      -10.556       -2.795       22.745       19.380       15.655      517.322      375.576      245.083        0.334        0.057       74.416       14.504        0.038      335.423        6.047      866.739
01/19/2015  21:52:00      -69.105       -9.334        2.195       25.313       26.313       12.641      640.739      692.381      159.796        0.318        0.075       69.732       12.292        0.031      335.350        5.923      866.737
01/19/2015  21:53:00      -81.424       -5.984       -5.487       24.966       16.287       14.019      623.291      265.256      196.541        0.389        0.054       81.644       14.414        0.031      335.267        5.786      866.732
01/19/2015  21:54:00      -56.041      -18.863        0.803       22.216       18.086       13.898      493.569      327.103      193.151        0.226        0.051       59.130       12.195        0.043      335.214        5.698      866.738
01/19/2015  21:55:00      -77.904      -26.223        2.990       19.594       20.033       12.574      383.909      401.307      158.112        0.385        0.047       82.199        8.441        0.011      335.234        5.730      866.748
01/19/2015  21:56:00      -61.171      -15.240        4.741       28.690       20.386       14.769      823.141      415.607      218.118        0.273        0.073       63.041       14.503        0.053      335.199        5.672      866.753
01/19/2015  21:57:00      -76.912       -8.713       -2.346       30.195       23.632       17.330      911.731      558.478      300.312        0.388        0.089       77.404       18.428        0.057      335.150        5.592      866.757
01/19/2015  21:58:00      -77.328      -42.691       -3.491       20.559       19.755       11.338      422.680      390.247      128.554        0.438        0.047       88.330        7.706        0.008      335.171        5.628      866.761
01/19/2015  21:59:00      -54.679      -22.380        8.377       39.239       27.690       15.848     1539.709      766.721      251.149        0.306        0.128       59.082       12.388        0.044      335.131        5.559      866.773
01/19/2015  22:00:00      -45.114      -47.294        4.974       27.998       23.857       15.430      783.898      569.155      238.095        0.294        0.080       65.360       13.741        0.044      335.178        5.639      866.777
01/19/2015  22:01:00      -84.708      -43.991       -2.481       39.097       19.585       17.151     1528.553      383.585      294.158        0.566        0.110       95.449       15.930        0.028      335.146        5.587      866.775
01/19/2015  22:02:00      -51.408      -26.768        4.251       41.217       23.936       17.192     1698.867      572.946      295.571        0.297        0.128       57.960       19.712        0.116      335.066        5.454      866.759
01/19/2015  22:03:00      -76.275      -37.932       -2.964       30.548       25.200       15.695      933.159      635.018      246.349        0.454        0.091       85.187       11.712        0.019      335.058        5.441      866.750
01/19/2015  22:04:00      -95.134      -27.991       -6.882       28.054       22.889       17.945      787.016      523.916      322.006        0.576        0.082       99.166       13.974        0.020      335.085        5.484      866.743
01/19/2015  22:05:00      -66.245      -15.901        2.761       32.833       27.231       19.353     1077.990      741.546      374.550        0.342        0.110       68.127       17.382        0.065      335.030        5.394      866.727
01/19/2015  22:06:00      -34.656      -31.916       -0.600       38.106       16.453       17.528     1452.099      270.704      307.243        0.212        0.102       47.114       21.026        0.199      335.072        5.464      866.709
01/19/2015  22:07:00      -62.886      -43.359       -1.106       24.555       25.893       14.865      602.939      670.424      220.955        0.366        0.075       76.385       12.715        0.028      334.956        5.271      866.698
01/19/2015  22:08:00      -84.882      -16.174       -7.121       29.079       20.897       16.107      845.611      436.694      259.430        0.453        0.077       86.410       15.754        0.033      335.008        5.358      866.695
01/19/2015  22:09:00     -104.482       -8.334       -6.838       25.973       19.773       15.501      674.607      390.969      240.279        0.617        0.065      104.813       10.722        0.010      334.989        5.327      866.684
01/19/2015  22:10:00     -108.869      -11.677       -5.109       25.784       18.460       16.258      664.799      340.758      264.327        0.664        0.063      109.494       14.364        0.017      334.932        5.231      866.680
01/19/2015  22:11:00     -101.137      -40.804       -1.372       30.975       19.480       15.285      959.453      379.472      233.626        0.673        0.079      109.059       17.625        0.026      334.858        5.107      866.672
01/19/2015  22:12:00      -65.091      -32.503       -5.969       20.223       17.689       11.437      408.950      312.894      130.798        0.309        0.043       72.755        8.111        0.012      334.862        5.115      866.670
01/19/2015  22:13:00      -43.075      -38.474       -4.249       21.962       20.156       14.227      482.316      406.261      202.417        0.222        0.055       57.755        6.656        0.013      334.894        5.168      866.677
01/19/2015  22:14:00       -2.897      -15.709       13.785       18.290       12.119       12.914      334.508      146.861      166.764        0.055        0.032       15.974        8.914        0.311      334.838        5.074      866.676
01/19/2015  22:15:00      -53.887      -22.393       -5.729       12.986       12.369        9.337      168.627      152.998       87.171        0.192        0.020       58.355        5.852        0.010      334.803        5.018      866.668
01/19/2015  22:16:00      -52.685      -30.370       -7.406       20.269       17.875       13.069      410.830      319.512      170.793        0.233        0.045       60.811        7.732        0.016      334.838        5.076      866.660
01/19/2015  22:17:00      -85.726       -7.796      -17.567       13.909       11.383        9.243      193.470      129.581       85.437        0.406        0.020       86.080        4.533        0.003      334.777        4.973      866.670
01/19/2015  22:18:00      -61.463      -17.663      -11.489       13.447       10.731       10.055      180.831      115.146      101.105        0.231        0.020       63.950        7.357        0.013      334.855        5.103      866.666
01/19/2015  22:19:00      -60.596      -18.872      -13.009       18.751       10.523       10.157      351.609      110.732      103.155        0.238        0.028       63.467        7.547        0.014      334.932        5.230      866.662
01/19/2015  22:20:00      -41.764      -17.243       -8.246       18.567       14.043        9.046      344.720      197.212       81.836        0.137        0.031       45.184        6.977        0.024      334.968        5.291      866.676
01/19/2015  22:21:00      -65.282      -18.620      -13.270       11.410       15.547        8.908      130.199      241.701       79.354        0.262        0.023       67.885        3.995        0.003      334.876        5.140      866.684
01/19/2015  22:22:00      -70.325      -16.781       -8.341       18.238       16.723       13.942      332.630      279.656      194.370        0.305        0.040       72.300       10.971        0.023      334.829        5.060      866.680
01/19/2015  22:23:00      -78.825      -18.754       -6.053       21.906       13.277       13.897      479.870      176.291      193.137        0.373        0.042       81.025       10.361        0.016      334.745        4.921      866.693
01/19/2015  22:24:00      -60.291      -20.932      -10.642       12.740       10.312        8.547      162.314      106.330       73.056        0.226        0.017       63.821        5.106        0.006      334.724        4.885      866.715
01/19/2015  22:25:00      -48.183      -23.172      -11.965        8.535        8.008        7.398       72.848       64.132       54.734        0.160        0.010       53.466        0.629        0.000      334.733        4.900      866.724
01/19/2015  22:26:00      -40.521      -15.431      -13.986        6.333        6.886        6.703       40.113       47.420       44.930        0.110        0.007       43.360        3.626        0.007      334.804        5.017      866.727
01/19/2015  22:27:00      -42.766      -20.549      -10.594        5.563        9.375        6.381       30.951       87.897       40.719        0.126        0.008       47.446        5.500        0.013      334.908        5.192      866.731
01/19/2015  22:28:00      -43.750      -17.460       -9.572       10.373        7.066        7.748      107.609       49.922       60.033        0.126        0.011       47.105        4.663        0.010      334.795        5.004      866.754
01/19/2015  22:29:00      -61.103      -17.213      -10.200       16.985        7.814        9.173      288.478       61.053       84.149        0.228        0.022       63.481        6.992        0.012      334.824        5.052      866.759
01/19/2015  22:30:00      -71.617      -18.459      -17.421       15.496       16.489        9.504      240.121      271.884       90.328        0.319        0.030       73.958        7.151        0.009      334.736        4.906      866.760
01/19/2015  22:31:00      -71.347       -9.496      -12.353       13.960       17.725       11.602      194.891      314.188      134.598        0.299        0.032       71.976        8.743        0.015      334.763        4.949      866.766
01/19/2015  22:32:00      -80.055      -13.238      -13.503       20.386       15.407       10.881      415.579      237.386      118.406        0.377        0.039       81.142       10.493        0.017      334.705        4.854      866.787
01/19/2015  22:33:00      -85.985      -18.625       -9.453       16.310       15.645       13.723      266.018      244.767      188.310        0.426        0.035       87.979        4.743        0.003      334.605        4.687      866.799
01/19/2015  22:34:00      -82.515      -30.970      -11.403       27.498       19.575       14.270      756.141      383.192      203.641        0.462        0.067       88.135       13.105        0.022      334.561        4.615      866.798
01/19/2015  22:35:00     -119.246      -16.319      -18.447       15.377       21.000       11.424      236.448      440.995      130.497        0.782        0.040      120.358        5.576        0.002      334.512        4.533      866.810
01/19/2015  22:36:00     -114.429      -31.787      -15.768       21.887       18.687       13.127      479.060      349.199      172.323        0.768        0.050      118.762        9.756        0.007      334.454        4.438      866.809
01/19/2015  22:37:00     -108.105      -39.948      -21.121       17.694       17.467       12.214      313.081      305.090      149.182        0.725        0.038      115.250        9.988        0.008      334.533        4.569      866.812
01/19/2015  22:38:00      -80.703      -51.423      -14.438       14.983       17.028       13.840      224.491      289.940      191.548        0.504        0.035       95.694        4.665        0.002      334.571        4.631      866.815
01/19/2015  22:39:00     -115.849      -26.497      -17.471       12.814       15.039        9.654      164.195      226.170       93.201        0.746        0.024      118.841        5.712        0.002      334.581        4.648      866.825
01/19/2015  22:40:00     -130.103      -22.458      -12.144       13.253       12.383        9.113      175.648      153.328       83.038        0.900        0.021      132.027        6.071        0.002      334.613        4.701      866.831
01/19/2015  22:41:00     -130.790      -19.874      -13.678       13.408       14.852       10.324      179.774      220.576      106.577        0.910        0.025      132.292        6.403        0.002      334.709        4.860      866.827
01/19/2015  22:42:00     -130.146      -24.595      -11.455       21.995       12.677       13.124      483.758      160.706      172.233        0.925        0.041      132.450       11.841        0.008      334.711        4.862      866.826
01/19/2015  22:43:00     -127.298      -19.266      -11.849       26.744       14.206       11.436      715.223      201.811      130.776        0.888        0.052      128.748       10.185        0.006      334.710        4.862      866.829
01/19/2015  22:44:00     -113.919      -26.959       -4.124       22.063       18.832       16.826      486.771      354.628      283.111        0.742        0.056      117.065       11.205        0.009      334.657        4.774      866.835
01/19/2015  22:45:00     -132.314      -24.631       -9.400       22.891       14.540       12.602      524.012      211.398      158.805        0.955        0.045      134.587       11.827        0.008      334.644        4.752      866.831
01/19/2015  22:46:00     -132.522      -22.336      -11.718       20.678       15.139       11.155      427.593      229.195      124.424        0.949        0.039      134.391        9.370        0.005      334.532        4.567      866.819
01/19/2015  22:47:00     -133.264      -21.143      -14.718       13.865       13.298       11.499      192.239      176.848      132.237        0.946        0.025      134.931        7.360        0.003      334.448        4.428      866.813
01/19/2015  22:48:00     -123.078      -24.824      -13.096       15.214       20.848       12.142      231.465      434.640      147.438        0.837        0.041      125.556        9.301        0.005      334.396        4.341      866.811
01/19/2015  22:49:00     -115.811      -24.448      -12.876       17.268       19.939       19.064      298.186      397.574      363.455        0.762        0.053      118.364       10.189        0.007      334.379        4.313      866.807
01/19/2015  22:50:00      -84.849      -33.963       -8.957       28.612       14.280       15.894      818.640      203.907      252.620        0.485        0.064       91.394        6.607        0.005      334.455        4.438      866.800
01/19/2015  22:51:00      -91.947      -28.059      -12.955       32.786       24.625       14.051     1074.941      606.375      197.419        0.564        0.094       96.133        7.155        0.006      334.383        4.321      866.807
01/19/2015  22:52:00      -19.600       -7.158        2.083       26.027       13.366       16.436      677.392      178.641      270.135        0.078        0.056       20.867       17.229        0.682      334.381        4.318      866.814
01/19/2015  22:53:00      -36.793      -31.127       -2.235       38.645       21.947       16.571     1493.446      481.671      274.600        0.229        0.112       48.193       17.329        0.129      334.309        4.199      866.805
01/19/2015  22:54:00     -106.576      -47.948      -16.382       28.235       16.249       12.368      797.197      264.022      152.964        0.757        0.061      116.865       11.066        0.009      334.337        4.245      866.788
01/19/2015  22:55:00      -86.880      -35.118      -11.923       26.966       24.777       14.835      727.164      613.911      220.081        0.524        0.078       93.709        9.366        0.010      334.350        4.266      866.771
01/19/2015  22:56:00     -135.201      -18.514      -13.976       31.811       30.182       22.229     1011.915      910.933      494.123        1.062        0.121      136.463       18.498        0.018      334.229        4.064      866.760
01/19/2015  22:57:00      -99.135      -35.374       -7.703       30.341       29.291       18.469      920.600      857.984      341.103        0.663        0.106      105.258       18.177        0.030      334.217        4.044      866.750
01/19/2015  22:58:00     -111.039      -46.158      -10.790       22.585       25.869       21.966      510.091      669.210      482.518        0.812        0.083      120.251       13.292        0.012      334.249        4.097      866.750
01/19/2015  22:59:00      -63.772      -35.277       -1.649       42.484       26.299       20.419     1804.905      691.612      416.916        0.411        0.146       72.879       24.058        0.109      334.258        4.112      866.757
01/19/2015  23:00:00      -80.650      -28.264      -10.975       34.111       19.559       21.275     1163.540      382.539      452.633        0.471        0.100       85.459       17.950        0.044      334.282        4.152      866.751
01/19/2015  23:01:00      -69.271      -42.505      -26.995       20.066       34.976       15.648      402.629     1223.288      244.862        0.460        0.094       81.272        9.333        0.013      334.311        4.201      866.740
01/19/2015  23:02:00      -68.187      -49.878      -29.876       28.539       21.397       18.196      814.465      457.814      331.098        0.482        0.080       84.482       17.710        0.044      334.264        4.122      866.733
01/19/2015  23:03:00      -56.320      -27.336       -6.105       33.650       22.741       22.283     1132.312      517.147      496.551        0.305        0.107       62.604       10.858        0.030      334.272        4.136      866.711
01/19/2015  23:04:00      -56.397       -5.841       -0.222       25.407       15.728       17.152      645.512      247.384      294.180        0.220        0.059       56.698        8.749        0.024      334.279        4.147      866.698
01/19/2015  23:05:00      -57.938      -33.456        1.748       28.047       35.937       20.701      786.640     1291.434      428.519        0.349        0.125       66.904       15.718        0.055      334.331        4.234      866.688
01/19/2015  23:06:00      -65.822      -63.429      -14.838       30.846       22.984       18.955      951.482      528.266      359.307        0.521        0.092       91.410       18.712        0.042      334.297        4.177      866.686
01/19/2015  23:07:00     -111.469      -46.007      -17.561       22.581       18.236       14.526      509.883      332.544      211.002        0.795        0.053      120.590        6.997        0.003      334.237        4.075      866.680
01/19/2015  23:08:00     -131.588      -24.322      -19.931       13.103       15.238       10.908      171.691      232.185      118.995        0.941        0.026      133.816        5.003        0.001      334.264        4.123      866.685
01/19/2015  23:09:00     -118.959      -40.832      -13.980       14.029       14.090       12.498      196.805      198.531      156.211        0.828        0.028      125.771        5.887        0.002      334.282        4.152      866.683
01/19/2015  23:10:00     -113.742      -37.548      -13.113       19.278       15.090       11.055      371.660      227.711      122.218        0.762        0.036      119.780        7.760        0.004      334.277        4.143      866.676
01/19/2015  23:11:00     -111.338      -18.650       -7.724       25.874       29.948       19.072      669.465      896.878      363.724        0.737        0.097      112.889       15.442        0.019      334.259        4.115      866.681
01/19/2015  23:12:00      -94.940      -22.548        0.564       26.103       29.122       17.596      681.388      848.065      309.633        0.568        0.092       97.581       14.132        0.021      334.183        3.987      866.674
01/19/2015  23:13:00     -100.685      -22.879      -12.288       22.489       21.452       16.244      505.761      460.186      263.857        0.602        0.061      103.251       10.177        0.010      334.219        4.046      866.662
01/19/2015  23:14:00      -86.940      -33.445       -5.812       29.806       22.807       16.614      888.406      520.181      276.034        0.520        0.084       93.151       14.445        0.024      334.286        4.159      866.658
01/19/2015  23:15:00      -35.588      -16.588       -0.693       31.293       17.128       18.190      979.266      293.368      330.864        0.157        0.080       39.264       15.216        0.150      334.216        4.042      866.651
01/19/2015  23:16:00      -10.034      -17.615       10.656       34.963       18.625       20.829     1222.394      346.909      433.843        0.126        0.100       20.272       21.799        1.156      334.163        3.954      866.640
01/19/2015  23:17:00      -49.875       -8.052        1.468       32.660       22.348       15.882     1066.651      499.434      252.240        0.219        0.091       50.520       13.139        0.068      334.171        3.968      866.632
01/19/2015  23:18:00      -68.853      -37.220       -8.376       48.643       15.340       15.999     2366.137      235.302      255.973        0.453        0.143       78.269       15.365        0.039      334.134        3.905      866.642
01/19/2015  23:19:00      -97.309      -42.798       -4.033       22.504       23.988       13.642      506.449      575.402      186.117        0.629        0.063      106.305       11.128        0.011      334.187        3.994      866.643
01/19/2015  23:20:00      -35.046      -17.046        7.789       31.660       24.489       19.531     1002.383      599.730      381.475        0.178        0.099       38.971       16.162        0.172      334.225        4.057      866.638
01/19/2015  23:21:00     -104.488      -50.908        0.279       39.261       26.831       18.065     1541.457      719.920      326.346        0.805        0.129      116.230       19.490        0.028      334.229        4.063      866.644
01/19/2015  23:22:00      -93.080      -46.892       -2.833       34.709       24.383       15.302     1204.720      594.524      234.153        0.645        0.102      104.224       14.427        0.019      334.307        4.195      866.645
01/19/2015  23:23:00      -81.204      -53.316        1.896       34.260       24.428       17.735     1173.741      596.721      314.516        0.576        0.104       97.143       11.896        0.015      334.311        4.200      866.653
01/19/2015  23:24:00      -78.989      -48.157       -3.169       31.333       21.475       14.719      981.764      461.178      216.638        0.511        0.083       92.511       14.999        0.026      334.279        4.148      866.665
01/19/2015  23:25:00      -92.505      -41.208       -6.435       24.265       17.445       13.842      588.800      304.340      191.612        0.569        0.054      101.268        9.472        0.009      334.275        4.141      866.684
01/19/2015  23:26:00     -103.310      -41.587       -6.111       17.135       20.794       12.903      293.612      432.396      166.499        0.667        0.045      111.366        9.228        0.007      334.323        4.220      866.698
01/19/2015  23:27:00      -97.020      -33.385      -11.542       14.918       15.080       11.393      222.549      227.407      129.805        0.562        0.029      102.604        9.112        0.008      334.296        4.175      866.695
01/19/2015  23:28:00     -106.440      -36.643      -14.692        9.340       12.127       11.198       87.243      147.054      125.401        0.662        0.018      112.571        7.884        0.005      334.227        4.061      866.680
01/19/2015  23:29:00     -106.619      -39.290      -11.532       19.455       15.871        9.231      378.497      251.875       85.203        0.688        0.036      113.628        8.614        0.006      334.173        3.972      866.670
01/19/2015  23:30:00     -118.567      -41.372      -17.105       11.114       12.033        7.135      123.522      144.803       50.908        0.819        0.016      125.578        4.823        0.001      334.159        3.949      866.650
01/19/2015  23:31:00     -141.727      -45.057      -18.924        9.101       11.291        6.908       82.823      127.482       47.722        1.137        0.013      148.717        5.042        0.001      334.147        3.928      866.629
01/19/2015  23:32:00     -137.634      -39.191      -10.050       20.598       12.821       11.404      424.272      164.377      130.044        1.065        0.036      143.105       11.678        0.007      334.075        3.805      866.623
01/19/2015  23:33:00     -137.041      -40.560       -8.422       16.968       12.878       11.739      287.925      165.833      137.809        1.054        0.030      142.917        8.316        0.003      334.042        3.753      866.629
01/19/2015  23:34:00     -115.645      -74.160       -9.954       24.523       21.446       18.085      601.357      459.945      327.064        1.018        0.069      137.381       15.260        0.012      334.078        3.812      866.621
01/19/2015  23:35:00     -114.898      -67.843      -11.650       35.720       24.900       16.281     1275.952      620.012      265.055        1.005        0.108      133.432        9.512        0.005      334.095        3.844      866.614
01/19/2015  23:36:00     -137.953      -44.055      -12.796       18.368       17.327       13.827      337.396      300.231      191.195        1.098        0.041      144.817        9.416        0.004      334.022        3.720      866.612
01/19/2015  23:37:00     -141.369      -43.760      -20.285       20.530       20.499       13.533      421.496      420.227      183.134        1.167        0.051      147.987       10.817        0.005      334.027        3.729      866.606
01/19/2015  23:38:00     -108.796      -43.214      -15.692       17.791       19.352       14.246      316.508      374.503      202.934        0.742        0.045      117.064        8.177        0.005      334.047        3.761      866.592
01/19/2015  23:39:00     -101.715      -28.987      -13.724       19.556       15.743       10.493      382.419      247.828      110.100        0.606        0.037      105.764        3.115        0.001      333.960        3.618      866.586
01/19/2015  23:40:00      -52.674      -32.740        4.991       21.838       27.348       19.106      476.908      747.917      365.048        0.273        0.079       62.020       13.505        0.047      333.943        3.591      866.593
01/19/2015  23:41:00     -106.259      -16.086      -11.508       29.840       21.831       18.713      890.424      476.588      350.176        0.670        0.086      107.470       14.083        0.017      333.946        3.596      866.597
01/19/2015  23:42:00      -64.070      -21.852       -8.804       19.904       20.669       12.545      396.187      427.214      157.379        0.282        0.049       67.694        7.954        0.014      333.985        3.660      866.603
01/19/2015  23:43:00      -58.330      -30.777       -9.358       16.291       16.369       13.372      265.397      267.934      178.806        0.257        0.036       65.952        9.317        0.020      334.037        3.746      866.618
01/19/2015  23:44:00      -73.531      -39.175      -13.756       31.237       16.771       19.172      975.756      281.259      367.556        0.438        0.081       83.316       12.514        0.023      334.059        3.782      866.635
01/19/2015  23:45:00      -89.255      -40.507      -13.455       23.227       17.420       12.842      539.481      303.464      164.908        0.540        0.050       98.016        8.290        0.007      334.043        3.756      866.642
01/19/2015  23:46:00      -61.789      -31.191      -14.613       26.160       16.103       13.870      684.333      259.315      192.375        0.307        0.057       69.215        7.488        0.012      334.123        3.887      866.645
01/19/2015  23:47:00      -53.113      -27.026      -12.409       26.846       25.015       20.985      720.708      625.763      440.382        0.275        0.089       59.594       12.423        0.043      334.112        3.869      866.650
01/19/2015  23:48:00      -85.395      -38.229      -10.979       24.049       16.464       13.565      578.377      271.068      184.002        0.495        0.052       93.561        8.940        0.009      334.040        3.751      866.649
01/19/2015  23:49:00     -108.923      -31.945      -12.308       25.205       18.377       12.177      635.282      337.712      148.281        0.708        0.056      113.511       12.358        0.012      334.002        3.688      866.640
01/19/2015  23:50:00      -78.835      -36.647      -16.175       23.392       13.545       12.465      547.166      183.463      155.377        0.435        0.044       86.937        8.121        0.009      334.082        3.819      866.625
01/19/2015  23:51:00      -81.541      -16.587       -8.893       18.021       12.576        9.031      324.763      158.143       81.552        0.378        0.028       83.211        6.349        0.006      334.021        3.721      866.608
01/19/2015  23:52:00      -70.382      -17.322       -9.254       12.353       10.245        9.191      152.602      104.952       84.475        0.284        0.017       72.483        6.519        0.008      333.991        3.672      866.594
01/19/2015  23:53:00      -56.671      -39.210      -10.549       13.349       11.396       11.068      178.190      129.863      122.497        0.265        0.022       68.913        8.553        0.015      334.010        3.704      866.583
01/19/2015  23:54:00      -67.119      -29.846       -8.502       14.076       11.690       15.762      198.140      136.666      248.446        0.303        0.029       73.456        9.816        0.018      334.017        3.711      866.571
01/19/2015  23:55:00      -79.883      -30.587      -13.565       10.176       11.173        7.903      103.552      124.832       62.462        0.390        0.015       85.539        6.303        0.005      333.958        3.616      866.550
01/19/2015  23:56:00      -92.282      -28.189      -15.898        8.757       11.919        9.111       76.685      142.056       83.018        0.493        0.015       96.491        6.782        0.005      333.968        3.632      866.527
01/19/2015  23:57:00      -86.810      -30.641      -14.233       11.796       13.688       10.140      139.135      187.359      102.812        0.455        0.021       92.059        6.053        0.004      333.953        3.607      866.516
01/19/2015  23:58:00      -99.310      -27.184      -19.014       12.407       16.006        9.189      153.924      256.189       84.437        0.573        0.025      102.963        5.200        0.003      333.935        3.578      866.503
01/19/2015  23:59:00      -91.471      -22.416      -14.041        8.582       10.763        7.489       73.655      115.850       56.083        0.466        0.012       94.178        3.257        0.001      333.920        3.551      866.495
